Time,TemperatureF,DewpointF,PressureIn,WindDirection,WindDirectionDegrees,WindSpeedMPH,WindSpeedGustMPH,Humidity,HourlyPrecipIn,Conditions,Clouds,dailyrainin,SoftwareType,DateUTC
2013-06-06 00:00:00,67.5,65.7,29.89,East,82,1.5,1.5,94,0.00,,,0.00,VWS V14.01,2013-06-06 04:00:00,
2013-06-06 00:01:00,67.4,65.6,29.89,East,82,1.5,1.5,94,0.00,,,0.00,VWS V14.01,2013-06-06 04:01:00,
2013-06-06 00:02:00,67.4,65.6,29.89,East,82,1.5,1.5,94,0.00,,,0.00,VWS V14.01,2013-06-06 04:02:00,
2013-06-06 00:03:00,67.4,65.6,29.89,East,82,1.5,1.5,94,0.00,,,0.00,VWS V14.01,2013-06-06 04:03:00,
2013-06-06 00:04:00,67.4,65.6,29.89,East,82,1.5,1.5,94,0.00,,,0.00,VWS V14.01,2013-06-06 04:04:00,
2013-06-06 00:05:00,67.4,65.6,29.89,East,82,1.5,1.5,94,0.00,,,0.00,VWS V14.01,2013-06-06 04:05:00,
2013-06-06 00:06:00,67.3,65.5,29.89,East,81,1.5,1.5,94,0.00,,,0.00,VWS V14.01,2013-06-06 04:06:00,
2013-06-06 00:07:00,67.3,65.5,29.89,East,81,1.5,1.5,94,0.00,,,0.00,VWS V14.01,2013-06-06 04:07:00,
2013-06-06 00:08:00,67.3,65.5,29.89,East,82,1.5,1.5,94,0.00,,,0.00,VWS V14.01,2013-06-06 04:08:00,
2013-06-06 00:09:00,67.3,65.5,29.89,East,82,1.5,1.5,94,0.00,,,0.00,VWS V14.01,2013-06-06 04:09:00,
2013-06-06 00:10:00,67.2,65.4,29.89,East,82,1.5,1.5,94,0.00,,,0.00,VWS V14.01,2013-06-06 04:10:00,
2013-06-06 00:11:00,67.3,65.5,29.89,East,83,1.5,3.0,94,0.00,,,0.00,VWS V14.01,2013-06-06 04:11:00,
2013-06-06 00:12:00,67.3,65.5,29.89,East,92,3.0,3.0,94,0.00,,,0.00,VWS V14.01,2013-06-06 04:12:00,
2013-06-06 00:13:00,67.3,65.8,29.88,East,89,3.0,3.0,95,0.00,,,0.00,VWS V14.01,2013-06-06 04:13:00,
2013-06-06 00:14:00,67.3,65.8,29.88,East,89,1.5,3.0,95,0.00,,,0.00,VWS V14.01,2013-06-06 04:14:00,
2013-06-06 00:15:00,67.3,65.8,29.89,East,94,1.5,3.0,95,0.00,,,0.00,VWS V14.01,2013-06-06 04:15:00,
2013-06-06 00:16:00,67.3,65.8,29.88,East,88,1.5,3.0,95,0.00,,,0.00,VWS V14.01,2013-06-06 04:16:00,
2013-06-06 00:17:00,67.3,65.8,29.88,East,88,1.5,3.0,95,0.00,,,0.00,VWS V14.01,2013-06-06 04:17:00,
2013-06-06 00:18:00,67.3,65.8,29.88,East,89,1.5,1.5,95,0.00,,,0.00,VWS V14.01,2013-06-06 04:18:00,
2013-06-06 00:19:00,67.3,65.8,29.88,East,88,1.5,3.0,95,0.00,,,0.00,VWS V14.01,2013-06-06 04:19:00,
2013-06-06 00:20:00,67.3,65.8,29.89,East,88,1.5,3.0,95,0.00,,,0.00,VWS V14.01,2013-06-06 04:20:00,
2013-06-06 00:21:00,67.3,65.8,29.89,East,88,1.5,1.5,95,0.00,,,0.00,VWS V14.01,2013-06-06 04:21:00,
2013-06-06 00:22:00,67.3,65.8,29.89,East,88,1.5,1.5,95,0.00,,,0.00,VWS V14.01,2013-06-06 04:22:00,
2013-06-06 00:23:00,67.2,65.4,29.89,East,89,1.5,1.5,94,0.00,,,0.00,VWS V14.01,2013-06-06 04:23:00,
2013-06-06 00:24:00,67.2,65.7,29.89,East,89,1.5,1.5,95,0.00,,,0.00,VWS V14.01,2013-06-06 04:24:00,
2013-06-06 00:25:00,67.2,65.7,29.89,East,88,1.5,1.5,95,0.00,,,0.00,VWS V14.01,2013-06-06 04:25:00,
2013-06-06 00:26:00,67.1,65.6,29.89,East,89,1.5,1.5,95,0.00,,,0.00,VWS V14.01,2013-06-06 04:26:00,
2013-06-06 00:27:00,67.1,65.6,29.89,East,88,1.5,1.5,95,0.00,,,0.00,VWS V14.01,2013-06-06 04:27:00,
2013-06-06 00:28:00,67.1,65.6,29.88,East,89,1.5,1.5,95,0.00,,,0.00,VWS V14.01,2013-06-06 04:28:00,
2013-06-06 00:29:00,67.1,65.6,29.88,East,89,1.5,3.0,95,0.00,,,0.00,VWS V14.01,2013-06-06 04:29:00,
2013-06-06 00:30:00,67.1,65.6,29.88,East,89,1.5,3.0,95,0.00,,,0.00,VWS V14.01,2013-06-06 04:30:00,
2013-06-06 00:31:00,67.2,65.7,29.88,East,89,1.5,1.5,95,0.00,,,0.00,VWS V14.01,2013-06-06 04:31:00,
2013-06-06 00:32:00,67.2,65.7,29.88,East,88,1.5,1.5,95,0.00,,,0.00,VWS V14.01,2013-06-06 04:32:00,
2013-06-06 00:33:00,67.2,65.7,29.88,East,89,1.5,3.0,95,0.00,,,0.00,VWS V14.01,2013-06-06 04:33:00,
2013-06-06 00:34:00,67.2,65.7,29.88,East,88,1.5,3.0,95,0.00,,,0.00,VWS V14.01,2013-06-06 04:34:00,
2013-06-06 00:35:00,67.3,65.8,29.88,East,89,1.5,3.0,95,0.00,,,0.00,VWS V14.01,2013-06-06 04:35:00,
2013-06-06 00:36:00,67.3,65.8,29.88,East,89,1.5,3.0,95,0.00,,,0.00,VWS V14.01,2013-06-06 04:36:00,
2013-06-06 00:37:00,67.3,65.8,29.88,East,88,3.0,3.0,95,0.00,,,0.00,VWS V14.01,2013-06-06 04:37:00,
2013-06-06 00:38:00,67.3,65.8,29.88,East,85,1.5,3.0,95,0.00,,,0.00,VWS V14.01,2013-06-06 04:38:00,
2013-06-06 00:39:00,67.3,65.8,29.88,East,85,1.5,3.0,95,0.00,,,0.00,VWS V14.01,2013-06-06 04:39:00,
2013-06-06 00:40:00,67.3,65.8,29.88,East,85,1.5,1.5,95,0.00,,,0.00,VWS V14.01,2013-06-06 04:40:00,
2013-06-06 00:41:00,67.2,65.7,29.88,East,85,1.5,1.5,95,0.00,,,0.00,VWS V14.01,2013-06-06 04:41:00,
2013-06-06 00:42:00,67.3,65.8,29.88,East,85,1.5,1.5,95,0.00,,,0.00,VWS V14.01,2013-06-06 04:42:00,
2013-06-06 00:43:00,67.2,65.7,29.88,East,85,1.5,1.5,95,0.00,,,0.00,VWS V14.01,2013-06-06 04:43:00,
2013-06-06 00:44:00,67.2,65.7,29.88,East,85,1.5,1.5,95,0.00,,,0.00,VWS V14.01,2013-06-06 04:44:00,
2013-06-06 00:45:00,67.2,65.7,29.88,East,86,1.5,1.5,95,0.00,,,0.00,VWS V14.01,2013-06-06 04:45:00,
2013-06-06 00:46:00,67.2,65.7,29.88,East,85,1.5,1.5,95,0.00,,,0.00,VWS V14.01,2013-06-06 04:46:00,
2013-06-06 00:47:00,67.2,65.7,29.88,East,85,1.5,3.0,95,0.00,,,0.00,VWS V14.01,2013-06-06 04:47:00,
2013-06-06 00:48:00,67.2,65.7,29.88,East,85,1.5,3.0,95,0.00,,,0.00,VWS V14.01,2013-06-06 04:48:00,
2013-06-06 00:49:00,67.2,65.7,29.88,East,85,3.0,3.0,95,0.00,,,0.00,VWS V14.01,2013-06-06 04:49:00,
2013-06-06 00:50:00,67.3,65.8,29.88,East,85,1.5,3.0,95,0.00,,,0.00,VWS V14.01,2013-06-06 04:50:00,
2013-06-06 00:51:00,67.2,65.7,29.88,East,81,3.0,3.0,95,0.00,,,0.00,VWS V14.01,2013-06-06 04:51:00,
2013-06-06 00:52:00,67.3,65.8,29.88,East,82,3.0,3.0,95,0.00,,,0.00,VWS V14.01,2013-06-06 04:52:00,
2013-06-06 00:53:00,67.3,65.8,29.88,East,84,3.0,4.5,95,0.00,,,0.00,VWS V14.01,2013-06-06 04:53:00,
2013-06-06 00:54:00,67.3,65.8,29.88,East,84,1.5,4.5,95,0.00,,,0.00,VWS V14.01,2013-06-06 04:54:00,
2013-06-06 00:55:00,67.3,65.8,29.88,ENE,76,1.5,3.0,95,0.00,,,0.00,VWS V14.01,2013-06-06 04:55:00,
2013-06-06 00:56:00,67.3,65.8,29.88,ENE,76,1.5,3.0,95,0.00,,,0.00,VWS V14.01,2013-06-06 04:56:00,
2013-06-06 00:57:00,67.2,65.7,29.88,ENE,76,1.5,3.0,95,0.00,,,0.00,VWS V14.01,2013-06-06 04:57:00,
2013-06-06 00:58:00,67.2,65.7,29.88,East,80,1.5,3.0,95,0.00,,,0.00,VWS V14.01,2013-06-06 04:58:00,
2013-06-06 00:59:00,67.2,65.7,29.88,East,80,1.5,3.0,95,0.00,,,0.00,VWS V14.01,2013-06-06 04:59:00,
2013-06-06 01:00:00,67.2,65.7,29.88,East,80,1.5,3.0,95,0.00,,,0.00,VWS V14.01,2013-06-06 05:00:00,
2013-06-06 01:01:00,67.2,65.7,29.88,East,80,1.5,1.5,95,0.00,,,0.00,VWS V14.01,2013-06-06 05:01:00,
2013-06-06 01:02:00,67.2,65.7,29.88,East,80,1.5,1.5,95,0.00,,,0.00,VWS V14.01,2013-06-06 05:02:00,
2013-06-06 01:03:00,67.2,65.7,29.88,East,80,1.5,1.5,95,0.00,,,0.00,VWS V14.01,2013-06-06 05:03:00,
2013-06-06 01:04:00,67.2,65.7,29.88,East,80,1.5,1.5,95,0.00,,,0.00,VWS V14.01,2013-06-06 05:04:00,
2013-06-06 01:05:00,67.2,65.7,29.88,East,80,1.5,1.5,95,0.00,,,0.00,VWS V14.01,2013-06-06 05:05:00,
2013-06-06 01:06:00,67.2,65.7,29.88,East,80,1.5,1.5,95,0.00,,,0.00,VWS V14.01,2013-06-06 05:06:00,
2013-06-06 01:07:00,67.3,65.8,29.88,East,80,1.5,1.5,95,0.00,,,0.00,VWS V14.01,2013-06-06 05:07:00,
2013-06-06 01:08:00,67.3,65.8,29.88,East,80,1.5,3.0,95,0.00,,,0.00,VWS V14.01,2013-06-06 05:08:00,
2013-06-06 01:09:00,67.3,65.8,29.87,East,80,1.5,3.0,95,0.00,,,0.00,VWS V14.01,2013-06-06 05:09:00,
2013-06-06 01:10:00,67.3,65.8,29.87,East,80,1.5,1.5,95,0.00,,,0.00,VWS V14.01,2013-06-06 05:10:00,
2013-06-06 01:11:00,67.3,65.8,29.87,ENE,78,3.0,3.0,95,0.00,,,0.00,VWS V14.01,2013-06-06 05:11:00,
2013-06-06 01:12:00,67.3,65.8,29.87,ENE,77,3.0,3.0,95,0.00,,,0.00,VWS V14.01,2013-06-06 05:12:00,
2013-06-06 01:13:00,67.3,65.8,29.87,ENE,77,3.0,3.0,95,0.00,,,0.00,VWS V14.01,2013-06-06 05:13:00,
2013-06-06 01:14:00,67.3,65.8,29.87,ENE,75,3.0,3.0,95,0.00,,,0.00,VWS V14.01,2013-06-06 05:14:00,
2013-06-06 01:15:00,67.3,65.8,29.87,ENE,76,1.5,3.0,95,0.00,,,0.00,VWS V14.01,2013-06-06 05:15:00,
2013-06-06 01:16:00,67.3,65.8,29.87,ENE,75,1.5,3.0,95,0.00,,,0.00,VWS V14.01,2013-06-06 05:16:00,
2013-06-06 01:17:00,67.3,65.8,29.87,ENE,75,1.5,1.5,95,0.00,,,0.00,VWS V14.01,2013-06-06 05:17:00,
2013-06-06 01:18:00,67.3,65.8,29.87,ENE,76,1.5,1.5,95,0.00,,,0.00,VWS V14.01,2013-06-06 05:18:00,
2013-06-06 01:19:00,67.2,65.7,29.87,ENE,76,1.5,1.5,95,0.00,,,0.00,VWS V14.01,2013-06-06 05:19:00,
2013-06-06 01:20:00,67.2,65.7,29.87,ENE,76,1.5,1.5,95,0.00,,,0.00,VWS V14.01,2013-06-06 05:20:00,
2013-06-06 01:21:00,67.2,65.7,29.87,ENE,76,3.0,3.0,95,0.00,,,0.00,VWS V14.01,2013-06-06 05:21:00,
2013-06-06 01:22:00,67.2,65.7,29.87,ENE,76,1.5,3.0,95,0.00,,,0.00,VWS V14.01,2013-06-06 05:22:00,
2013-06-06 01:23:00,67.2,65.7,29.87,ENE,76,1.5,3.0,95,0.00,,,0.00,VWS V14.01,2013-06-06 05:23:00,
2013-06-06 01:24:00,67.2,65.7,29.87,ENE,75,3.0,3.0,95,0.00,,,0.00,VWS V14.01,2013-06-06 05:24:00,
2013-06-06 01:25:00,67.2,65.7,29.87,ENE,76,1.5,3.0,95,0.00,,,0.00,VWS V14.01,2013-06-06 05:25:00,
2013-06-06 01:26:00,67.2,65.7,29.87,ENE,76,1.5,3.0,95,0.00,,,0.00,VWS V14.01,2013-06-06 05:26:00,
2013-06-06 01:27:00,67.2,65.7,29.87,ENE,76,1.5,3.0,95,0.00,,,0.00,VWS V14.01,2013-06-06 05:27:00,
2013-06-06 01:28:00,67.2,65.7,29.87,ENE,76,3.0,3.0,95,0.00,,,0.00,VWS V14.01,2013-06-06 05:28:00,
2013-06-06 01:29:00,67.2,65.7,29.87,ENE,76,1.5,3.0,95,0.00,,,0.00,VWS V14.01,2013-06-06 05:29:00,
2013-06-06 01:30:00,67.3,65.8,29.87,ENE,76,1.5,3.0,95,0.00,,,0.00,VWS V14.01,2013-06-06 05:30:00,
2013-06-06 01:31:00,67.3,65.8,29.87,ENE,75,1.5,1.5,95,0.00,,,0.00,VWS V14.01,2013-06-06 05:31:00,
2013-06-06 01:32:00,67.3,65.8,29.87,ENE,75,1.5,1.5,95,0.00,,,0.00,VWS V14.01,2013-06-06 05:32:00,
2013-06-06 01:33:00,67.2,65.7,29.87,ENE,76,1.5,1.5,95,0.00,,,0.00,VWS V14.01,2013-06-06 05:33:00,
2013-06-06 01:34:00,67.2,65.7,29.87,ENE,75,1.5,1.5,95,0.00,,,0.00,VWS V14.01,2013-06-06 05:34:00,
2013-06-06 01:35:00,67.2,65.7,29.86,ENE,76,1.5,1.5,95,0.00,,,0.00,VWS V14.01,2013-06-06 05:35:00,
2013-06-06 01:36:00,67.2,65.7,29.86,ENE,75,1.5,1.5,95,0.00,,,0.00,VWS V14.01,2013-06-06 05:36:00,
2013-06-06 01:37:00,67.2,65.7,29.86,ENE,76,1.5,1.5,95,0.00,,,0.00,VWS V14.01,2013-06-06 05:37:00,
2013-06-06 01:38:00,67.2,65.7,29.86,ENE,75,1.5,1.5,95,0.00,,,0.00,VWS V14.01,2013-06-06 05:38:00,
2013-06-06 01:39:00,67.3,65.8,29.86,ENE,76,1.5,1.5,95,0.00,,,0.00,VWS V14.01,2013-06-06 05:39:00,
2013-06-06 01:40:00,67.2,65.7,29.86,ENE,76,1.5,1.5,95,0.00,,,0.00,VWS V14.01,2013-06-06 05:40:00,
2013-06-06 01:41:00,67.3,66.1,29.86,ENE,76,1.5,3.0,96,0.00,,,0.00,VWS V14.01,2013-06-06 05:41:00,
2013-06-06 01:42:00,67.3,66.1,29.86,ENE,76,1.5,3.0,96,0.00,,,0.00,VWS V14.01,2013-06-06 05:42:00,
2013-06-06 01:43:00,67.3,66.1,29.86,ENE,76,1.5,3.0,96,0.00,,,0.00,VWS V14.01,2013-06-06 05:43:00,
2013-06-06 01:44:00,67.3,66.1,29.86,ENE,76,1.5,1.5,96,0.00,,,0.00,VWS V14.01,2013-06-06 05:44:00,
2013-06-06 01:45:00,67.3,66.1,29.86,East,82,1.5,3.0,96,0.00,,,0.00,VWS V14.01,2013-06-06 05:45:00,
2013-06-06 01:46:00,67.4,66.2,29.86,East,83,1.5,3.0,96,0.00,,,0.00,VWS V14.01,2013-06-06 05:46:00,
2013-06-06 01:47:00,67.4,66.2,29.86,East,83,1.5,3.0,96,0.00,,,0.00,VWS V14.01,2013-06-06 05:47:00,
2013-06-06 01:48:00,67.4,66.2,29.86,East,83,1.5,3.0,96,0.00,,,0.00,VWS V14.01,2013-06-06 05:48:00,
2013-06-06 01:49:00,67.4,66.2,29.86,East,83,1.5,1.5,96,0.00,,,0.00,VWS V14.01,2013-06-06 05:49:00,
2013-06-06 01:50:00,67.4,66.2,29.86,East,82,1.5,1.5,96,0.00,,,0.00,VWS V14.01,2013-06-06 05:50:00,
2013-06-06 01:51:00,67.4,66.2,29.86,East,83,1.5,1.5,96,0.00,,,0.00,VWS V14.01,2013-06-06 05:51:00,
2013-06-06 01:52:00,67.4,66.2,29.86,ESE,122,1.5,3.0,96,0.00,,,0.00,VWS V14.01,2013-06-06 05:52:00,
2013-06-06 01:53:00,67.5,66.3,29.86,ESE,122,1.5,3.0,96,0.00,,,0.00,VWS V14.01,2013-06-06 05:53:00,
2013-06-06 01:54:00,67.5,66.3,29.86,ESE,122,1.5,1.5,96,0.00,,,0.00,VWS V14.01,2013-06-06 05:54:00,
2013-06-06 01:55:00,67.4,65.9,29.85,ESE,122,1.5,1.5,95,0.00,,,0.00,VWS V14.01,2013-06-06 05:55:00,
2013-06-06 01:56:00,67.4,65.9,29.86,ESE,122,1.5,1.5,95,0.00,,,0.00,VWS V14.01,2013-06-06 05:56:00,
2013-06-06 01:57:00,67.4,65.9,29.85,ESE,122,1.5,1.5,95,0.00,,,0.00,VWS V14.01,2013-06-06 05:57:00,
2013-06-06 01:58:00,67.3,65.8,29.85,ESE,122,1.5,1.5,95,0.00,,,0.00,VWS V14.01,2013-06-06 05:58:00,
2013-06-06 01:59:00,67.4,65.9,29.85,ESE,122,1.5,1.5,95,0.00,,,0.00,VWS V14.01,2013-06-06 05:59:00,
2013-06-06 02:00:00,67.4,65.9,29.85,ESE,122,1.5,1.5,95,0.00,,,0.00,VWS V14.01,2013-06-06 06:00:00,
2013-06-06 02:01:00,67.4,65.9,29.85,ESE,122,1.5,1.5,95,0.00,,,0.00,VWS V14.01,2013-06-06 06:01:00,
2013-06-06 02:02:00,67.4,66.2,29.85,ESE,122,1.5,1.5,96,0.00,,,0.00,VWS V14.01,2013-06-06 06:02:00,
2013-06-06 02:03:00,67.4,66.2,29.86,ESE,122,1.5,1.5,96,0.00,,,0.00,VWS V14.01,2013-06-06 06:03:00,
2013-06-06 02:04:00,67.4,66.2,29.86,ESE,122,1.5,1.5,96,0.00,,,0.00,VWS V14.01,2013-06-06 06:04:00,
2013-06-06 02:05:00,67.4,66.2,29.86,ESE,122,1.5,1.5,96,0.00,,,0.00,VWS V14.01,2013-06-06 06:05:00,
2013-06-06 02:06:00,67.4,66.2,29.86,ESE,122,1.5,1.5,96,0.00,,,0.00,VWS V14.01,2013-06-06 06:06:00,
2013-06-06 02:07:00,67.4,66.2,29.85,ESE,122,1.5,3.0,96,0.00,,,0.00,VWS V14.01,2013-06-06 06:07:00,
2013-06-06 02:08:00,67.4,66.2,29.85,ESE,116,1.5,3.0,96,0.00,,,0.00,VWS V14.01,2013-06-06 06:08:00,
2013-06-06 02:09:00,67.4,66.2,29.85,ESE,116,1.5,1.5,96,0.00,,,0.00,VWS V14.01,2013-06-06 06:09:00,
2013-06-06 02:10:00,67.5,66.3,29.85,ESE,116,1.5,1.5,96,0.00,,,0.00,VWS V14.01,2013-06-06 06:10:00,
2013-06-06 02:11:00,67.5,66.3,29.85,ESE,116,1.5,1.5,96,0.00,,,0.00,VWS V14.01,2013-06-06 06:11:00,
2013-06-06 02:12:00,67.4,66.2,29.85,ESE,111,1.5,1.5,96,0.00,,,0.00,VWS V14.01,2013-06-06 06:12:00,
2013-06-06 02:13:00,67.4,65.9,29.85,ESE,111,1.5,1.5,95,0.00,,,0.00,VWS V14.01,2013-06-06 06:13:00,
2013-06-06 02:14:00,67.4,65.9,29.85,ESE,111,1.5,1.5,95,0.00,,,0.00,VWS V14.01,2013-06-06 06:14:00,
2013-06-06 02:15:00,67.4,65.9,29.85,ESE,110,1.5,1.5,95,0.00,,,0.00,VWS V14.01,2013-06-06 06:15:00,
2013-06-06 02:16:00,67.4,65.9,29.85,ESE,110,1.5,1.5,95,0.00,,,0.00,VWS V14.01,2013-06-06 06:16:00,
2013-06-06 02:17:00,67.5,66.0,29.85,ESE,110,1.5,1.5,95,0.00,,,0.00,VWS V14.01,2013-06-06 06:17:00,
2013-06-06 02:18:00,67.5,66.3,29.85,ESE,105,1.5,3.0,96,0.00,,,0.00,VWS V14.01,2013-06-06 06:18:00,
2013-06-06 02:19:00,67.5,66.3,29.85,ESE,106,1.5,3.0,96,0.00,,,0.00,VWS V14.01,2013-06-06 06:19:00,
2013-06-06 02:20:00,67.6,66.1,29.85,ESE,105,1.5,1.5,95,0.00,,,0.00,VWS V14.01,2013-06-06 06:20:00,
2013-06-06 02:21:00,67.6,66.1,29.85,ESE,105,1.5,1.5,95,0.00,,,0.00,VWS V14.01,2013-06-06 06:21:00,
2013-06-06 02:22:00,67.6,66.1,29.85,SW,215,1.5,3.0,95,0.00,,,0.00,VWS V14.01,2013-06-06 06:22:00,
2013-06-06 02:23:00,67.6,66.1,29.85,SW,217,3.0,3.0,95,0.00,,,0.00,VWS V14.01,2013-06-06 06:23:00,
2013-06-06 02:24:00,67.7,66.2,29.85,WSW,241,1.5,6.0,95,0.00,,,0.00,VWS V14.01,2013-06-06 06:24:00,
2013-06-06 02:25:00,67.8,66.3,29.85,SW,219,1.5,4.5,95,0.00,,,0.00,VWS V14.01,2013-06-06 06:25:00,
2013-06-06 02:26:00,67.8,66.3,29.85,SW,219,1.5,4.5,95,0.00,,,0.00,VWS V14.01,2013-06-06 06:26:00,
2013-06-06 02:27:00,67.8,66.3,29.85,SW,219,1.5,4.5,95,0.00,,,0.00,VWS V14.01,2013-06-06 06:27:00,
2013-06-06 02:28:00,67.8,66.3,29.85,SW,221,1.5,1.5,95,0.00,,,0.00,VWS V14.01,2013-06-06 06:28:00,
2013-06-06 02:29:00,67.9,66.4,29.85,SW,221,1.5,1.5,95,0.00,,,0.00,VWS V14.01,2013-06-06 06:29:00,
2013-06-06 02:30:00,67.9,66.4,29.85,ESE,114,1.5,4.5,95,0.00,,,0.00,VWS V14.01,2013-06-06 06:30:00,
2013-06-06 02:31:00,67.9,66.4,29.85,ESE,114,3.0,4.5,95,0.00,,,0.00,VWS V14.01,2013-06-06 06:31:00,
2013-06-06 02:32:00,67.9,66.4,29.84,ESE,114,1.5,4.5,95,0.00,,,0.00,VWS V14.01,2013-06-06 06:32:00,
2013-06-06 02:33:00,67.9,66.4,29.84,ESE,113,1.5,1.5,95,0.00,,,0.00,VWS V14.01,2013-06-06 06:33:00,
2013-06-06 02:34:00,67.9,66.1,29.84,ESE,113,1.5,1.5,94,0.00,,,0.00,VWS V14.01,2013-06-06 06:34:00,
2013-06-06 02:35:00,68.0,66.2,29.84,South,182,3.0,6.0,94,0.00,,,0.00,VWS V14.01,2013-06-06 06:35:00,
2013-06-06 02:36:00,68.0,66.2,29.84,South,182,3.0,6.0,94,0.00,,,0.00,VWS V14.01,2013-06-06 06:36:00,
2013-06-06 02:37:00,68.0,66.2,29.84,SE,136,1.5,6.0,94,0.00,,,0.00,VWS V14.01,2013-06-06 06:37:00,
2013-06-06 02:38:00,68.0,66.2,29.84,ESE,122,1.5,3.0,94,0.00,,,0.00,VWS V14.01,2013-06-06 06:38:00,
2013-06-06 02:39:00,68.0,66.2,29.84,SSE,156,1.5,3.0,94,0.00,,,0.00,VWS V14.01,2013-06-06 06:39:00,
2013-06-06 02:40:00,68.0,66.2,29.84,SSE,156,1.5,3.0,94,0.00,,,0.00,VWS V14.01,2013-06-06 06:40:00,
2013-06-06 02:41:00,68.0,66.2,29.84,SSE,156,1.5,3.0,94,0.00,,,0.00,VWS V14.01,2013-06-06 06:41:00,
2013-06-06 02:42:00,67.9,66.1,29.84,SSE,156,1.5,1.5,94,0.00,,,0.00,VWS V14.01,2013-06-06 06:42:00,
2013-06-06 02:43:00,67.9,66.1,29.84,SSE,156,1.5,1.5,94,0.00,,,0.00,VWS V14.01,2013-06-06 06:43:00,
2013-06-06 02:44:00,67.9,66.1,29.84,ESE,119,1.5,3.0,94,0.00,,,0.00,VWS V14.01,2013-06-06 06:44:00,
2013-06-06 02:45:00,67.9,66.1,29.84,ESE,120,1.5,3.0,94,0.00,,,0.00,VWS V14.01,2013-06-06 06:45:00,
2013-06-06 02:46:00,67.9,66.1,29.84,ESE,119,1.5,3.0,94,0.00,,,0.00,VWS V14.01,2013-06-06 06:46:00,
2013-06-06 02:47:00,67.9,66.1,29.84,ESE,119,1.5,1.5,94,0.00,,,0.00,VWS V14.01,2013-06-06 06:47:00,
2013-06-06 02:48:00,67.9,66.1,29.84,ESE,120,1.5,1.5,94,0.00,,,0.00,VWS V14.01,2013-06-06 06:48:00,
2013-06-06 02:49:00,67.9,66.1,29.84,ESE,119,1.5,1.5,94,0.00,,,0.00,VWS V14.01,2013-06-06 06:49:00,
2013-06-06 02:50:00,67.8,66.0,29.84,ESE,120,1.5,1.5,94,0.00,,,0.00,VWS V14.01,2013-06-06 06:50:00,
2013-06-06 02:51:00,67.8,66.0,29.84,ESE,120,1.5,1.5,94,0.00,,,0.00,VWS V14.01,2013-06-06 06:51:00,
2013-06-06 02:52:00,67.8,66.0,29.85,ESE,120,1.5,1.5,94,0.00,,,0.00,VWS V14.01,2013-06-06 06:52:00,
2013-06-06 02:53:00,67.7,65.9,29.84,ESE,119,1.5,1.5,94,0.00,,,0.00,VWS V14.01,2013-06-06 06:53:00,
2013-06-06 02:54:00,67.7,65.9,29.84,ESE,119,1.5,1.5,94,0.00,,,0.00,VWS V14.01,2013-06-06 06:54:00,
2013-06-06 02:55:00,67.7,65.9,29.84,ESE,119,1.5,1.5,94,0.00,,,0.00,VWS V14.01,2013-06-06 06:55:00,
2013-06-06 02:56:00,67.7,65.9,29.84,ESE,120,1.5,1.5,94,0.00,,,0.00,VWS V14.01,2013-06-06 06:56:00,
2013-06-06 02:57:00,67.6,65.8,29.84,ESE,119,1.5,1.5,94,0.00,,,0.00,VWS V14.01,2013-06-06 06:57:00,
2013-06-06 02:58:00,67.6,65.8,29.84,ESE,119,1.5,1.5,94,0.00,,,0.00,VWS V14.01,2013-06-06 06:58:00,
2013-06-06 02:59:00,67.6,65.8,29.84,ESE,119,1.5,1.5,94,0.00,,,0.00,VWS V14.01,2013-06-06 06:59:00,
2013-06-06 03:00:00,67.5,65.7,29.84,ESE,119,1.5,1.5,94,0.00,,,0.00,VWS V14.01,2013-06-06 07:00:00,
2013-06-06 03:01:00,67.5,65.7,29.84,ESE,120,1.5,1.5,94,0.00,,,0.00,VWS V14.01,2013-06-06 07:01:00,
2013-06-06 03:02:00,67.5,65.7,29.84,ESE,119,1.5,1.5,94,0.00,,,0.00,VWS V14.01,2013-06-06 07:02:00,
2013-06-06 03:03:00,67.5,65.7,29.84,ESE,119,1.5,1.5,94,0.00,,,0.00,VWS V14.01,2013-06-06 07:03:00,
2013-06-06 03:04:00,67.5,65.7,29.84,ESE,119,1.5,1.5,94,0.00,,,0.00,VWS V14.01,2013-06-06 07:04:00,
2013-06-06 03:05:00,67.4,65.6,29.84,ESE,119,1.5,3.0,94,0.00,,,0.00,VWS V14.01,2013-06-06 07:05:00,
2013-06-06 03:06:00,67.4,65.6,29.84,ESE,120,1.5,3.0,94,0.00,,,0.00,VWS V14.01,2013-06-06 07:06:00,
2013-06-06 03:07:00,67.4,65.6,29.84,ESE,119,1.5,3.0,94,0.00,,,0.00,VWS V14.01,2013-06-06 07:07:00,
2013-06-06 03:08:00,67.4,65.6,29.84,ESE,119,1.5,1.5,94,0.00,,,0.00,VWS V14.01,2013-06-06 07:08:00,
2013-06-06 03:09:00,67.4,65.6,29.84,ESE,119,1.5,1.5,94,0.00,,,0.00,VWS V14.01,2013-06-06 07:09:00,
2013-06-06 03:10:00,67.3,65.5,29.84,ESE,119,1.5,1.5,94,0.00,,,0.00,VWS V14.01,2013-06-06 07:10:00,
2013-06-06 03:11:00,67.3,65.5,29.84,ESE,119,1.5,1.5,94,0.00,,,0.00,VWS V14.01,2013-06-06 07:11:00,
2013-06-06 03:12:00,67.3,65.5,29.84,ESE,119,1.5,1.5,94,0.00,,,0.00,VWS V14.01,2013-06-06 07:12:00,
2013-06-06 03:13:00,67.3,65.5,29.84,ESE,119,1.5,1.5,94,0.00,,,0.00,VWS V14.01,2013-06-06 07:13:00,
2013-06-06 03:14:00,67.3,65.5,29.84,ESE,119,1.5,1.5,94,0.00,,,0.00,VWS V14.01,2013-06-06 07:14:00,
2013-06-06 03:15:00,67.3,65.5,29.84,ESE,119,1.5,1.5,94,0.00,,,0.00,VWS V14.01,2013-06-06 07:15:00,
2013-06-06 03:16:00,67.3,65.5,29.84,ESE,119,1.5,1.5,94,0.00,,,0.00,VWS V14.01,2013-06-06 07:16:00,
2013-06-06 03:17:00,67.3,65.5,29.84,ESE,119,1.5,1.5,94,0.00,,,0.00,VWS V14.01,2013-06-06 07:17:00,
2013-06-06 03:18:00,67.3,65.5,29.84,ESE,119,1.5,1.5,94,0.00,,,0.00,VWS V14.01,2013-06-06 07:18:00,
2013-06-06 03:19:00,67.2,65.4,29.84,ESE,119,1.5,1.5,94,0.00,,,0.00,VWS V14.01,2013-06-06 07:19:00,
2013-06-06 03:20:00,67.2,65.4,29.84,SE,130,3.0,3.0,94,0.00,,,0.00,VWS V14.01,2013-06-06 07:20:00,
2013-06-06 03:21:00,67.2,65.7,29.84,ESE,121,3.0,3.0,95,0.00,,,0.00,VWS V14.01,2013-06-06 07:21:00,
2013-06-06 03:22:00,67.2,65.7,29.84,ESE,121,1.5,3.0,95,0.00,,,0.00,VWS V14.01,2013-06-06 07:22:00,
2013-06-06 03:23:00,67.2,65.7,29.84,SSE,147,1.5,3.0,95,0.00,,,0.00,VWS V14.01,2013-06-06 07:23:00,
2013-06-06 03:24:00,67.2,65.7,29.84,SSE,148,1.5,3.0,95,0.00,,,0.00,VWS V14.01,2013-06-06 07:24:00,
2013-06-06 03:25:00,67.2,65.7,29.84,SE,133,1.5,1.5,95,0.00,,,0.00,VWS V14.01,2013-06-06 07:25:00,
2013-06-06 03:26:00,67.2,65.7,29.84,SE,133,1.5,1.5,95,0.00,,,0.00,VWS V14.01,2013-06-06 07:26:00,
2013-06-06 03:27:00,67.2,65.7,29.84,SE,133,1.5,1.5,95,0.00,,,0.00,VWS V14.01,2013-06-06 07:27:00,
2013-06-06 03:28:00,67.2,65.7,29.84,SE,127,1.5,3.0,95,0.00,,,0.00,VWS V14.01,2013-06-06 07:28:00,
2013-06-06 03:29:00,67.2,65.7,29.84,SE,128,1.5,3.0,95,0.00,,,0.00,VWS V14.01,2013-06-06 07:29:00,
2013-06-06 03:30:00,67.2,65.7,29.84,SE,127,1.5,1.5,95,0.00,,,0.00,VWS V14.01,2013-06-06 07:30:00,
2013-06-06 03:31:00,67.2,65.7,29.84,SE,127,1.5,1.5,95,0.00,,,0.00,VWS V14.01,2013-06-06 07:31:00,
2013-06-06 03:32:00,67.1,65.6,29.84,SE,128,1.5,1.5,95,0.00,,,0.00,VWS V14.01,2013-06-06 07:32:00,
2013-06-06 03:33:00,67.1,65.6,29.84,SE,128,3.0,3.0,95,0.00,,,0.00,VWS V14.01,2013-06-06 07:33:00,
2013-06-06 03:34:00,67.1,65.6,29.83,SE,127,1.5,3.0,95,0.00,,,0.00,VWS V14.01,2013-06-06 07:34:00,
2013-06-06 03:35:00,67.1,65.6,29.83,SE,127,1.5,1.5,95,0.00,,,0.00,VWS V14.01,2013-06-06 07:35:00,
2013-06-06 03:36:00,67.1,65.6,29.83,SE,128,1.5,1.5,95,0.00,,,0.00,VWS V14.01,2013-06-06 07:36:00,
2013-06-06 03:37:00,67.1,65.6,29.83,SE,127,1.5,1.5,95,0.00,,,0.00,VWS V14.01,2013-06-06 07:37:00,
2013-06-06 03:38:00,67.0,65.5,29.83,SE,127,3.0,3.0,95,0.00,,,0.00,VWS V14.01,2013-06-06 07:38:00,
2013-06-06 03:39:00,67.1,65.6,29.83,ESE,116,1.5,3.0,95,0.00,,,0.00,VWS V14.01,2013-06-06 07:39:00,
2013-06-06 03:40:00,67.0,65.5,29.83,ESE,108,1.5,3.0,95,0.00,,,0.00,VWS V14.01,2013-06-06 07:40:00,
2013-06-06 03:41:00,67.0,65.5,29.83,ESE,108,1.5,3.0,95,0.00,,,0.00,VWS V14.01,2013-06-06 07:41:00,
2013-06-06 03:42:00,67.0,65.5,29.83,East,101,1.5,3.0,95,0.00,,,0.00,VWS V14.01,2013-06-06 07:42:00,
2013-06-06 03:43:00,67.0,65.5,29.83,East,101,1.5,3.0,95,0.00,,,0.00,VWS V14.01,2013-06-06 07:43:00,
2013-06-06 03:44:00,67.0,65.5,29.83,East,101,1.5,1.5,95,0.00,,,0.00,VWS V14.01,2013-06-06 07:44:00,
2013-06-06 03:45:00,67.0,65.5,29.83,ESE,106,1.5,4.5,95,0.00,,,0.00,VWS V14.01,2013-06-06 07:45:00,
2013-06-06 03:46:00,67.0,65.5,29.83,ESE,106,1.5,4.5,95,0.00,,,0.00,VWS V14.01,2013-06-06 07:46:00,
2013-06-06 03:47:00,67.0,65.5,29.83,SW,224,3.0,6.0,95,0.00,,,0.00,VWS V14.01,2013-06-06 07:47:00,
2013-06-06 03:48:00,67.0,65.5,29.83,SSW,200,1.5,6.0,95,0.00,,,0.00,VWS V14.01,2013-06-06 07:48:00,
2013-06-06 03:49:00,67.0,65.5,29.83,SSW,199,1.5,3.0,95,0.00,,,0.00,VWS V14.01,2013-06-06 07:49:00,
2013-06-06 03:50:00,67.0,65.5,29.83,SSW,199,1.5,1.5,95,0.00,,,0.00,VWS V14.01,2013-06-06 07:50:00,
2013-06-06 03:51:00,67.0,65.5,29.83,SSW,199,1.5,1.5,95,0.00,,,0.00,VWS V14.01,2013-06-06 07:51:00,
2013-06-06 03:52:00,67.0,65.5,29.83,SSW,199,1.5,1.5,95,0.00,,,0.00,VWS V14.01,2013-06-06 07:52:00,
2013-06-06 03:53:00,67.0,65.5,29.83,SSW,199,1.5,1.5,95,0.00,,,0.00,VWS V14.01,2013-06-06 07:53:00,
2013-06-06 03:54:00,67.0,65.5,29.83,SSW,199,1.5,1.5,95,0.00,,,0.00,VWS V14.01,2013-06-06 07:54:00,
2013-06-06 03:55:00,67.0,65.5,29.83,SSW,199,1.5,1.5,95,0.00,,,0.00,VWS V14.01,2013-06-06 07:55:00,
2013-06-06 03:56:00,67.0,65.5,29.83,SSW,199,1.5,1.5,95,0.00,,,0.00,VWS V14.01,2013-06-06 07:56:00,
2013-06-06 03:57:00,67.0,65.5,29.83,SSW,199,1.5,1.5,95,0.00,,,0.00,VWS V14.01,2013-06-06 07:57:00,
2013-06-06 03:58:00,67.0,65.5,29.83,SSW,199,1.5,3.0,95,0.00,,,0.00,VWS V14.01,2013-06-06 07:58:00,
2013-06-06 03:59:00,67.0,65.5,29.83,SSW,200,1.5,3.0,95,0.00,,,0.00,VWS V14.01,2013-06-06 07:59:00,
2013-06-06 04:00:00,66.9,65.4,29.83,SSW,199,1.5,1.5,95,0.00,,,0.00,VWS V14.01,2013-06-06 08:00:00,
2013-06-06 04:01:00,66.9,65.4,29.83,SSW,199,1.5,1.5,95,0.00,,,0.00,VWS V14.01,2013-06-06 08:01:00,
2013-06-06 04:02:00,66.9,65.4,29.83,SSW,199,1.5,3.0,95,0.00,,,0.00,VWS V14.01,2013-06-06 08:02:00,
2013-06-06 04:03:00,66.9,65.4,29.83,South,188,1.5,3.0,95,0.00,,,0.00,VWS V14.01,2013-06-06 08:03:00,
2013-06-06 04:04:00,66.9,65.4,29.83,ESE,108,1.5,1.5,95,0.00,,,0.00,VWS V14.01,2013-06-06 08:04:00,
2013-06-06 04:05:00,66.9,65.4,29.82,ESE,111,1.5,3.0,95,0.00,,,0.00,VWS V14.01,2013-06-06 08:05:00,
2013-06-06 04:06:00,66.9,65.4,29.82,ESE,111,1.5,3.0,95,0.00,,,0.00,VWS V14.01,2013-06-06 08:06:00,
2013-06-06 04:07:00,66.9,65.4,29.82,ESE,111,1.5,3.0,95,0.00,,,0.00,VWS V14.01,2013-06-06 08:07:00,
2013-06-06 04:08:00,66.9,65.4,29.83,ESE,111,1.5,1.5,95,0.00,,,0.00,VWS V14.01,2013-06-06 08:08:00,
2013-06-06 04:09:00,66.9,65.4,29.82,ESE,111,1.5,1.5,95,0.00,,,0.00,VWS V14.01,2013-06-06 08:09:00,
2013-06-06 04:10:00,66.9,65.4,29.82,ESE,111,1.5,1.5,95,0.00,,,0.00,VWS V14.01,2013-06-06 08:10:00,
2013-06-06 04:11:00,66.9,65.4,29.82,ESE,111,1.5,1.5,95,0.00,,,0.00,VWS V14.01,2013-06-06 08:11:00,
2013-06-06 04:12:00,66.8,65.3,29.82,ESE,111,1.5,1.5,95,0.00,,,0.00,VWS V14.01,2013-06-06 08:12:00,
2013-06-06 04:13:00,66.8,65.3,29.83,ESE,111,1.5,1.5,95,0.00,,,0.00,VWS V14.01,2013-06-06 08:13:00,
2013-06-06 04:14:00,66.8,65.3,29.82,ESE,111,1.5,1.5,95,0.00,,,0.00,VWS V14.01,2013-06-06 08:14:00,
2013-06-06 04:15:00,66.8,65.3,29.82,ESE,111,1.5,1.5,95,0.00,,,0.00,VWS V14.01,2013-06-06 08:15:00,
2013-06-06 04:16:00,66.8,65.3,29.83,ESE,111,1.5,1.5,95,0.00,,,0.00,VWS V14.01,2013-06-06 08:16:00,
2013-06-06 04:17:00,66.8,65.3,29.83,SE,142,1.5,3.0,95,0.00,,,0.00,VWS V14.01,2013-06-06 08:17:00,
2013-06-06 04:18:00,66.8,65.3,29.82,SE,142,1.5,3.0,95,0.00,,,0.00,VWS V14.01,2013-06-06 08:18:00,
2013-06-06 04:19:00,66.8,65.3,29.83,SE,142,1.5,1.5,95,0.00,,,0.00,VWS V14.01,2013-06-06 08:19:00,
2013-06-06 04:20:00,66.8,65.3,29.83,SE,141,1.5,1.5,95,0.00,,,0.00,VWS V14.01,2013-06-06 08:20:00,
2013-06-06 04:21:00,66.8,65.3,29.83,SE,141,1.5,1.5,95,0.00,,,0.00,VWS V14.01,2013-06-06 08:21:00,
2013-06-06 04:22:00,66.8,65.3,29.82,SE,141,1.5,1.5,95,0.00,,,0.00,VWS V14.01,2013-06-06 08:22:00,
2013-06-06 04:23:00,66.8,65.3,29.83,SE,141,1.5,1.5,95,0.00,,,0.00,VWS V14.01,2013-06-06 08:23:00,
2013-06-06 04:24:00,66.8,65.3,29.82,SE,141,1.5,1.5,95,0.00,,,0.00,VWS V14.01,2013-06-06 08:24:00,
2013-06-06 04:25:00,66.8,65.3,29.83,SSW,206,1.5,3.0,95,0.00,,,0.00,VWS V14.01,2013-06-06 08:25:00,
2013-06-06 04:26:00,66.8,65.3,29.83,SSW,206,1.5,3.0,95,0.00,,,0.00,VWS V14.01,2013-06-06 08:26:00,
2013-06-06 04:27:00,66.8,65.3,29.83,SSW,207,1.5,1.5,95,0.00,,,0.00,VWS V14.01,2013-06-06 08:27:00,
2013-06-06 04:28:00,66.8,65.3,29.82,SSW,206,1.5,1.5,95,0.00,,,0.00,VWS V14.01,2013-06-06 08:28:00,
2013-06-06 04:29:00,66.8,65.3,29.83,SSW,206,1.5,3.0,95,0.00,,,0.00,VWS V14.01,2013-06-06 08:29:00,
2013-06-06 04:30:00,66.9,65.4,29.83,SSW,203,1.5,3.0,95,0.00,,,0.00,VWS V14.01,2013-06-06 08:30:00,
2013-06-06 04:31:00,66.8,65.3,29.83,SSW,192,3.0,3.0,95,0.00,,,0.00,VWS V14.01,2013-06-06 08:31:00,
2013-06-06 04:32:00,66.9,65.4,29.83,SE,127,3.0,3.0,95,0.00,,,0.00,VWS V14.01,2013-06-06 08:32:00,
2013-06-06 04:33:00,66.9,65.1,29.83,SSE,165,4.5,9.0,94,0.00,,,0.00,VWS V14.01,2013-06-06 08:33:00,
2013-06-06 04:34:00,66.9,65.1,29.83,SSE,151,1.5,9.0,94,0.00,,,0.00,VWS V14.01,2013-06-06 08:34:00,
2013-06-06 04:35:00,66.9,65.1,29.83,SSE,152,1.5,3.0,94,0.00,,,0.00,VWS V14.01,2013-06-06 08:35:00,
2013-06-06 04:36:00,66.9,65.1,29.83,SSE,163,6.0,6.0,94,0.00,,,0.00,VWS V14.01,2013-06-06 08:36:00,
2013-06-06 04:37:00,66.9,65.1,29.83,SSE,151,1.5,6.0,94,0.00,,,0.00,VWS V14.01,2013-06-06 08:37:00,
2013-06-06 04:38:00,66.9,65.1,29.83,SE,130,1.5,6.0,94,0.00,,,0.00,VWS V14.01,2013-06-06 08:38:00,
2013-06-06 04:39:00,66.9,65.1,29.83,SW,223,4.5,4.5,94,0.00,,,0.00,VWS V14.01,2013-06-06 08:39:00,
2013-06-06 04:40:00,66.9,65.1,29.83,SW,223,3.0,4.5,94,0.00,,,0.00,VWS V14.01,2013-06-06 08:40:00,
2013-06-06 04:41:00,66.9,65.1,29.82,SW,222,3.0,4.5,94,0.00,,,0.00,VWS V14.01,2013-06-06 08:41:00,
2013-06-06 04:42:00,67.0,65.2,29.82,WSW,241,3.0,6.0,94,0.00,,,0.00,VWS V14.01,2013-06-06 08:42:00,
2013-06-06 04:43:00,67.0,65.2,29.82,South,186,1.5,6.0,94,0.00,,,0.00,VWS V14.01,2013-06-06 08:43:00,
2013-06-06 04:44:00,67.0,65.2,29.82,South,186,1.5,3.0,94,0.00,,,0.00,VWS V14.01,2013-06-06 08:44:00,
2013-06-06 04:45:00,67.0,65.2,29.82,South,187,3.0,3.0,94,0.00,,,0.00,VWS V14.01,2013-06-06 08:45:00,
2013-06-06 04:46:00,67.0,65.2,29.82,SSW,198,4.5,6.0,94,0.00,,,0.00,VWS V14.01,2013-06-06 08:46:00,
2013-06-06 04:47:00,67.0,65.2,29.82,SSW,206,3.0,6.0,94,0.00,,,0.00,VWS V14.01,2013-06-06 08:47:00,
2013-06-06 04:48:00,67.0,65.2,29.82,SSW,207,1.5,4.5,94,0.00,,,0.00,VWS V14.01,2013-06-06 08:48:00,
2013-06-06 04:49:00,67.0,65.2,29.82,SW,219,1.5,4.5,94,0.00,,,0.00,VWS V14.01,2013-06-06 08:49:00,
2013-06-06 04:50:00,67.1,65.3,29.82,SW,230,4.5,6.0,94,0.00,,,0.00,VWS V14.01,2013-06-06 08:50:00,
2013-06-06 04:51:00,67.1,65.3,29.82,WSW,239,4.5,6.0,94,0.00,,,0.00,VWS V14.01,2013-06-06 08:51:00,
2013-06-06 04:52:00,67.1,65.3,29.82,SW,220,3.0,6.0,94,0.00,,,0.00,VWS V14.01,2013-06-06 08:52:00,
2013-06-06 04:53:00,67.1,65.3,29.82,SW,215,4.5,4.5,94,0.00,,,0.00,VWS V14.01,2013-06-06 08:53:00,
2013-06-06 04:54:00,67.1,65.3,29.82,SW,216,4.5,6.0,94,0.00,,,0.00,VWS V14.01,2013-06-06 08:54:00,
2013-06-06 04:55:00,67.2,65.4,29.82,SSW,203,1.5,6.0,94,0.00,,,0.00,VWS V14.01,2013-06-06 08:55:00,
2013-06-06 04:56:00,67.2,65.1,29.82,South,178,1.5,3.0,93,0.00,,,0.00,VWS V14.01,2013-06-06 08:56:00,
2013-06-06 04:57:00,67.1,65.0,29.82,SSE,160,3.0,4.5,93,0.00,,,0.00,VWS V14.01,2013-06-06 08:57:00,
2013-06-06 04:58:00,67.2,65.1,29.82,SE,133,1.5,4.5,93,0.00,,,0.00,VWS V14.01,2013-06-06 08:58:00,
2013-06-06 04:59:00,67.2,65.1,29.82,SE,134,1.5,4.5,93,0.00,,,0.00,VWS V14.01,2013-06-06 08:59:00,
2013-06-06 05:00:00,67.2,65.1,29.82,SE,128,4.5,7.5,93,0.00,,,0.00,VWS V14.01,2013-06-06 09:00:00,
2013-06-06 05:01:00,67.2,65.1,29.82,SE,127,1.5,7.5,93,0.00,,,0.00,VWS V14.01,2013-06-06 09:01:00,
2013-06-06 05:02:00,67.1,65.0,29.82,SE,128,1.5,7.5,93,0.00,,,0.00,VWS V14.01,2013-06-06 09:02:00,
2013-06-06 05:03:00,67.1,65.0,29.82,SE,128,1.5,3.0,93,0.00,,,0.00,VWS V14.01,2013-06-06 09:03:00,
2013-06-06 05:04:00,67.1,65.0,29.82,SE,127,1.5,1.5,93,0.00,,,0.00,VWS V14.01,2013-06-06 09:04:00,
2013-06-06 05:05:00,67.1,65.0,29.82,SE,133,1.5,1.5,93,0.00,,,0.00,VWS V14.01,2013-06-06 09:05:00,
2013-06-06 05:06:00,67.1,65.0,29.82,SE,134,1.5,1.5,93,0.00,,,0.00,VWS V14.01,2013-06-06 09:06:00,
2013-06-06 05:07:00,67.1,65.0,29.82,SSE,149,1.5,1.5,93,0.00,,,0.00,VWS V14.01,2013-06-06 09:07:00,
2013-06-06 05:08:00,67.0,64.9,29.82,SSE,149,1.5,1.5,93,0.00,,,0.00,VWS V14.01,2013-06-06 09:08:00,
2013-06-06 05:09:00,67.0,64.9,29.82,SSW,212,1.5,4.5,93,0.00,,,0.00,VWS V14.01,2013-06-06 09:09:00,
2013-06-06 05:10:00,67.0,64.9,29.82,SSW,209,1.5,3.0,93,0.00,,,0.00,VWS V14.01,2013-06-06 09:10:00,
2013-06-06 05:11:00,67.0,64.9,29.82,SSW,209,1.5,3.0,93,0.00,,,0.00,VWS V14.01,2013-06-06 09:11:00,
2013-06-06 05:12:00,67.0,64.9,29.82,ESE,119,3.0,3.0,93,0.00,,,0.00,VWS V14.01,2013-06-06 09:12:00,
2013-06-06 05:13:00,67.0,64.9,29.82,SE,139,3.0,3.0,93,0.00,,,0.00,VWS V14.01,2013-06-06 09:13:00,
2013-06-06 05:14:00,67.0,64.9,29.82,SW,220,3.0,3.0,93,0.00,,,0.00,VWS V14.01,2013-06-06 09:14:00,
2013-06-06 05:15:00,67.0,65.2,29.82,SW,217,1.5,4.5,94,0.00,,,0.00,VWS V14.01,2013-06-06 09:15:00,
2013-06-06 05:16:00,67.0,65.2,29.82,SW,217,1.5,4.5,94,0.00,,,0.00,VWS V14.01,2013-06-06 09:16:00,
2013-06-06 05:17:00,67.0,65.2,29.82,SW,217,1.5,3.0,94,0.00,,,0.00,VWS V14.01,2013-06-06 09:17:00,
2013-06-06 05:18:00,67.0,65.2,29.82,SW,217,1.5,3.0,94,0.00,,,0.00,VWS V14.01,2013-06-06 09:18:00,
2013-06-06 05:19:00,67.0,65.2,29.82,SW,223,6.0,6.0,94,0.00,,,0.00,VWS V14.01,2013-06-06 09:19:00,
2013-06-06 05:20:00,67.0,65.2,29.82,SW,223,1.5,7.5,94,0.00,,,0.00,VWS V14.01,2013-06-06 09:20:00,
2013-06-06 05:21:00,67.0,65.2,29.82,SW,217,4.5,7.5,94,0.00,,,0.00,VWS V14.01,2013-06-06 09:21:00,
2013-06-06 05:22:00,67.0,65.2,29.82,SSW,199,3.0,7.5,94,0.00,,,0.00,VWS V14.01,2013-06-06 09:22:00,
2013-06-06 05:23:00,67.0,65.2,29.82,SSW,194,1.5,7.5,94,0.00,,,0.00,VWS V14.01,2013-06-06 09:23:00,
2013-06-06 05:24:00,67.0,65.2,29.82,SSE,163,1.5,4.5,94,0.00,,,0.00,VWS V14.01,2013-06-06 09:24:00,
2013-06-06 05:25:00,67.1,65.0,29.82,SSE,155,1.5,1.5,93,0.00,,,0.00,VWS V14.01,2013-06-06 09:25:00,
2013-06-06 05:26:00,67.0,64.9,29.82,SW,228,3.0,3.0,93,0.00,,,0.00,VWS V14.01,2013-06-06 09:26:00,
2013-06-06 05:27:00,67.0,65.2,29.82,SE,146,3.0,3.0,94,0.00,,,0.00,VWS V14.01,2013-06-06 09:27:00,
2013-06-06 05:28:00,67.1,65.0,29.82,SE,146,1.5,3.0,93,0.00,,,0.00,VWS V14.01,2013-06-06 09:28:00,
2013-06-06 05:29:00,67.1,65.0,29.82,SSE,153,3.0,4.5,93,0.00,,,0.00,VWS V14.01,2013-06-06 09:29:00,
2013-06-06 05:30:00,67.1,65.0,29.82,SW,219,3.0,3.0,93,0.00,,,0.00,VWS V14.01,2013-06-06 09:30:00,
2013-06-06 05:31:00,67.1,65.0,29.82,SW,219,1.5,3.0,93,0.00,,,0.00,VWS V14.01,2013-06-06 09:31:00,
2013-06-06 05:32:00,67.1,65.0,29.82,SW,219,1.5,3.0,93,0.00,,,0.00,VWS V14.01,2013-06-06 09:32:00,
2013-06-06 05:33:00,67.1,65.0,29.82,SW,219,1.5,3.0,93,0.00,,,0.00,VWS V14.01,2013-06-06 09:33:00,
2013-06-06 05:34:00,67.1,65.0,29.82,SSW,198,1.5,3.0,93,0.00,,,0.00,VWS V14.01,2013-06-06 09:34:00,
2013-06-06 05:35:00,67.1,65.0,29.82,SE,139,1.5,1.5,93,0.00,,,0.00,VWS V14.01,2013-06-06 09:35:00,
2013-06-06 05:36:00,67.1,65.0,29.82,SSW,207,3.0,3.0,93,0.00,,,0.00,VWS V14.01,2013-06-06 09:36:00,
2013-06-06 05:37:00,67.1,65.0,29.82,South,172,3.0,4.5,93,0.00,,,0.00,VWS V14.01,2013-06-06 09:37:00,
2013-06-06 05:38:00,67.1,65.0,29.82,SSE,167,1.5,4.5,93,0.00,,,0.00,VWS V14.01,2013-06-06 09:38:00,
2013-06-06 05:39:00,67.1,65.0,29.82,SSE,167,1.5,3.0,93,0.00,,,0.00,VWS V14.01,2013-06-06 09:39:00,
2013-06-06 05:40:00,67.1,65.0,29.82,SSE,168,1.5,1.5,93,0.00,,,0.00,VWS V14.01,2013-06-06 09:40:00,
2013-06-06 05:41:00,67.1,65.0,29.82,SSE,167,1.5,1.5,93,0.00,,,0.00,VWS V14.01,2013-06-06 09:41:00,
2013-06-06 05:42:00,67.2,65.1,29.82,SSW,195,3.0,3.0,93,0.00,,,0.00,VWS V14.01,2013-06-06 09:42:00,
2013-06-06 05:43:00,67.2,65.1,29.82,SSW,195,1.5,3.0,93,0.00,,,0.00,VWS V14.01,2013-06-06 09:43:00,
2013-06-06 05:44:00,67.1,65.0,29.82,SW,223,1.5,4.5,93,0.00,,,0.00,VWS V14.01,2013-06-06 09:44:00,
2013-06-06 05:45:00,67.2,65.1,29.82,SW,227,1.5,4.5,93,0.00,,,0.00,VWS V14.01,2013-06-06 09:45:00,
2013-06-06 05:46:00,67.2,65.1,29.82,SW,227,1.5,3.0,93,0.00,,,0.00,VWS V14.01,2013-06-06 09:46:00,
2013-06-06 05:47:00,67.2,65.1,29.82,SSW,198,3.0,6.0,93,0.00,,,0.00,VWS V14.01,2013-06-06 09:47:00,
2013-06-06 05:48:00,67.2,65.1,29.82,SSW,210,3.0,6.0,93,0.00,,,0.00,VWS V14.01,2013-06-06 09:48:00,
2013-06-06 05:49:00,67.2,65.1,29.82,SW,217,4.5,7.5,93,0.00,,,0.00,VWS V14.01,2013-06-06 09:49:00,
2013-06-06 05:50:00,67.2,65.1,29.82,South,191,3.0,7.5,93,0.00,,,0.00,VWS V14.01,2013-06-06 09:50:00,
2013-06-06 05:51:00,67.2,65.1,29.82,South,191,1.5,6.0,93,0.00,,,0.00,VWS V14.01,2013-06-06 09:51:00,
2013-06-06 05:52:00,67.2,65.1,29.82,WSW,241,1.5,3.0,93,0.00,,,0.00,VWS V14.01,2013-06-06 09:52:00,
2013-06-06 05:53:00,67.3,65.2,29.82,South,180,1.5,4.5,93,0.00,,,0.00,VWS V14.01,2013-06-06 09:53:00,
2013-06-06 05:54:00,67.2,65.1,29.82,SW,221,1.5,6.0,93,0.00,,,0.00,VWS V14.01,2013-06-06 09:54:00,
2013-06-06 05:55:00,67.3,65.2,29.82,SSW,199,3.0,6.0,93,0.00,,,0.00,VWS V14.01,2013-06-06 09:55:00,
2013-06-06 05:56:00,67.3,65.2,29.82,West,260,1.5,4.5,93,0.00,,,0.00,VWS V14.01,2013-06-06 09:56:00,
2013-06-06 05:57:00,67.3,65.2,29.82,WSW,237,1.5,4.5,93,0.00,,,0.00,VWS V14.01,2013-06-06 09:57:00,
2013-06-06 05:58:00,67.3,65.2,29.82,SW,234,1.5,4.5,93,0.00,,,0.00,VWS V14.01,2013-06-06 09:58:00,
2013-06-06 05:59:00,67.3,65.2,29.82,SW,234,1.5,1.5,93,0.00,,,0.00,VWS V14.01,2013-06-06 09:59:00,
2013-06-06 06:00:00,67.3,65.2,29.82,SW,234,1.5,1.5,93,0.00,,,0.00,VWS V14.01,2013-06-06 10:00:00,
2013-06-06 06:01:00,67.3,65.2,29.82,SW,234,1.5,1.5,93,0.00,,,0.00,VWS V14.01,2013-06-06 10:01:00,
2013-06-06 06:02:00,67.3,65.2,29.82,WSW,244,1.5,3.0,93,0.00,,,0.00,VWS V14.01,2013-06-06 10:02:00,
2013-06-06 06:03:00,67.2,65.1,29.82,SW,236,1.5,3.0,93,0.00,,,0.00,VWS V14.01,2013-06-06 10:03:00,
2013-06-06 06:04:00,67.2,65.1,29.82,SW,236,1.5,3.0,93,0.00,,,0.00,VWS V14.01,2013-06-06 10:04:00,
2013-06-06 06:05:00,67.2,65.1,29.82,SW,226,1.5,3.0,93,0.00,,,0.00,VWS V14.01,2013-06-06 10:05:00,
2013-06-06 06:06:00,67.2,65.1,29.82,SW,226,1.5,3.0,93,0.00,,,0.00,VWS V14.01,2013-06-06 10:06:00,
2013-06-06 06:07:00,67.2,65.1,29.82,SSW,201,1.5,3.0,93,0.00,,,0.00,VWS V14.01,2013-06-06 10:07:00,
2013-06-06 06:08:00,67.2,65.1,29.82,SSE,162,1.5,3.0,93,0.00,,,0.00,VWS V14.01,2013-06-06 10:08:00,
2013-06-06 06:09:00,67.2,65.1,29.82,SW,216,3.0,4.5,93,0.00,,,0.00,VWS V14.01,2013-06-06 10:09:00,
2013-06-06 06:10:00,67.2,65.1,29.82,SW,229,1.5,4.5,93,0.00,,,0.00,VWS V14.01,2013-06-06 10:10:00,
2013-06-06 06:11:00,67.2,65.1,29.82,SSW,201,1.5,3.0,93,0.00,,,0.00,VWS V14.01,2013-06-06 10:11:00,
2013-06-06 06:12:00,67.2,65.1,29.82,South,188,4.5,4.5,93,0.00,,,0.00,VWS V14.01,2013-06-06 10:12:00,
2013-06-06 06:13:00,67.2,65.1,29.82,SSE,165,3.0,4.5,93,0.00,,,0.00,VWS V14.01,2013-06-06 10:13:00,
2013-06-06 06:14:00,67.2,65.1,29.82,SE,136,1.5,6.0,93,0.00,,,0.00,VWS V14.01,2013-06-06 10:14:00,
2013-06-06 06:15:00,67.2,65.1,29.82,SW,223,3.0,4.5,93,0.00,,,0.00,VWS V14.01,2013-06-06 10:15:00,
2013-06-06 06:16:00,67.2,65.1,29.82,SW,223,3.0,4.5,93,0.00,,,0.00,VWS V14.01,2013-06-06 10:16:00,
2013-06-06 06:17:00,67.2,65.1,29.82,SW,228,4.5,4.5,93,0.00,,,0.00,VWS V14.01,2013-06-06 10:17:00,
2013-06-06 06:18:00,67.2,65.1,29.82,SSW,210,3.0,4.5,93,0.00,,,0.00,VWS V14.01,2013-06-06 10:18:00,
2013-06-06 06:19:00,67.2,65.1,29.82,SSW,212,4.5,6.0,93,0.00,,,0.00,VWS V14.01,2013-06-06 10:19:00,
2013-06-06 06:20:00,67.2,65.1,29.82,WSW,246,6.0,6.0,93,0.00,,,0.00,VWS V14.01,2013-06-06 10:20:00,
2013-06-06 06:21:00,67.2,65.1,29.82,SW,232,4.5,6.0,93,0.00,,,0.00,VWS V14.01,2013-06-06 10:21:00,
2013-06-06 06:22:00,67.2,65.1,29.82,WSW,243,1.5,6.0,93,0.00,,,0.00,VWS V14.01,2013-06-06 10:22:00,
2013-06-06 06:23:00,67.3,65.2,29.82,WSW,239,1.5,4.5,93,0.00,,,0.00,VWS V14.01,2013-06-06 10:23:00,
2013-06-06 06:24:00,67.3,65.2,29.82,South,169,1.5,3.0,93,0.00,,,0.00,VWS V14.01,2013-06-06 10:24:00,
2013-06-06 06:25:00,67.3,65.2,29.82,SSE,154,1.5,3.0,93,0.00,,,0.00,VWS V14.01,2013-06-06 10:25:00,
2013-06-06 06:26:00,67.3,65.2,29.82,South,184,3.0,3.0,93,0.00,,,0.00,VWS V14.01,2013-06-06 10:26:00,
2013-06-06 06:27:00,67.2,65.1,29.82,SW,216,1.5,4.5,93,0.00,,,0.00,VWS V14.01,2013-06-06 10:27:00,
2013-06-06 06:28:00,67.2,65.1,29.82,South,189,1.5,4.5,93,0.00,,,0.00,VWS V14.01,2013-06-06 10:28:00,
2013-06-06 06:29:00,67.2,65.1,29.82,SSW,213,4.5,6.0,93,0.00,,,0.00,VWS V14.01,2013-06-06 10:29:00,
2013-06-06 06:30:00,67.2,65.1,29.82,SSW,212,1.5,6.0,93,0.00,,,0.00,VWS V14.01,2013-06-06 10:30:00,
2013-06-06 06:31:00,67.2,65.1,29.82,WSW,243,3.0,3.0,93,0.00,,,0.00,VWS V14.01,2013-06-06 10:31:00,
2013-06-06 06:32:00,67.2,65.1,29.82,SSE,162,4.5,4.5,93,0.00,,,0.00,VWS V14.01,2013-06-06 10:32:00,
2013-06-06 06:33:00,67.2,65.1,29.82,SW,229,1.5,4.5,93,0.00,,,0.00,VWS V14.01,2013-06-06 10:33:00,
2013-06-06 06:34:00,67.2,65.1,29.82,ESE,122,1.5,3.0,93,0.00,,,0.00,VWS V14.01,2013-06-06 10:34:00,
2013-06-06 06:35:00,67.2,65.1,29.82,SE,134,1.5,3.0,93,0.00,,,0.00,VWS V14.01,2013-06-06 10:35:00,
2013-06-06 06:36:00,67.2,65.1,29.82,SE,133,1.5,3.0,93,0.00,,,0.00,VWS V14.01,2013-06-06 10:36:00,
2013-06-06 06:37:00,67.2,65.1,29.82,SE,133,1.5,1.5,93,0.00,,,0.00,VWS V14.01,2013-06-06 10:37:00,
2013-06-06 06:38:00,67.2,65.1,29.82,SE,133,1.5,1.5,93,0.00,,,0.00,VWS V14.01,2013-06-06 10:38:00,
2013-06-06 06:39:00,67.2,65.1,29.82,SE,133,1.5,1.5,93,0.00,,,0.00,VWS V14.01,2013-06-06 10:39:00,
2013-06-06 06:40:00,67.1,65.0,29.82,SE,134,3.0,3.0,93,0.00,,,0.00,VWS V14.01,2013-06-06 10:40:00,
2013-06-06 06:41:00,67.1,65.0,29.82,SE,134,1.5,3.0,93,0.00,,,0.00,VWS V14.01,2013-06-06 10:41:00,
2013-06-06 06:42:00,67.1,65.0,29.82,SSW,192,1.5,3.0,93,0.00,,,0.00,VWS V14.01,2013-06-06 10:42:00,
2013-06-06 06:43:00,67.1,65.3,29.82,SW,226,3.0,6.0,94,0.00,,,0.00,VWS V14.01,2013-06-06 10:43:00,
2013-06-06 06:44:00,67.1,65.3,29.82,South,184,4.5,6.0,94,0.00,,,0.00,VWS V14.01,2013-06-06 10:44:00,
2013-06-06 06:45:00,67.2,65.4,29.82,SSW,209,1.5,6.0,94,0.00,,,0.00,VWS V14.01,2013-06-06 10:45:00,
2013-06-06 06:46:00,67.2,65.4,29.82,WSW,251,1.5,4.5,94,0.00,,,0.00,VWS V14.01,2013-06-06 10:46:00,
2013-06-06 06:47:00,67.2,65.4,29.82,WSW,244,1.5,3.0,94,0.00,,,0.00,VWS V14.01,2013-06-06 10:47:00,
2013-06-06 06:48:00,67.2,65.4,29.82,South,172,1.5,3.0,94,0.00,,,0.00,VWS V14.01,2013-06-06 10:48:00,
2013-06-06 06:49:00,67.2,65.4,29.82,SW,227,4.5,4.5,94,0.00,,,0.00,VWS V14.01,2013-06-06 10:49:00,
2013-06-06 06:50:00,67.2,65.1,29.82,SSW,208,4.5,4.5,93,0.00,,,0.00,VWS V14.01,2013-06-06 10:50:00,
2013-06-06 06:51:00,67.2,65.1,29.82,WSW,239,1.5,4.5,93,0.00,,,0.00,VWS V14.01,2013-06-06 10:51:00,
2013-06-06 06:52:00,67.2,65.1,29.82,WSW,239,1.5,4.5,93,0.00,,,0.00,VWS V14.01,2013-06-06 10:52:00,
2013-06-06 06:53:00,67.2,65.1,29.82,SSW,200,6.0,6.0,93,0.00,,,0.00,VWS V14.01,2013-06-06 10:53:00,
2013-06-06 06:54:00,67.2,65.1,29.82,WSW,255,3.0,7.5,93,0.00,,,0.00,VWS V14.01,2013-06-06 10:54:00,
2013-06-06 06:55:00,67.2,65.1,29.82,WSW,250,1.5,7.5,93,0.00,,,0.00,VWS V14.01,2013-06-06 10:55:00,
2013-06-06 06:56:00,67.2,65.1,29.82,SW,215,1.5,3.0,93,0.00,,,0.00,VWS V14.01,2013-06-06 10:56:00,
2013-06-06 06:57:00,67.2,65.1,29.82,West,267,1.5,3.0,93,0.00,,,0.00,VWS V14.01,2013-06-06 10:57:00,
2013-06-06 06:58:00,67.2,65.1,29.82,South,182,1.5,3.0,93,0.00,,,0.00,VWS V14.01,2013-06-06 10:58:00,
2013-06-06 06:59:00,67.2,65.1,29.82,South,182,1.5,3.0,93,0.00,,,0.00,VWS V14.01,2013-06-06 10:59:00,
2013-06-06 07:00:00,67.2,65.1,29.82,WSW,240,3.0,4.5,93,0.00,,,0.00,VWS V14.01,2013-06-06 11:00:00,
2013-06-06 07:01:00,67.2,65.1,29.82,South,171,4.5,6.0,93,0.00,,,0.00,VWS V14.01,2013-06-06 11:01:00,
2013-06-06 07:02:00,67.2,65.1,29.82,SSW,209,4.5,6.0,93,0.00,,,0.00,VWS V14.01,2013-06-06 11:02:00,
2013-06-06 07:03:00,67.2,65.1,29.82,SW,216,1.5,6.0,93,0.00,,,0.00,VWS V14.01,2013-06-06 11:03:00,
2013-06-06 07:04:00,67.2,65.1,29.82,SW,216,3.0,4.5,93,0.00,,,0.00,VWS V14.01,2013-06-06 11:04:00,
2013-06-06 07:05:00,67.2,65.1,29.82,SSE,151,1.5,3.0,93,0.00,,,0.00,VWS V14.01,2013-06-06 11:05:00,
2013-06-06 07:06:00,67.2,65.1,29.82,East,92,3.0,4.5,93,0.00,,,0.00,VWS V14.01,2013-06-06 11:06:00,
2013-06-06 07:07:00,67.3,65.2,29.82,WSW,255,1.5,4.5,93,0.00,,,0.00,VWS V14.01,2013-06-06 11:07:00,
2013-06-06 07:08:00,67.2,65.1,29.82,SSW,198,1.5,4.5,93,0.00,,,0.00,VWS V14.01,2013-06-06 11:08:00,
2013-06-06 07:09:00,67.2,65.1,29.82,SE,128,4.5,9.0,93,0.00,,,0.00,VWS V14.01,2013-06-06 11:09:00,
2013-06-06 07:10:00,67.2,65.4,29.82,SSW,199,1.5,9.0,94,0.00,,,0.00,VWS V14.01,2013-06-06 11:10:00,
2013-06-06 07:11:00,67.2,65.4,29.82,SW,221,4.5,6.0,94,0.00,,,0.00,VWS V14.01,2013-06-06 11:11:00,
2013-06-06 07:12:00,67.2,65.4,29.81,SW,233,1.5,4.5,94,0.00,,,0.00,VWS V14.01,2013-06-06 11:12:00,
2013-06-06 07:13:00,67.3,65.5,29.82,SSW,202,3.0,4.5,94,0.00,,,0.00,VWS V14.01,2013-06-06 11:13:00,
2013-06-06 07:14:00,67.2,65.4,29.81,SSW,195,1.5,4.5,94,0.00,,,0.00,VWS V14.01,2013-06-06 11:14:00,
2013-06-06 07:15:00,67.2,65.4,29.81,SSW,195,1.5,3.0,94,0.00,,,0.00,VWS V14.01,2013-06-06 11:15:00,
2013-06-06 07:16:00,67.2,65.4,29.81,SSW,195,1.5,1.5,94,0.00,,,0.00,VWS V14.01,2013-06-06 11:16:00,
2013-06-06 07:17:00,67.3,65.5,29.81,SSW,195,1.5,1.5,94,0.00,,,0.00,VWS V14.01,2013-06-06 11:17:00,
2013-06-06 07:18:00,67.3,65.5,29.81,WSW,241,4.5,4.5,94,0.00,,,0.00,VWS V14.01,2013-06-06 11:18:00,
2013-06-06 07:19:00,67.3,65.5,29.81,WSW,237,3.0,6.0,94,0.00,,,0.00,VWS V14.01,2013-06-06 11:19:00,
2013-06-06 07:20:00,67.3,65.5,29.81,SW,234,1.5,4.5,94,0.00,,,0.00,VWS V14.01,2013-06-06 11:20:00,
2013-06-06 07:21:00,67.3,65.5,29.81,SW,234,1.5,3.0,94,0.00,,,0.00,VWS V14.01,2013-06-06 11:21:00,
2013-06-06 07:22:00,67.3,65.5,29.81,SW,228,1.5,3.0,94,0.00,,,0.00,VWS V14.01,2013-06-06 11:22:00,
2013-06-06 07:23:00,67.3,65.5,29.81,SW,229,1.5,3.0,94,0.00,,,0.00,VWS V14.01,2013-06-06 11:23:00,
2013-06-06 07:24:00,67.3,65.5,29.81,SW,231,1.5,3.0,94,0.00,,,0.00,VWS V14.01,2013-06-06 11:24:00,
2013-06-06 07:25:00,67.3,65.5,29.81,WSW,246,1.5,3.0,94,0.00,,,0.00,VWS V14.01,2013-06-06 11:25:00,
2013-06-06 07:26:00,67.3,65.5,29.81,South,185,1.5,4.5,94,0.00,,,0.00,VWS V14.01,2013-06-06 11:26:00,
2013-06-06 07:27:00,67.3,65.5,29.81,South,185,1.5,4.5,94,0.00,,,0.00,VWS V14.01,2013-06-06 11:27:00,
2013-06-06 07:28:00,67.3,65.5,29.81,South,179,1.5,3.0,94,0.00,,,0.00,VWS V14.01,2013-06-06 11:28:00,
2013-06-06 07:29:00,67.4,65.6,29.81,SW,226,4.5,4.5,94,0.00,,,0.00,VWS V14.01,2013-06-06 11:29:00,
2013-06-06 07:30:00,67.3,65.5,29.81,WSW,239,6.0,6.0,94,0.00,,,0.00,VWS V14.01,2013-06-06 11:30:00,
2013-06-06 07:31:00,67.3,65.5,29.81,SW,223,4.5,6.0,94,0.00,,,0.00,VWS V14.01,2013-06-06 11:31:00,
2013-06-06 07:32:00,67.3,65.5,29.81,WSW,250,6.0,6.0,94,0.00,,,0.00,VWS V14.01,2013-06-06 11:32:00,
2013-06-06 07:33:00,67.3,65.5,29.81,South,191,3.0,7.5,94,0.00,,,0.00,VWS V14.01,2013-06-06 11:33:00,
2013-06-06 07:34:00,67.3,65.5,29.81,SSW,213,1.5,7.5,94,0.00,,,0.00,VWS V14.01,2013-06-06 11:34:00,
2013-06-06 07:35:00,67.3,65.5,29.81,South,174,7.5,7.5,94,0.00,,,0.00,VWS V14.01,2013-06-06 11:35:00,
2013-06-06 07:36:00,67.3,65.5,29.81,SW,219,4.5,7.5,94,0.00,,,0.00,VWS V14.01,2013-06-06 11:36:00,
2013-06-06 07:37:00,67.3,65.5,29.81,WSW,244,4.5,7.5,94,0.00,,,0.00,VWS V14.01,2013-06-06 11:37:00,
2013-06-06 07:38:00,67.3,65.5,29.81,SSW,201,1.5,4.5,94,0.00,,,0.00,VWS V14.01,2013-06-06 11:38:00,
2013-06-06 07:39:00,67.3,65.5,29.81,SSW,201,1.5,4.5,94,0.00,,,0.00,VWS V14.01,2013-06-06 11:39:00,
2013-06-06 07:40:00,67.4,65.6,29.81,SSW,201,1.5,1.5,94,0.00,,,0.00,VWS V14.01,2013-06-06 11:40:00,
2013-06-06 07:41:00,67.4,65.6,29.81,SW,226,1.5,3.0,94,0.00,,,0.00,VWS V14.01,2013-06-06 11:41:00,
2013-06-06 07:42:00,67.4,65.6,29.81,SW,231,3.0,3.0,94,0.00,,,0.00,VWS V14.01,2013-06-06 11:42:00,
2013-06-06 07:43:00,67.4,65.6,29.81,West,267,1.5,4.5,94,0.00,,,0.00,VWS V14.01,2013-06-06 11:43:00,
2013-06-06 07:44:00,67.4,65.6,29.81,SSW,198,6.0,6.0,94,0.00,,,0.00,VWS V14.01,2013-06-06 11:44:00,
2013-06-06 07:45:00,67.4,65.6,29.81,SSW,203,3.0,9.0,94,0.01,,,0.01,VWS V14.01,2013-06-06 11:45:00,
2013-06-06 07:46:00,67.4,65.6,29.81,SSE,158,4.5,9.0,94,0.01,,,0.01,VWS V14.01,2013-06-06 11:46:00,
2013-06-06 07:47:00,67.3,65.5,29.81,WSW,241,3.0,10.5,94,0.01,,,0.01,VWS V14.01,2013-06-06 11:47:00,
2013-06-06 07:48:00,67.3,65.5,29.81,South,175,1.5,10.5,94,0.01,,,0.01,VWS V14.01,2013-06-06 11:48:00,
2013-06-06 07:49:00,67.4,65.6,29.81,SW,221,6.0,9.0,94,0.01,,,0.01,VWS V14.01,2013-06-06 11:49:00,
2013-06-06 07:50:00,67.3,65.5,29.81,South,191,4.5,9.0,94,0.01,,,0.01,VWS V14.01,2013-06-06 11:50:00,
2013-06-06 07:51:00,67.3,65.5,29.81,WNW,296,4.5,7.5,94,0.01,,,0.01,VWS V14.01,2013-06-06 11:51:00,
2013-06-06 07:52:00,67.3,65.5,29.81,SSW,206,13.5,13.5,94,0.01,,,0.01,VWS V14.01,2013-06-06 11:52:00,
2013-06-06 07:53:00,67.3,65.5,29.81,SSW,212,7.5,13.5,94,0.01,,,0.01,VWS V14.01,2013-06-06 11:53:00,
2013-06-06 07:54:00,67.4,65.6,29.81,SSW,205,10.5,13.5,94,0.01,,,0.01,VWS V14.01,2013-06-06 11:54:00,
2013-06-06 07:55:00,67.4,65.6,29.81,SSW,212,10.5,12.0,94,0.01,,,0.01,VWS V14.01,2013-06-06 11:55:00,
2013-06-06 07:56:00,67.4,65.6,29.81,WSW,254,4.5,12.0,94,0.01,,,0.01,VWS V14.01,2013-06-06 11:56:00,
2013-06-06 07:57:00,67.4,65.6,29.80,WSW,237,3.0,10.5,94,0.01,,,0.01,VWS V14.01,2013-06-06 11:57:00,
2013-06-06 07:58:00,67.4,65.6,29.80,SW,226,6.0,6.0,94,0.01,,,0.01,VWS V14.01,2013-06-06 11:58:00,
2013-06-06 07:59:00,67.4,65.6,29.80,South,178,7.5,9.0,94,0.01,,,0.01,VWS V14.01,2013-06-06 11:59:00,
2013-06-06 08:00:00,67.4,65.6,29.80,SW,224,4.5,9.0,94,0.01,,,0.01,VWS V14.01,2013-06-06 12:00:00,
2013-06-06 08:01:00,67.4,65.6,29.80,SW,224,1.5,4.5,94,0.01,,,0.01,VWS V14.01,2013-06-06 12:01:00,
2013-06-06 08:02:00,67.4,65.6,29.80,SW,224,1.5,4.5,94,0.01,,,0.01,VWS V14.01,2013-06-06 12:02:00,
2013-06-06 08:03:00,67.4,65.6,29.80,SW,223,7.5,9.0,94,0.01,,,0.01,VWS V14.01,2013-06-06 12:03:00,
2013-06-06 08:04:00,67.4,65.6,29.80,South,189,4.5,9.0,94,0.01,,,0.01,VWS V14.01,2013-06-06 12:04:00,
2013-06-06 08:05:00,67.4,65.6,29.80,SW,230,3.0,4.5,94,0.01,,,0.01,VWS V14.01,2013-06-06 12:05:00,
2013-06-06 08:06:00,67.4,65.6,29.80,SSW,195,6.0,6.0,94,0.01,,,0.01,VWS V14.01,2013-06-06 12:06:00,
2013-06-06 08:07:00,67.4,65.6,29.80,SSE,168,3.0,7.5,94,0.01,,,0.01,VWS V14.01,2013-06-06 12:07:00,
2013-06-06 08:08:00,67.4,65.6,29.80,SSW,206,4.5,7.5,94,0.01,,,0.01,VWS V14.01,2013-06-06 12:08:00,
2013-06-06 08:09:00,67.4,65.6,29.80,SSW,213,6.0,7.5,94,0.01,,,0.01,VWS V14.01,2013-06-06 12:09:00,
2013-06-06 08:10:00,67.4,65.6,29.80,SW,223,3.0,6.0,94,0.01,,,0.01,VWS V14.01,2013-06-06 12:10:00,
2013-06-06 08:11:00,67.5,65.7,29.80,WSW,248,3.0,4.5,94,0.01,,,0.01,VWS V14.01,2013-06-06 12:11:00,
2013-06-06 08:12:00,67.4,65.6,29.80,ESE,123,3.0,4.5,94,0.01,,,0.01,VWS V14.01,2013-06-06 12:12:00,
2013-06-06 08:13:00,67.4,65.6,29.80,West,264,1.5,4.5,94,0.01,,,0.01,VWS V14.01,2013-06-06 12:13:00,
2013-06-06 08:14:00,67.5,65.7,29.80,WSW,257,3.0,3.0,94,0.01,,,0.01,VWS V14.01,2013-06-06 12:14:00,
2013-06-06 08:15:00,67.5,65.7,29.80,SW,231,4.5,6.0,94,0.01,,,0.01,VWS V14.01,2013-06-06 12:15:00,
2013-06-06 08:16:00,67.4,65.6,29.80,SW,217,4.5,6.0,94,0.01,,,0.01,VWS V14.01,2013-06-06 12:16:00,
2013-06-06 08:17:00,67.5,65.7,29.80,WSW,257,3.0,6.0,94,0.01,,,0.01,VWS V14.01,2013-06-06 12:17:00,
2013-06-06 08:18:00,67.5,65.7,29.80,SW,217,3.0,4.5,94,0.02,,,0.02,VWS V14.01,2013-06-06 12:18:00,
2013-06-06 08:19:00,67.5,65.7,29.80,SW,219,1.5,4.5,94,0.02,,,0.02,VWS V14.01,2013-06-06 12:19:00,
2013-06-06 08:20:00,67.5,65.7,29.80,SW,217,3.0,3.0,94,0.02,,,0.02,VWS V14.01,2013-06-06 12:20:00,
2013-06-06 08:21:00,67.5,65.7,29.80,SSW,202,4.5,4.5,94,0.02,,,0.02,VWS V14.01,2013-06-06 12:21:00,
2013-06-06 08:22:00,67.5,65.7,29.80,WSW,237,1.5,4.5,94,0.02,,,0.02,VWS V14.01,2013-06-06 12:22:00,
2013-06-06 08:23:00,67.5,65.7,29.80,WSW,243,4.5,4.5,94,0.02,,,0.02,VWS V14.01,2013-06-06 12:23:00,
2013-06-06 08:24:00,67.5,65.7,29.80,WSW,240,6.0,6.0,94,0.02,,,0.02,VWS V14.01,2013-06-06 12:24:00,
2013-06-06 08:25:00,67.5,65.7,29.80,SW,224,3.0,7.5,94,0.02,,,0.02,VWS V14.01,2013-06-06 12:25:00,
2013-06-06 08:26:00,67.5,65.7,29.80,South,172,3.0,7.5,94,0.02,,,0.02,VWS V14.01,2013-06-06 12:26:00,
2013-06-06 08:27:00,67.5,65.7,29.80,SSW,209,3.0,3.0,94,0.02,,,0.02,VWS V14.01,2013-06-06 12:27:00,
2013-06-06 08:28:00,67.5,65.7,29.80,SW,217,4.5,9.0,94,0.02,,,0.02,VWS V14.01,2013-06-06 12:28:00,
2013-06-06 08:29:00,67.5,66.0,29.80,SSW,196,3.0,9.0,95,0.02,,,0.02,VWS V14.01,2013-06-06 12:29:00,
2013-06-06 08:30:00,67.5,65.7,29.80,WSW,237,6.0,7.5,94,0.02,,,0.02,VWS V14.01,2013-06-06 12:30:00,
2013-06-06 08:31:00,67.6,65.8,29.80,SW,214,3.0,7.5,94,0.02,,,0.02,VWS V14.01,2013-06-06 12:31:00,
2013-06-06 08:32:00,67.6,65.8,29.80,SW,236,4.5,6.0,94,0.02,,,0.02,VWS V14.01,2013-06-06 12:32:00,
2013-06-06 08:33:00,67.6,65.8,29.80,SW,217,4.5,6.0,94,0.02,,,0.02,VWS V14.01,2013-06-06 12:33:00,
2013-06-06 08:34:00,67.6,65.8,29.80,SSW,201,3.0,6.0,94,0.03,,,0.03,VWS V14.01,2013-06-06 12:34:00,
2013-06-06 08:35:00,67.6,65.8,29.80,SW,234,1.5,4.5,94,0.03,,,0.03,VWS V14.01,2013-06-06 12:35:00,
2013-06-06 08:36:00,67.6,66.1,29.80,SSW,199,3.0,6.0,95,0.03,,,0.03,VWS V14.01,2013-06-06 12:36:00,
2013-06-06 08:37:00,67.6,66.1,29.80,SW,221,1.5,6.0,95,0.03,,,0.03,VWS V14.01,2013-06-06 12:37:00,
2013-06-06 08:38:00,67.7,66.2,29.80,SSW,203,3.0,4.5,95,0.03,,,0.03,VWS V14.01,2013-06-06 12:38:00,
2013-06-06 08:39:00,67.7,66.2,29.80,NW,310,3.0,4.5,95,0.03,,,0.03,VWS V14.01,2013-06-06 12:39:00,
2013-06-06 08:40:00,67.6,66.1,29.80,SW,235,3.0,6.0,95,0.03,,,0.03,VWS V14.01,2013-06-06 12:40:00,
2013-06-06 08:41:00,67.7,66.2,29.80,SSW,201,3.0,6.0,95,0.03,,,0.03,VWS V14.01,2013-06-06 12:41:00,
2013-06-06 08:42:00,67.7,66.2,29.80,SSW,201,4.5,6.0,95,0.03,,,0.03,VWS V14.01,2013-06-06 12:42:00,
2013-06-06 08:43:00,67.7,65.9,29.80,SW,220,3.0,6.0,94,0.03,,,0.03,VWS V14.01,2013-06-06 12:43:00,
2013-06-06 08:44:00,67.7,66.2,29.80,SW,220,1.5,6.0,95,0.03,,,0.03,VWS V14.01,2013-06-06 12:44:00,
2013-06-06 08:45:00,67.7,66.2,29.80,SW,221,1.5,3.0,95,0.02,,,0.03,VWS V14.01,2013-06-06 12:45:00,
2013-06-06 08:46:00,67.7,66.2,29.80,SW,220,1.5,3.0,95,0.02,,,0.03,VWS V14.01,2013-06-06 12:46:00,
2013-06-06 08:47:00,67.8,66.3,29.80,SW,219,4.5,4.5,95,0.02,,,0.03,VWS V14.01,2013-06-06 12:47:00,
2013-06-06 08:48:00,67.8,66.3,29.80,WSW,241,3.0,4.5,95,0.02,,,0.03,VWS V14.01,2013-06-06 12:48:00,
2013-06-06 08:49:00,67.8,66.3,29.80,SW,223,3.0,4.5,95,0.02,,,0.03,VWS V14.01,2013-06-06 12:49:00,
2013-06-06 08:50:00,67.8,66.3,29.80,SW,222,4.5,6.0,95,0.02,,,0.03,VWS V14.01,2013-06-06 12:50:00,
2013-06-06 08:51:00,67.9,66.4,29.80,WSW,250,4.5,6.0,95,0.02,,,0.03,VWS V14.01,2013-06-06 12:51:00,
2013-06-06 08:52:00,67.8,66.3,29.80,WSW,239,1.5,6.0,95,0.02,,,0.03,VWS V14.01,2013-06-06 12:52:00,
2013-06-06 08:53:00,67.8,66.3,29.80,WSW,255,1.5,6.0,95,0.02,,,0.03,VWS V14.01,2013-06-06 12:53:00,
2013-06-06 08:54:00,67.9,66.4,29.80,SSW,206,6.0,6.0,95,0.02,,,0.03,VWS V14.01,2013-06-06 12:54:00,
2013-06-06 08:55:00,67.9,66.4,29.80,SW,220,4.5,6.0,95,0.02,,,0.03,VWS V14.01,2013-06-06 12:55:00,
2013-06-06 08:56:00,67.8,66.0,29.80,SW,216,3.0,6.0,94,0.02,,,0.03,VWS V14.01,2013-06-06 12:56:00,
2013-06-06 08:57:00,67.9,66.1,29.80,SW,216,3.0,4.5,94,0.02,,,0.03,VWS V14.01,2013-06-06 12:57:00,
2013-06-06 08:58:00,67.9,66.4,29.80,SW,220,1.5,4.5,95,0.02,,,0.03,VWS V14.01,2013-06-06 12:58:00,
2013-06-06 08:59:00,67.9,66.4,29.80,SW,234,1.5,4.5,95,0.02,,,0.03,VWS V14.01,2013-06-06 12:59:00,
2013-06-06 09:00:00,67.9,66.4,29.80,SW,233,1.5,1.5,95,0.02,,,0.03,VWS V14.01,2013-06-06 13:00:00,
2013-06-06 09:01:00,67.9,66.4,29.80,East,101,1.5,4.5,95,0.02,,,0.03,VWS V14.01,2013-06-06 13:01:00,
2013-06-06 09:02:00,67.9,66.4,29.80,West,274,4.5,7.5,95,0.02,,,0.03,VWS V14.01,2013-06-06 13:02:00,
2013-06-06 09:03:00,67.9,66.4,29.80,WSW,239,4.5,7.5,95,0.02,,,0.03,VWS V14.01,2013-06-06 13:03:00,
2013-06-06 09:04:00,67.9,66.1,29.80,WSW,239,1.5,7.5,94,0.02,,,0.03,VWS V14.01,2013-06-06 13:04:00,
2013-06-06 09:05:00,67.9,66.1,29.80,SSW,212,4.5,4.5,94,0.02,,,0.03,VWS V14.01,2013-06-06 13:05:00,
2013-06-06 09:06:00,67.9,66.1,29.80,SW,223,4.5,12.0,94,0.02,,,0.03,VWS V14.01,2013-06-06 13:06:00,
2013-06-06 09:07:00,67.9,66.1,29.80,SW,227,3.0,12.0,94,0.02,,,0.03,VWS V14.01,2013-06-06 13:07:00,
2013-06-06 09:08:00,67.9,66.1,29.80,South,179,3.0,6.0,94,0.02,,,0.03,VWS V14.01,2013-06-06 13:08:00,
2013-06-06 09:09:00,67.9,66.1,29.80,WSW,247,4.5,7.5,94,0.02,,,0.03,VWS V14.01,2013-06-06 13:09:00,
2013-06-06 09:10:00,67.9,66.1,29.80,WSW,244,6.0,7.5,94,0.03,,,0.04,VWS V14.01,2013-06-06 13:10:00,
2013-06-06 09:11:00,67.9,66.1,29.80,SSE,153,3.0,7.5,94,0.03,,,0.04,VWS V14.01,2013-06-06 13:11:00,
2013-06-06 09:12:00,67.9,66.1,29.80,SSW,209,3.0,6.0,94,0.03,,,0.04,VWS V14.01,2013-06-06 13:12:00,
2013-06-06 09:13:00,67.9,66.1,29.80,SSW,203,1.5,6.0,94,0.03,,,0.04,VWS V14.01,2013-06-06 13:13:00,
2013-06-06 09:14:00,67.9,66.1,29.80,SSE,157,4.5,7.5,94,0.03,,,0.04,VWS V14.01,2013-06-06 13:14:00,
2013-06-06 09:15:00,67.9,66.1,29.80,SW,226,4.5,9.0,94,0.03,,,0.04,VWS V14.01,2013-06-06 13:15:00,
2013-06-06 09:16:00,67.9,66.1,29.80,SSW,209,1.5,9.0,94,0.03,,,0.04,VWS V14.01,2013-06-06 13:16:00,
2013-06-06 09:17:00,67.9,66.1,29.80,WSW,243,4.5,6.0,94,0.03,,,0.04,VWS V14.01,2013-06-06 13:17:00,
2013-06-06 09:18:00,67.9,66.1,29.80,SSW,196,7.5,12.0,94,0.03,,,0.04,VWS V14.01,2013-06-06 13:18:00,
2013-06-06 09:19:00,67.9,66.1,29.80,WSW,239,9.0,12.0,94,0.02,,,0.04,VWS V14.01,2013-06-06 13:19:00,
2013-06-06 09:20:00,67.9,66.1,29.80,South,182,3.0,9.0,94,0.02,,,0.04,VWS V14.01,2013-06-06 13:20:00,
2013-06-06 09:21:00,67.9,66.1,29.80,SSW,203,6.0,7.5,94,0.02,,,0.04,VWS V14.01,2013-06-06 13:21:00,
2013-06-06 09:22:00,67.9,66.1,29.80,SW,230,3.0,6.0,94,0.02,,,0.04,VWS V14.01,2013-06-06 13:22:00,
2013-06-06 09:23:00,67.9,66.1,29.80,SW,220,3.0,4.5,94,0.02,,,0.04,VWS V14.01,2013-06-06 13:23:00,
2013-06-06 09:24:00,67.9,66.4,29.80,SW,220,7.5,7.5,95,0.02,,,0.04,VWS V14.01,2013-06-06 13:24:00,
2013-06-06 09:25:00,67.9,66.4,29.80,SW,231,3.0,7.5,95,0.02,,,0.04,VWS V14.01,2013-06-06 13:25:00,
2013-06-06 09:26:00,67.9,66.1,29.80,WSW,247,4.5,7.5,94,0.02,,,0.04,VWS V14.01,2013-06-06 13:26:00,
2013-06-06 09:27:00,67.9,66.1,29.80,SW,233,3.0,6.0,94,0.03,,,0.05,VWS V14.01,2013-06-06 13:27:00,
2013-06-06 09:28:00,67.8,66.3,29.80,WSW,257,3.0,6.0,95,0.03,,,0.05,VWS V14.01,2013-06-06 13:28:00,
2013-06-06 09:29:00,67.9,66.4,29.80,SW,223,3.0,4.5,95,0.03,,,0.05,VWS V14.01,2013-06-06 13:29:00,
2013-06-06 09:30:00,67.9,66.4,29.80,SW,223,3.0,4.5,95,0.03,,,0.05,VWS V14.01,2013-06-06 13:30:00,
2013-06-06 09:31:00,67.9,66.4,29.80,West,260,3.0,4.5,95,0.03,,,0.05,VWS V14.01,2013-06-06 13:31:00,
2013-06-06 09:32:00,67.9,66.4,29.80,SSW,203,3.0,4.5,95,0.03,,,0.05,VWS V14.01,2013-06-06 13:32:00,
2013-06-06 09:33:00,67.9,66.4,29.81,SW,217,9.0,10.5,95,0.03,,,0.05,VWS V14.01,2013-06-06 13:33:00,
2013-06-06 09:34:00,67.8,66.3,29.81,West,260,1.5,7.5,95,0.04,,,0.07,VWS V14.01,2013-06-06 13:34:00,
2013-06-06 09:35:00,67.8,66.3,29.81,West,260,1.5,7.5,95,0.04,,,0.07,VWS V14.01,2013-06-06 13:35:00,
2013-06-06 09:36:00,67.9,66.4,29.80,SSE,160,4.5,6.0,95,0.04,,,0.07,VWS V14.01,2013-06-06 13:36:00,
2013-06-06 09:37:00,67.9,66.4,29.81,South,184,3.0,6.0,95,0.04,,,0.07,VWS V14.01,2013-06-06 13:37:00,
2013-06-06 09:38:00,67.9,66.4,29.81,SE,136,1.5,4.5,95,0.04,,,0.07,VWS V14.01,2013-06-06 13:38:00,
2013-06-06 09:39:00,67.9,66.4,29.81,SW,223,3.0,6.0,95,0.04,,,0.07,VWS V14.01,2013-06-06 13:39:00,
2013-06-06 09:40:00,67.9,66.4,29.81,SW,223,3.0,6.0,95,0.04,,,0.07,VWS V14.01,2013-06-06 13:40:00,
2013-06-06 09:41:00,67.9,66.4,29.81,SW,229,3.0,6.0,95,0.04,,,0.07,VWS V14.01,2013-06-06 13:41:00,
2013-06-06 09:42:00,67.9,66.4,29.81,SW,222,1.5,4.5,95,0.04,,,0.07,VWS V14.01,2013-06-06 13:42:00,
2013-06-06 09:43:00,67.9,66.4,29.81,SW,231,4.5,7.5,95,0.05,,,0.08,VWS V14.01,2013-06-06 13:43:00,
2013-06-06 09:44:00,67.9,66.4,29.80,South,179,1.5,4.5,95,0.05,,,0.08,VWS V14.01,2013-06-06 13:44:00,
2013-06-06 09:45:00,67.9,66.4,29.80,South,179,1.5,4.5,95,0.05,,,0.08,VWS V14.01,2013-06-06 13:45:00,
2013-06-06 09:46:00,67.9,66.4,29.81,SSE,153,3.0,7.5,95,0.05,,,0.08,VWS V14.01,2013-06-06 13:46:00,
2013-06-06 09:47:00,67.9,66.4,29.81,SW,229,3.0,7.5,95,0.06,,,0.09,VWS V14.01,2013-06-06 13:47:00,
2013-06-06 09:48:00,67.9,66.4,29.80,South,179,3.0,4.5,95,0.06,,,0.09,VWS V14.01,2013-06-06 13:48:00,
2013-06-06 09:49:00,67.9,66.4,29.80,WSW,246,1.5,4.5,95,0.07,,,0.10,VWS V14.01,2013-06-06 13:49:00,
2013-06-06 09:50:00,67.9,66.4,29.80,WSW,246,1.5,4.5,95,0.07,,,0.10,VWS V14.01,2013-06-06 13:50:00,
2013-06-06 09:51:00,67.9,66.4,29.80,SE,141,4.5,6.0,95,0.07,,,0.10,VWS V14.01,2013-06-06 13:51:00,
2013-06-06 09:52:00,67.9,66.4,29.81,South,175,1.5,6.0,95,0.08,,,0.11,VWS V14.01,2013-06-06 13:52:00,
2013-06-06 09:53:00,67.9,66.4,29.80,South,175,1.5,4.5,95,0.08,,,0.11,VWS V14.01,2013-06-06 13:53:00,
2013-06-06 09:54:00,68.0,66.5,29.81,SSW,209,4.5,4.5,95,0.09,,,0.12,VWS V14.01,2013-06-06 13:54:00,
2013-06-06 09:55:00,68.0,66.5,29.81,SSW,209,4.5,4.5,95,0.09,,,0.12,VWS V14.01,2013-06-06 13:55:00,
2013-06-06 09:56:00,68.0,66.5,29.81,SSW,212,4.5,4.5,95,0.09,,,0.12,VWS V14.01,2013-06-06 13:56:00,
2013-06-06 09:57:00,68.0,66.5,29.81,SSW,207,1.5,4.5,95,0.09,,,0.12,VWS V14.01,2013-06-06 13:57:00,
2013-06-06 09:58:00,68.0,66.5,29.81,SSW,209,3.0,4.5,95,0.10,,,0.13,VWS V14.01,2013-06-06 13:58:00,
2013-06-06 09:59:00,68.1,66.6,29.81,WSW,241,1.5,3.0,95,0.10,,,0.13,VWS V14.01,2013-06-06 13:59:00,
2013-06-06 10:00:00,68.0,66.5,29.81,WSW,240,3.0,3.0,95,0.10,,,0.13,VWS V14.01,2013-06-06 14:00:00,
2013-06-06 10:01:00,68.1,66.6,29.81,West,264,3.0,3.0,95,0.10,,,0.13,VWS V14.01,2013-06-06 14:01:00,
2013-06-06 10:02:00,68.1,66.6,29.81,SW,236,7.5,7.5,95,0.11,,,0.14,VWS V14.01,2013-06-06 14:02:00,
2013-06-06 10:03:00,68.0,66.5,29.81,WSW,258,6.0,9.0,95,0.11,,,0.14,VWS V14.01,2013-06-06 14:03:00,
2013-06-06 10:04:00,68.0,66.5,29.81,SW,223,3.0,7.5,95,0.12,,,0.15,VWS V14.01,2013-06-06 14:04:00,
2013-06-06 10:05:00,68.0,66.5,29.81,SW,223,3.0,7.5,95,0.12,,,0.15,VWS V14.01,2013-06-06 14:05:00,
2013-06-06 10:06:00,68.0,66.5,29.81,WSW,258,3.0,7.5,95,0.12,,,0.15,VWS V14.01,2013-06-06 14:06:00,
2013-06-06 10:07:00,68.0,66.5,29.81,WSW,249,1.5,7.5,95,0.13,,,0.16,VWS V14.01,2013-06-06 14:07:00,
2013-06-06 10:08:00,68.0,66.5,29.81,WSW,239,4.5,4.5,95,0.13,,,0.16,VWS V14.01,2013-06-06 14:08:00,
2013-06-06 10:09:00,68.0,66.8,29.81,SSW,212,6.0,6.0,96,0.13,,,0.16,VWS V14.01,2013-06-06 14:09:00,
2013-06-06 10:10:00,68.0,66.8,29.81,SW,233,6.0,6.0,96,0.13,,,0.16,VWS V14.01,2013-06-06 14:10:00,
2013-06-06 10:11:00,68.0,66.8,29.81,WSW,254,3.0,7.5,96,0.13,,,0.17,VWS V14.01,2013-06-06 14:11:00,
2013-06-06 10:12:00,68.0,66.5,29.81,WSW,241,4.5,7.5,95,0.13,,,0.17,VWS V14.01,2013-06-06 14:12:00,
2013-06-06 10:13:00,68.0,66.5,29.81,WSW,257,4.5,7.5,95,0.13,,,0.17,VWS V14.01,2013-06-06 14:13:00,
2013-06-06 10:14:00,67.9,66.4,29.81,SSW,212,6.0,7.5,95,0.14,,,0.18,VWS V14.01,2013-06-06 14:14:00,
2013-06-06 10:15:00,67.9,66.4,29.81,WSW,241,7.5,7.5,95,0.14,,,0.18,VWS V14.01,2013-06-06 14:15:00,
2013-06-06 10:16:00,67.9,66.4,29.81,West,270,4.5,7.5,95,0.15,,,0.19,VWS V14.01,2013-06-06 14:16:00,
2013-06-06 10:17:00,67.9,66.4,29.81,WSW,244,7.5,9.0,95,0.15,,,0.19,VWS V14.01,2013-06-06 14:17:00,
2013-06-06 10:18:00,67.9,66.4,29.81,SW,234,9.0,12.0,95,0.15,,,0.19,VWS V14.01,2013-06-06 14:18:00,
2013-06-06 10:19:00,67.8,66.6,29.81,West,281,7.5,9.0,96,0.16,,,0.20,VWS V14.01,2013-06-06 14:19:00,
2013-06-06 10:20:00,67.9,66.7,29.81,WSW,243,9.0,9.0,96,0.16,,,0.20,VWS V14.01,2013-06-06 14:20:00,
2013-06-06 10:21:00,67.8,66.6,29.81,WSW,247,6.0,10.5,96,0.17,,,0.21,VWS V14.01,2013-06-06 14:21:00,
2013-06-06 10:22:00,67.8,66.6,29.81,WSW,246,4.5,10.5,96,0.17,,,0.21,VWS V14.01,2013-06-06 14:22:00,
2013-06-06 10:23:00,67.8,66.6,29.81,WSW,241,3.0,6.0,96,0.17,,,0.21,VWS V14.01,2013-06-06 14:23:00,
2013-06-06 10:24:00,67.9,66.7,29.81,SW,231,4.5,7.5,96,0.18,,,0.22,VWS V14.01,2013-06-06 14:24:00,
2013-06-06 10:25:00,67.9,66.7,29.81,WSW,255,6.0,7.5,96,0.18,,,0.22,VWS V14.01,2013-06-06 14:25:00,
2013-06-06 10:26:00,67.9,66.7,29.81,WSW,241,4.5,7.5,96,0.18,,,0.22,VWS V14.01,2013-06-06 14:26:00,
2013-06-06 10:27:00,67.9,66.7,29.81,SSW,208,4.5,7.5,96,0.18,,,0.22,VWS V14.01,2013-06-06 14:27:00,
2013-06-06 10:28:00,67.9,66.7,29.81,WSW,251,1.5,6.0,96,0.17,,,0.22,VWS V14.01,2013-06-06 14:28:00,
2013-06-06 10:29:00,67.9,66.7,29.81,WSW,237,7.5,7.5,96,0.17,,,0.22,VWS V14.01,2013-06-06 14:29:00,
2013-06-06 10:30:00,67.9,66.7,29.81,WSW,241,9.0,9.0,96,0.17,,,0.22,VWS V14.01,2013-06-06 14:30:00,
2013-06-06 10:31:00,67.9,66.7,29.81,WSW,246,7.5,10.5,96,0.17,,,0.22,VWS V14.01,2013-06-06 14:31:00,
2013-06-06 10:32:00,67.9,66.7,29.81,SW,230,4.5,10.5,96,0.17,,,0.22,VWS V14.01,2013-06-06 14:32:00,
2013-06-06 10:33:00,67.9,66.7,29.81,WSW,248,7.5,7.5,96,0.17,,,0.22,VWS V14.01,2013-06-06 14:33:00,
2013-06-06 10:34:00,67.9,66.7,29.81,WSW,253,9.0,9.0,96,0.16,,,0.23,VWS V14.01,2013-06-06 14:34:00,
2013-06-06 10:35:00,67.9,66.7,29.81,WSW,253,9.0,9.0,96,0.16,,,0.23,VWS V14.01,2013-06-06 14:35:00,
2013-06-06 10:36:00,67.9,66.7,29.81,WSW,240,4.5,10.5,96,0.16,,,0.23,VWS V14.01,2013-06-06 14:36:00,
2013-06-06 10:37:00,67.9,66.7,29.81,WSW,255,6.0,9.0,96,0.17,,,0.24,VWS V14.01,2013-06-06 14:37:00,
2013-06-06 10:38:00,68.0,66.8,29.81,WSW,254,7.5,9.0,96,0.17,,,0.24,VWS V14.01,2013-06-06 14:38:00,
2013-06-06 10:39:00,67.9,66.7,29.81,WSW,258,7.5,10.5,96,0.18,,,0.25,VWS V14.01,2013-06-06 14:39:00,
2013-06-06 10:40:00,67.9,66.7,29.81,WSW,255,6.0,10.5,96,0.18,,,0.25,VWS V14.01,2013-06-06 14:40:00,
2013-06-06 10:41:00,67.9,66.7,29.81,West,269,12.0,12.0,96,0.18,,,0.25,VWS V14.01,2013-06-06 14:41:00,
2013-06-06 10:42:00,67.9,66.7,29.81,SW,231,6.0,12.0,96,0.19,,,0.26,VWS V14.01,2013-06-06 14:42:00,
2013-06-06 10:43:00,68.0,66.8,29.81,SSW,196,7.5,12.0,96,0.19,,,0.26,VWS V14.01,2013-06-06 14:43:00,
2013-06-06 10:44:00,67.9,66.7,29.81,WSW,237,9.0,10.5,96,0.19,,,0.27,VWS V14.01,2013-06-06 14:44:00,
2013-06-06 10:45:00,67.9,66.7,29.81,WSW,255,7.5,10.5,96,0.19,,,0.27,VWS V14.01,2013-06-06 14:45:00,
2013-06-06 10:46:00,67.9,66.7,29.81,WSW,248,6.0,12.0,96,0.19,,,0.27,VWS V14.01,2013-06-06 14:46:00,
2013-06-06 10:47:00,68.0,66.8,29.81,WSW,241,4.5,12.0,96,0.19,,,0.27,VWS V14.01,2013-06-06 14:47:00,
2013-06-06 10:48:00,68.0,66.8,29.81,SSW,195,6.0,10.5,96,0.19,,,0.28,VWS V14.01,2013-06-06 14:48:00,
2013-06-06 10:49:00,68.0,66.8,29.81,WSW,255,7.5,10.5,96,0.19,,,0.28,VWS V14.01,2013-06-06 14:49:00,
2013-06-06 10:50:00,68.0,66.8,29.81,SSW,212,6.0,10.5,96,0.19,,,0.28,VWS V14.01,2013-06-06 14:50:00,
2013-06-06 10:51:00,68.0,66.8,29.81,SW,226,9.0,10.5,96,0.18,,,0.28,VWS V14.01,2013-06-06 14:51:00,
2013-06-06 10:52:00,68.0,66.8,29.81,WSW,251,15.0,15.0,96,0.19,,,0.29,VWS V14.01,2013-06-06 14:52:00,
2013-06-06 10:53:00,68.0,66.8,29.81,SW,234,7.5,15.0,96,0.18,,,0.29,VWS V14.01,2013-06-06 14:53:00,
2013-06-06 10:54:00,68.1,66.9,29.81,WSW,250,7.5,9.0,96,0.18,,,0.29,VWS V14.01,2013-06-06 14:54:00,
2013-06-06 10:55:00,68.1,66.9,29.81,SW,231,6.0,9.0,96,0.18,,,0.29,VWS V14.01,2013-06-06 14:55:00,
2013-06-06 10:56:00,68.1,66.9,29.81,WSW,251,7.5,12.0,96,0.18,,,0.30,VWS V14.01,2013-06-06 14:56:00,
2013-06-06 10:57:00,68.1,66.9,29.81,West,271,9.0,12.0,96,0.18,,,0.30,VWS V14.01,2013-06-06 14:57:00,
2013-06-06 10:58:00,68.1,66.9,29.81,WSW,246,9.0,15.0,96,0.18,,,0.30,VWS V14.01,2013-06-06 14:58:00,
2013-06-06 10:59:00,68.1,66.9,29.81,SW,224,9.0,12.0,96,0.19,,,0.32,VWS V14.01,2013-06-06 14:59:00,
2013-06-06 11:00:00,68.1,66.9,29.81,West,265,6.0,12.0,96,0.19,,,0.32,VWS V14.01,2013-06-06 15:00:00,
2013-06-06 11:01:00,68.2,67.0,29.81,WSW,239,7.5,10.5,96,0.19,,,0.32,VWS V14.01,2013-06-06 15:01:00,
2013-06-06 11:02:00,68.2,67.0,29.81,WSW,237,7.5,10.5,96,0.19,,,0.32,VWS V14.01,2013-06-06 15:02:00,
2013-06-06 11:03:00,68.2,67.0,29.81,West,260,6.0,10.5,96,0.18,,,0.32,VWS V14.01,2013-06-06 15:03:00,
2013-06-06 11:04:00,68.3,67.1,29.81,SSW,212,6.0,12.0,96,0.17,,,0.32,VWS V14.01,2013-06-06 15:04:00,
2013-06-06 11:05:00,68.2,67.0,29.81,WSW,255,10.5,12.0,96,0.17,,,0.32,VWS V14.01,2013-06-06 15:05:00,
2013-06-06 11:06:00,68.3,67.1,29.81,West,260,4.5,12.0,96,0.17,,,0.32,VWS V14.01,2013-06-06 15:06:00,
2013-06-06 11:07:00,68.3,67.1,29.81,WSW,240,7.5,12.0,96,0.17,,,0.32,VWS V14.01,2013-06-06 15:07:00,
2013-06-06 11:08:00,68.4,67.2,29.81,WSW,246,6.0,9.0,96,0.16,,,0.32,VWS V14.01,2013-06-06 15:08:00,
2013-06-06 11:09:00,68.5,67.3,29.81,SW,217,6.0,7.5,96,0.16,,,0.32,VWS V14.01,2013-06-06 15:09:00,
2013-06-06 11:10:00,68.5,67.3,29.81,SW,228,4.5,7.5,96,0.16,,,0.32,VWS V14.01,2013-06-06 15:10:00,
2013-06-06 11:11:00,68.5,67.3,29.81,WSW,247,9.0,9.0,96,0.16,,,0.32,VWS V14.01,2013-06-06 15:11:00,
2013-06-06 11:12:00,68.5,67.3,29.81,WSW,241,7.5,9.0,96,0.15,,,0.32,VWS V14.01,2013-06-06 15:12:00,
2013-06-06 11:13:00,68.6,67.4,29.81,SW,215,4.5,9.0,96,0.15,,,0.32,VWS V14.01,2013-06-06 15:13:00,
2013-06-06 11:14:00,68.6,67.4,29.81,West,275,3.0,10.5,96,0.14,,,0.32,VWS V14.01,2013-06-06 15:14:00,
2013-06-06 11:15:00,68.7,67.5,29.81,West,269,6.0,10.5,96,0.14,,,0.32,VWS V14.01,2013-06-06 15:15:00,
2013-06-06 11:16:00,68.7,67.5,29.81,WSW,239,3.0,6.0,96,0.14,,,0.32,VWS V14.01,2013-06-06 15:16:00,
2013-06-06 11:17:00,68.8,67.6,29.81,SW,236,3.0,6.0,96,0.13,,,0.32,VWS V14.01,2013-06-06 15:17:00,
2013-06-06 11:18:00,68.9,67.7,29.81,WSW,237,1.5,4.5,96,0.13,,,0.32,VWS V14.01,2013-06-06 15:18:00,
2013-06-06 11:19:00,69.1,67.9,29.81,WSW,258,4.5,4.5,96,0.12,,,0.32,VWS V14.01,2013-06-06 15:19:00,
2013-06-06 11:20:00,69.1,67.9,29.81,WSW,257,3.0,4.5,96,0.12,,,0.32,VWS V14.01,2013-06-06 15:20:00,
2013-06-06 11:21:00,69.2,68.0,29.81,SSW,206,4.5,6.0,96,0.12,,,0.32,VWS V14.01,2013-06-06 15:21:00,
2013-06-06 11:22:00,69.2,68.0,29.80,SSW,206,1.5,6.0,96,0.11,,,0.32,VWS V14.01,2013-06-06 15:22:00,
2013-06-06 11:23:00,69.3,68.1,29.80,SSW,206,1.5,4.5,96,0.11,,,0.32,VWS V14.01,2013-06-06 15:23:00,
2013-06-06 11:24:00,69.6,68.4,29.80,SW,216,1.5,3.0,96,0.10,,,0.32,VWS V14.01,2013-06-06 15:24:00,
2013-06-06 11:25:00,69.6,68.4,29.80,SW,223,3.0,3.0,96,0.10,,,0.32,VWS V14.01,2013-06-06 15:25:00,
2013-06-06 11:26:00,69.7,68.5,29.80,SW,226,4.5,4.5,96,0.10,,,0.32,VWS V14.01,2013-06-06 15:26:00,
2013-06-06 11:27:00,69.8,68.3,29.80,SSW,208,4.5,4.5,95,0.10,,,0.32,VWS V14.01,2013-06-06 15:27:00,
2013-06-06 11:28:00,69.9,68.4,29.80,WSW,247,6.0,9.0,95,0.10,,,0.32,VWS V14.01,2013-06-06 15:28:00,
2013-06-06 11:29:00,69.9,68.1,29.80,SW,219,6.0,9.0,94,0.10,,,0.32,VWS V14.01,2013-06-06 15:29:00,
2013-06-06 11:30:00,70.0,68.2,29.80,WSW,239,4.5,9.0,94,0.10,,,0.32,VWS V14.01,2013-06-06 15:30:00,
2013-06-06 11:31:00,70.0,68.2,29.80,West,264,4.5,9.0,94,0.10,,,0.32,VWS V14.01,2013-06-06 15:31:00,
2013-06-06 11:32:00,70.1,68.3,29.80,West,271,4.5,6.0,94,0.10,,,0.32,VWS V14.01,2013-06-06 15:32:00,
2013-06-06 11:33:00,70.2,68.4,29.80,WSW,254,4.5,6.0,94,0.10,,,0.32,VWS V14.01,2013-06-06 15:33:00,
2013-06-06 11:34:00,70.3,68.5,29.80,WSW,237,3.0,6.0,94,0.10,,,0.32,VWS V14.01,2013-06-06 15:34:00,
2013-06-06 11:35:00,70.3,68.5,29.80,WSW,237,1.5,6.0,94,0.10,,,0.32,VWS V14.01,2013-06-06 15:35:00,
2013-06-06 11:36:00,70.5,68.7,29.80,SSW,212,6.0,6.0,94,0.09,,,0.32,VWS V14.01,2013-06-06 15:36:00,
2013-06-06 11:37:00,70.5,68.4,29.80,NNW,333,7.5,7.5,93,0.09,,,0.32,VWS V14.01,2013-06-06 15:37:00,
2013-06-06 11:38:00,70.5,68.4,29.80,West,260,6.0,9.0,93,0.08,,,0.32,VWS V14.01,2013-06-06 15:38:00,
2013-06-06 11:39:00,70.6,68.2,29.80,SW,229,7.5,9.0,92,0.08,,,0.32,VWS V14.01,2013-06-06 15:39:00,
2013-06-06 11:40:00,70.7,68.3,29.80,West,259,6.0,9.0,92,0.08,,,0.32,VWS V14.01,2013-06-06 15:40:00,
2013-06-06 11:41:00,70.7,68.3,29.80,WSW,241,3.0,9.0,92,0.07,,,0.32,VWS V14.01,2013-06-06 15:41:00,
2013-06-06 11:42:00,70.7,68.6,29.80,SSW,212,7.5,12.0,93,0.07,,,0.32,VWS V14.01,2013-06-06 15:42:00,
2013-06-06 11:43:00,70.7,67.9,29.80,WSW,247,6.0,12.0,91,0.06,,,0.32,VWS V14.01,2013-06-06 15:43:00,
2013-06-06 11:44:00,70.8,68.4,29.80,SSW,194,6.0,9.0,92,0.05,,,0.32,VWS V14.01,2013-06-06 15:44:00,
2013-06-06 11:45:00,70.8,68.4,29.80,South,191,9.0,12.0,92,0.05,,,0.32,VWS V14.01,2013-06-06 15:45:00,
2013-06-06 11:46:00,70.8,68.4,29.80,South,188,4.5,12.0,92,0.05,,,0.32,VWS V14.01,2013-06-06 15:46:00,
2013-06-06 11:47:00,70.9,68.2,29.81,SW,223,9.0,12.0,91,0.05,,,0.32,VWS V14.01,2013-06-06 15:47:00,
2013-06-06 11:48:00,70.9,68.2,29.81,WSW,241,4.5,12.0,91,0.05,,,0.32,VWS V14.01,2013-06-06 15:48:00,
2013-06-06 11:49:00,70.9,68.2,29.81,SW,220,7.5,10.5,91,0.04,,,0.32,VWS V14.01,2013-06-06 15:49:00,
2013-06-06 11:50:00,70.9,68.2,29.81,SW,228,7.5,10.5,91,0.04,,,0.32,VWS V14.01,2013-06-06 15:50:00,
2013-06-06 11:51:00,70.9,68.2,29.81,SW,220,4.5,10.5,91,0.04,,,0.32,VWS V14.01,2013-06-06 15:51:00,
2013-06-06 11:52:00,71.0,68.6,29.81,SW,234,6.0,9.0,92,0.04,,,0.32,VWS V14.01,2013-06-06 15:52:00,
2013-06-06 11:53:00,71.1,68.3,29.81,SW,226,3.0,9.0,91,0.03,,,0.32,VWS V14.01,2013-06-06 15:53:00,
2013-06-06 11:54:00,71.2,68.8,29.80,WSW,239,6.0,9.0,92,0.03,,,0.32,VWS V14.01,2013-06-06 15:54:00,
2013-06-06 11:55:00,71.2,68.4,29.80,WSW,250,6.0,9.0,91,0.03,,,0.32,VWS V14.01,2013-06-06 15:55:00,
2013-06-06 11:56:00,71.3,68.5,29.80,SW,216,6.0,9.0,91,0.03,,,0.32,VWS V14.01,2013-06-06 15:56:00,
2013-06-06 11:57:00,71.4,68.6,29.80,WSW,237,9.0,9.0,91,0.02,,,0.32,VWS V14.01,2013-06-06 15:57:00,
2013-06-06 11:58:00,71.4,68.6,29.80,West,262,9.0,12.0,91,0.02,,,0.32,VWS V14.01,2013-06-06 15:58:00,
2013-06-06 11:59:00,71.4,68.3,29.81,WSW,237,9.0,12.0,90,0.02,,,0.32,VWS V14.01,2013-06-06 15:59:00,
2013-06-06 12:00:00,71.4,68.3,29.81,WSW,253,7.5,12.0,90,0.02,,,0.32,VWS V14.01,2013-06-06 16:00:00,
2013-06-06 12:01:00,71.4,68.3,29.81,SW,229,6.0,12.0,90,0.00,,,0.32,VWS V14.01,2013-06-06 16:01:00,
2013-06-06 12:02:00,71.4,68.3,29.81,WSW,258,6.0,12.0,90,0.00,,,0.32,VWS V14.01,2013-06-06 16:02:00,
2013-06-06 12:03:00,71.4,68.3,29.81,WNW,293,6.0,9.0,90,0.00,,,0.32,VWS V14.01,2013-06-06 16:03:00,
2013-06-06 12:04:00,71.4,68.3,29.81,West,267,7.5,9.0,90,0.00,,,0.32,VWS V14.01,2013-06-06 16:04:00,
2013-06-06 12:05:00,71.5,68.4,29.81,West,274,6.0,9.0,90,0.00,,,0.32,VWS V14.01,2013-06-06 16:05:00,
2013-06-06 12:06:00,71.5,68.4,29.81,West,275,9.0,13.5,90,0.00,,,0.32,VWS V14.01,2013-06-06 16:06:00,
2013-06-06 12:07:00,71.5,68.4,29.81,West,278,9.0,13.5,90,0.00,,,0.32,VWS V14.01,2013-06-06 16:07:00,
2013-06-06 12:08:00,71.4,68.3,29.81,WSW,258,6.0,10.5,90,0.00,,,0.32,VWS V14.01,2013-06-06 16:08:00,
2013-06-06 12:09:00,71.4,68.3,29.81,WSW,248,10.5,10.5,90,0.00,,,0.32,VWS V14.01,2013-06-06 16:09:00,
2013-06-06 12:10:00,71.3,68.2,29.81,SW,234,7.5,10.5,90,0.00,,,0.32,VWS V14.01,2013-06-06 16:10:00,
2013-06-06 12:11:00,71.3,68.2,29.81,West,259,7.5,13.5,90,0.00,,,0.32,VWS V14.01,2013-06-06 16:11:00,
2013-06-06 12:12:00,71.2,68.1,29.81,West,262,9.0,13.5,90,0.00,,,0.32,VWS V14.01,2013-06-06 16:12:00,
2013-06-06 12:13:00,71.2,68.1,29.81,WSW,251,6.0,12.0,90,0.00,,,0.32,VWS V14.01,2013-06-06 16:13:00,
2013-06-06 12:14:00,71.1,68.0,29.82,West,275,6.0,9.0,90,0.00,,,0.32,VWS V14.01,2013-06-06 16:14:00,
2013-06-06 12:15:00,71.1,68.0,29.82,West,271,7.5,9.0,90,0.00,,,0.32,VWS V14.01,2013-06-06 16:15:00,
2013-06-06 12:16:00,71.1,68.0,29.81,West,280,9.0,9.0,90,0.00,,,0.32,VWS V14.01,2013-06-06 16:16:00,
2013-06-06 12:17:00,71.1,68.0,29.81,West,276,7.5,9.0,90,0.00,,,0.32,VWS V14.01,2013-06-06 16:17:00,
2013-06-06 12:18:00,71.1,68.3,29.81,WNW,300,6.0,9.0,91,0.00,,,0.32,VWS V14.01,2013-06-06 16:18:00,
2013-06-06 12:19:00,71.1,68.3,29.81,West,267,7.5,9.0,91,0.00,,,0.32,VWS V14.01,2013-06-06 16:19:00,
2013-06-06 12:20:00,71.1,68.3,29.81,WSW,254,7.5,9.0,91,0.00,,,0.32,VWS V14.01,2013-06-06 16:20:00,
2013-06-06 12:21:00,71.1,68.3,29.81,SW,234,10.5,10.5,91,0.00,,,0.32,VWS V14.01,2013-06-06 16:21:00,
2013-06-06 12:22:00,71.1,68.0,29.81,SSW,212,7.5,12.0,90,0.00,,,0.32,VWS V14.01,2013-06-06 16:22:00,
2013-06-06 12:23:00,71.1,68.3,29.81,West,260,9.0,12.0,91,0.01,,,0.33,VWS V14.01,2013-06-06 16:23:00,
2013-06-06 12:24:00,71.0,68.2,29.81,SW,231,10.5,10.5,91,0.02,,,0.34,VWS V14.01,2013-06-06 16:24:00,
2013-06-06 12:25:00,71.0,68.2,29.81,WSW,251,10.5,10.5,91,0.02,,,0.34,VWS V14.01,2013-06-06 16:25:00,
2013-06-06 12:26:00,70.8,67.7,29.81,SW,234,7.5,10.5,90,0.02,,,0.34,VWS V14.01,2013-06-06 16:26:00,
2013-06-06 12:27:00,70.8,67.7,29.81,WSW,254,6.0,9.0,90,0.02,,,0.34,VWS V14.01,2013-06-06 16:27:00,
2013-06-06 12:28:00,70.8,68.1,29.81,WSW,239,3.0,9.0,91,0.02,,,0.34,VWS V14.01,2013-06-06 16:28:00,
2013-06-06 12:29:00,70.8,68.1,29.81,WSW,238,4.5,6.0,91,0.00,,,0.32,VWS V14.01,2013-06-06 16:29:00,
2013-06-06 12:30:00,70.7,67.9,29.81,WSW,238,4.5,4.5,91,0.00,,,0.32,VWS V14.01,2013-06-06 16:30:00,
2013-06-06 12:31:00,70.7,67.9,29.81,WSW,238,4.5,4.5,91,0.00,,,0.32,VWS V14.01,2013-06-06 16:31:00,
2013-06-06 12:32:00,70.8,68.1,29.81,SW,217,4.5,4.5,91,0.03,,,0.35,VWS V14.01,2013-06-06 16:32:00,
2013-06-06 12:33:00,70.8,68.1,29.81,WSW,244,3.0,4.5,91,0.03,,,0.35,VWS V14.01,2013-06-06 16:33:00,
2013-06-06 12:34:00,70.8,68.1,29.81,South,184,3.0,6.0,91,0.03,,,0.35,VWS V14.01,2013-06-06 16:34:00,
2013-06-06 12:35:00,70.9,68.2,29.81,SW,231,4.5,6.0,91,0.03,,,0.35,VWS V14.01,2013-06-06 16:35:00,
2013-06-06 12:36:00,71.0,68.6,29.81,West,260,4.5,7.5,92,0.00,,,0.32,VWS V14.01,2013-06-06 16:36:00,
2013-06-06 12:37:00,71.0,68.2,29.81,West,260,7.5,9.0,91,0.00,,,0.32,VWS V14.01,2013-06-06 16:37:00,
2013-06-06 12:38:00,71.0,68.2,29.81,West,260,7.5,9.0,91,0.00,,,0.32,VWS V14.01,2013-06-06 16:38:00,
2013-06-06 12:39:00,71.1,68.3,29.81,West,279,6.0,7.5,91,0.03,,,0.35,VWS V14.01,2013-06-06 16:39:00,
2013-06-06 12:40:00,71.1,68.3,29.81,West,279,4.5,7.5,91,0.03,,,0.35,VWS V14.01,2013-06-06 16:40:00,
2013-06-06 12:41:00,71.1,68.3,29.81,West,264,6.0,7.5,91,0.03,,,0.35,VWS V14.01,2013-06-06 16:41:00,
2013-06-06 12:42:00,71.2,68.4,29.81,WNW,291,3.0,6.0,91,0.03,,,0.35,VWS V14.01,2013-06-06 16:42:00,
2013-06-06 12:43:00,71.4,69.0,29.80,WSW,251,3.0,6.0,92,0.03,,,0.35,VWS V14.01,2013-06-06 16:43:00,
2013-06-06 12:44:00,71.4,68.6,29.80,WNW,287,3.0,4.5,91,0.03,,,0.35,VWS V14.01,2013-06-06 16:44:00,
2013-06-06 12:45:00,71.5,69.1,29.80,West,272,3.0,6.0,92,0.03,,,0.35,VWS V14.01,2013-06-06 16:45:00,
2013-06-06 12:46:00,71.5,68.7,29.80,West,269,1.5,6.0,91,0.03,,,0.35,VWS V14.01,2013-06-06 16:46:00,
2013-06-06 12:47:00,71.7,69.3,29.80,West,262,6.0,6.0,92,0.03,,,0.35,VWS V14.01,2013-06-06 16:47:00,
2013-06-06 12:48:00,71.8,69.0,29.80,West,271,4.5,7.5,91,0.03,,,0.35,VWS V14.01,2013-06-06 16:48:00,
2013-06-06 12:49:00,71.8,68.7,29.80,West,268,3.0,7.5,90,0.03,,,0.35,VWS V14.01,2013-06-06 16:49:00,
2013-06-06 12:50:00,71.9,68.8,29.80,SW,226,4.5,6.0,90,0.03,,,0.35,VWS V14.01,2013-06-06 16:50:00,
2013-06-06 12:51:00,72.1,69.3,29.80,West,265,3.0,6.0,91,0.03,,,0.35,VWS V14.01,2013-06-06 16:51:00,
2013-06-06 12:52:00,72.3,69.2,29.80,NNW,328,1.5,6.0,90,0.03,,,0.35,VWS V14.01,2013-06-06 16:52:00,
2013-06-06 12:53:00,72.5,69.7,29.80,NNW,328,1.5,3.0,91,0.03,,,0.35,VWS V14.01,2013-06-06 16:53:00,
2013-06-06 12:54:00,72.6,69.8,29.80,West,272,6.0,6.0,91,0.03,,,0.35,VWS V14.01,2013-06-06 16:54:00,
2013-06-06 12:55:00,72.9,70.1,29.80,NW,312,4.5,6.0,91,0.03,,,0.35,VWS V14.01,2013-06-06 16:55:00,
2013-06-06 12:56:00,73.1,70.0,29.80,WSW,246,6.0,9.0,90,0.03,,,0.35,VWS V14.01,2013-06-06 16:56:00,
2013-06-06 12:57:00,73.2,70.1,29.80,SW,234,6.0,9.0,90,0.03,,,0.35,VWS V14.01,2013-06-06 16:57:00,
2013-06-06 12:58:00,73.3,70.2,29.80,WSW,247,7.5,9.0,90,0.03,,,0.35,VWS V14.01,2013-06-06 16:58:00,
2013-06-06 12:59:00,73.3,69.5,29.80,West,273,4.5,9.0,88,0.03,,,0.35,VWS V14.01,2013-06-06 16:59:00,
2013-06-06 13:00:00,73.3,69.9,29.80,West,271,6.0,7.5,89,0.03,,,0.35,VWS V14.01,2013-06-06 17:00:00,
2013-06-06 13:01:00,73.4,69.6,29.80,SSW,203,4.5,6.0,88,0.03,,,0.35,VWS V14.01,2013-06-06 17:01:00,
2013-06-06 13:02:00,73.5,70.1,29.80,WSW,246,4.5,6.0,89,0.03,,,0.35,VWS V14.01,2013-06-06 17:02:00,
2013-06-06 13:03:00,73.7,70.6,29.80,NW,319,3.0,7.5,90,0.03,,,0.35,VWS V14.01,2013-06-06 17:03:00,
2013-06-06 13:04:00,73.9,70.5,29.80,West,260,4.5,7.5,89,0.03,,,0.35,VWS V14.01,2013-06-06 17:04:00,
2013-06-06 13:05:00,74.0,70.2,29.80,West,272,4.5,6.0,88,0.03,,,0.35,VWS V14.01,2013-06-06 17:05:00,
2013-06-06 13:06:00,74.1,70.3,29.80,SW,227,1.5,6.0,88,0.03,,,0.35,VWS V14.01,2013-06-06 17:06:00,
2013-06-06 13:07:00,74.3,70.5,29.80,SW,230,10.5,10.5,88,0.03,,,0.35,VWS V14.01,2013-06-06 17:07:00,
2013-06-06 13:08:00,74.4,69.9,29.80,West,259,9.0,13.5,86,0.03,,,0.35,VWS V14.01,2013-06-06 17:08:00,
2013-06-06 13:09:00,74.4,69.6,29.80,WSW,254,6.0,13.5,85,0.03,,,0.35,VWS V14.01,2013-06-06 17:09:00,
2013-06-06 13:10:00,74.4,69.6,29.80,SW,220,6.0,9.0,85,0.03,,,0.35,VWS V14.01,2013-06-06 17:10:00,
2013-06-06 13:11:00,74.4,69.9,29.79,WSW,237,4.5,9.0,86,0.03,,,0.35,VWS V14.01,2013-06-06 17:11:00,
2013-06-06 13:12:00,74.6,70.1,29.79,WSW,252,6.0,9.0,86,0.03,,,0.35,VWS V14.01,2013-06-06 17:12:00,
2013-06-06 13:13:00,74.8,70.3,29.79,SW,219,4.5,9.0,86,0.03,,,0.35,VWS V14.01,2013-06-06 17:13:00,
2013-06-06 13:14:00,74.9,70.4,29.79,West,264,9.0,10.5,86,0.03,,,0.35,VWS V14.01,2013-06-06 17:14:00,
2013-06-06 13:15:00,75.1,71.0,29.79,WSW,241,10.5,10.5,87,0.03,,,0.35,VWS V14.01,2013-06-06 17:15:00,
2013-06-06 13:16:00,75.2,70.4,29.79,West,269,6.0,10.5,85,0.03,,,0.35,VWS V14.01,2013-06-06 17:16:00,
2013-06-06 13:17:00,75.3,70.5,29.79,WSW,252,7.5,10.5,85,0.03,,,0.35,VWS V14.01,2013-06-06 17:17:00,
2013-06-06 13:18:00,75.4,70.2,29.79,SW,232,7.5,7.5,84,0.03,,,0.35,VWS V14.01,2013-06-06 17:18:00,
2013-06-06 13:19:00,75.4,70.2,29.79,NW,319,3.0,7.5,84,0.03,,,0.35,VWS V14.01,2013-06-06 17:19:00,
2013-06-06 13:20:00,75.5,70.3,29.79,West,278,3.0,7.5,84,0.03,,,0.35,VWS V14.01,2013-06-06 17:20:00,
2013-06-06 13:21:00,75.5,69.6,29.79,WNW,296,7.5,7.5,82,0.03,,,0.35,VWS V14.01,2013-06-06 17:21:00,
2013-06-06 13:22:00,75.5,69.6,29.79,NW,312,6.0,7.5,82,0.03,,,0.35,VWS V14.01,2013-06-06 17:22:00,
2013-06-06 13:23:00,75.5,69.6,29.79,West,266,4.5,9.0,82,0.02,,,0.35,VWS V14.01,2013-06-06 17:23:00,
2013-06-06 13:24:00,75.5,70.0,29.79,SW,231,1.5,9.0,83,0.02,,,0.35,VWS V14.01,2013-06-06 17:24:00,
2013-06-06 13:25:00,75.5,70.3,29.79,West,278,3.0,6.0,84,0.01,,,0.35,VWS V14.01,2013-06-06 17:25:00,
2013-06-06 13:26:00,75.6,70.1,29.79,WSW,246,3.0,4.5,83,0.01,,,0.35,VWS V14.01,2013-06-06 17:26:00,
2013-06-06 13:27:00,75.6,69.7,29.79,WSW,250,1.5,4.5,82,0.01,,,0.35,VWS V14.01,2013-06-06 17:27:00,
2013-06-06 13:28:00,75.6,70.1,29.79,NW,310,4.5,6.0,83,0.01,,,0.35,VWS V14.01,2013-06-06 17:28:00,
2013-06-06 13:29:00,75.6,70.1,29.79,West,269,3.0,6.0,83,0.01,,,0.35,VWS V14.01,2013-06-06 17:29:00,
2013-06-06 13:30:00,75.6,70.1,29.79,West,269,1.5,6.0,83,0.03,,,0.35,VWS V14.01,2013-06-06 17:30:00,
2013-06-06 13:31:00,75.6,70.1,29.79,NW,315,4.5,4.5,83,0.03,,,0.35,VWS V14.01,2013-06-06 17:31:00,
2013-06-06 13:32:00,75.6,69.7,29.79,NNE,21,1.5,4.5,82,0.00,,,0.35,VWS V14.01,2013-06-06 17:32:00,
2013-06-06 13:33:00,75.6,69.7,29.78,West,279,6.0,6.0,82,0.00,,,0.35,VWS V14.01,2013-06-06 17:33:00,
2013-06-06 13:34:00,75.6,69.7,29.79,West,281,4.5,6.0,82,0.00,,,0.35,VWS V14.01,2013-06-06 17:34:00,
2013-06-06 13:35:00,75.6,69.4,29.79,WSW,241,4.5,6.0,81,0.00,,,0.35,VWS V14.01,2013-06-06 17:35:00,
2013-06-06 13:36:00,75.6,69.7,29.78,SW,229,4.5,7.5,82,0.00,,,0.35,VWS V14.01,2013-06-06 17:36:00,
2013-06-06 13:37:00,75.6,69.4,29.78,WSW,240,4.5,7.5,81,0.03,,,0.35,VWS V14.01,2013-06-06 17:37:00,
2013-06-06 13:38:00,75.5,69.3,29.78,WSW,246,6.0,9.0,81,0.00,,,0.35,VWS V14.01,2013-06-06 17:38:00,
2013-06-06 13:39:00,75.5,69.3,29.78,WSW,255,6.0,9.0,81,0.00,,,0.35,VWS V14.01,2013-06-06 17:39:00,
2013-06-06 13:40:00,75.5,69.3,29.78,WSW,250,3.0,9.0,81,0.00,,,0.35,VWS V14.01,2013-06-06 17:40:00,
2013-06-06 13:41:00,75.4,69.2,29.78,West,266,4.5,7.5,81,0.00,,,0.35,VWS V14.01,2013-06-06 17:41:00,
2013-06-06 13:42:00,75.4,69.2,29.78,West,274,3.0,4.5,81,0.00,,,0.35,VWS V14.01,2013-06-06 17:42:00,
2013-06-06 13:43:00,75.4,69.5,29.78,West,259,3.0,6.0,82,0.00,,,0.35,VWS V14.01,2013-06-06 17:43:00,
2013-06-06 13:44:00,75.4,69.5,29.78,SW,236,4.5,9.0,82,0.00,,,0.35,VWS V14.01,2013-06-06 17:44:00,
2013-06-06 13:45:00,75.4,69.5,29.78,WSW,250,6.0,9.0,82,0.00,,,0.35,VWS V14.01,2013-06-06 17:45:00,
2013-06-06 13:46:00,75.4,69.2,29.78,WSW,237,4.5,7.5,81,0.00,,,0.35,VWS V14.01,2013-06-06 17:46:00,
2013-06-06 13:47:00,75.4,69.5,29.78,SW,231,3.0,7.5,82,0.00,,,0.35,VWS V14.01,2013-06-06 17:47:00,
2013-06-06 13:48:00,75.4,69.9,29.79,WSW,240,3.0,7.5,83,0.00,,,0.35,VWS V14.01,2013-06-06 17:48:00,
2013-06-06 13:49:00,75.5,69.6,29.79,SW,216,3.0,7.5,82,0.00,,,0.35,VWS V14.01,2013-06-06 17:49:00,
2013-06-06 13:50:00,75.5,70.0,29.79,SSW,212,4.5,9.0,83,0.00,,,0.35,VWS V14.01,2013-06-06 17:50:00,
2013-06-06 13:51:00,75.5,70.0,29.79,West,259,6.0,9.0,83,0.00,,,0.35,VWS V14.01,2013-06-06 17:51:00,
2013-06-06 13:52:00,75.6,70.1,29.79,WNW,285,7.5,7.5,83,0.00,,,0.35,VWS V14.01,2013-06-06 17:52:00,
2013-06-06 13:53:00,75.6,70.1,29.79,SW,234,6.0,7.5,83,0.00,,,0.35,VWS V14.01,2013-06-06 17:53:00,
2013-06-06 13:54:00,75.7,69.8,29.78,WSW,252,6.0,9.0,82,0.00,,,0.35,VWS V14.01,2013-06-06 17:54:00,
2013-06-06 13:55:00,75.7,69.5,29.78,WNW,288,9.0,10.5,81,0.00,,,0.35,VWS V14.01,2013-06-06 17:55:00,
2013-06-06 13:56:00,75.7,69.5,29.78,West,276,7.5,16.5,81,0.00,,,0.35,VWS V14.01,2013-06-06 17:56:00,
2013-06-06 13:57:00,75.7,69.8,29.78,SSW,213,7.5,16.5,82,0.00,,,0.35,VWS V14.01,2013-06-06 17:57:00,
2013-06-06 13:58:00,75.8,69.2,29.78,SW,232,9.0,12.0,80,0.00,,,0.35,VWS V14.01,2013-06-06 17:58:00,
2013-06-06 13:59:00,75.7,68.7,29.78,SW,234,7.5,10.5,79,0.00,,,0.35,VWS V14.01,2013-06-06 17:59:00,
2013-06-06 14:00:00,75.8,69.2,29.78,WNW,291,4.5,10.5,80,0.00,,,0.35,VWS V14.01,2013-06-06 18:00:00,
2013-06-06 14:01:00,75.9,69.7,29.78,West,267,7.5,10.5,81,0.00,,,0.35,VWS V14.01,2013-06-06 18:01:00,
2013-06-06 14:02:00,76.0,69.4,29.79,West,269,10.5,10.5,80,0.00,,,0.35,VWS V14.01,2013-06-06 18:02:00,
2013-06-06 14:03:00,76.1,69.1,29.79,WSW,251,12.0,16.5,79,0.00,,,0.35,VWS V14.01,2013-06-06 18:03:00,
2013-06-06 14:04:00,76.1,68.8,29.79,SW,231,13.5,18.0,78,0.00,,,0.35,VWS V14.01,2013-06-06 18:04:00,
2013-06-06 14:05:00,76.1,69.1,29.79,WSW,250,9.0,18.0,79,0.00,,,0.35,VWS V14.01,2013-06-06 18:05:00,
2013-06-06 14:06:00,76.1,68.8,29.79,WSW,243,13.5,13.5,78,0.00,,,0.35,VWS V14.01,2013-06-06 18:06:00,
2013-06-06 14:07:00,76.1,69.1,29.78,West,268,6.0,18.0,79,0.00,,,0.35,VWS V14.01,2013-06-06 18:07:00,
2013-06-06 14:08:00,76.1,69.1,29.78,WSW,244,9.0,18.0,79,0.00,,,0.35,VWS V14.01,2013-06-06 18:08:00,
2013-06-06 14:09:00,76.1,69.1,29.78,WSW,244,12.0,18.0,79,0.00,,,0.35,VWS V14.01,2013-06-06 18:09:00,
2013-06-06 14:10:00,76.1,68.8,29.79,WNW,299,7.5,12.0,78,0.00,,,0.35,VWS V14.01,2013-06-06 18:10:00,
2013-06-06 14:11:00,76.1,68.8,29.79,West,264,13.5,13.5,78,0.00,,,0.35,VWS V14.01,2013-06-06 18:11:00,
2013-06-06 14:12:00,76.1,69.1,29.79,West,268,10.5,16.5,79,0.00,,,0.35,VWS V14.01,2013-06-06 18:12:00,
2013-06-06 14:13:00,76.0,69.4,29.79,SSW,213,10.5,16.5,80,0.00,,,0.35,VWS V14.01,2013-06-06 18:13:00,
2013-06-06 14:14:00,76.0,69.0,29.79,SW,228,9.0,15.0,79,0.00,,,0.35,VWS V14.01,2013-06-06 18:14:00,
2013-06-06 14:15:00,75.9,68.9,29.79,SW,231,10.5,12.0,79,0.00,,,0.35,VWS V14.01,2013-06-06 18:15:00,
2013-06-06 14:16:00,75.7,69.1,29.79,SW,230,13.5,16.5,80,0.00,,,0.35,VWS V14.01,2013-06-06 18:16:00,
2013-06-06 14:17:00,75.7,69.1,29.79,WSW,255,10.5,16.5,80,0.00,,,0.35,VWS V14.01,2013-06-06 18:17:00,
2013-06-06 14:18:00,75.6,69.0,29.79,SW,234,13.5,15.0,80,0.00,,,0.35,VWS V14.01,2013-06-06 18:18:00,
2013-06-06 14:19:00,75.6,69.4,29.78,SW,223,12.0,13.5,81,0.00,,,0.35,VWS V14.01,2013-06-06 18:19:00,
2013-06-06 14:20:00,75.6,69.0,29.78,WSW,255,13.5,13.5,80,0.00,,,0.35,VWS V14.01,2013-06-06 18:20:00,
2013-06-06 14:21:00,75.6,68.6,29.78,West,264,12.0,16.5,79,0.00,,,0.35,VWS V14.01,2013-06-06 18:21:00,
2013-06-06 14:22:00,75.6,69.0,29.78,WSW,258,6.0,16.5,80,0.00,,,0.35,VWS V14.01,2013-06-06 18:22:00,
2013-06-06 14:23:00,75.6,69.0,29.78,West,264,12.0,13.5,80,0.00,,,0.35,VWS V14.01,2013-06-06 18:23:00,
2013-06-06 14:24:00,75.7,69.5,29.78,WSW,247,6.0,13.5,81,0.00,,,0.35,VWS V14.01,2013-06-06 18:24:00,
2013-06-06 14:25:00,75.7,69.5,29.78,SW,230,9.0,13.5,81,0.00,,,0.35,VWS V14.01,2013-06-06 18:25:00,
2013-06-06 14:26:00,75.7,69.5,29.78,WSW,258,6.0,12.0,81,0.00,,,0.35,VWS V14.01,2013-06-06 18:26:00,
2013-06-06 14:27:00,75.8,69.2,29.78,SW,217,13.5,13.5,80,0.00,,,0.35,VWS V14.01,2013-06-06 18:27:00,
2013-06-06 14:28:00,75.8,68.8,29.79,WSW,251,15.0,16.5,79,0.00,,,0.35,VWS V14.01,2013-06-06 18:28:00,
2013-06-06 14:29:00,75.8,69.2,29.79,WSW,254,9.0,16.5,80,0.00,,,0.35,VWS V14.01,2013-06-06 18:29:00,
2013-06-06 14:30:00,75.9,69.3,29.79,WSW,237,10.5,16.5,80,0.00,,,0.35,VWS V14.01,2013-06-06 18:30:00,
2013-06-06 14:31:00,75.9,68.9,29.79,West,276,9.0,16.5,79,0.00,,,0.35,VWS V14.01,2013-06-06 18:31:00,
2013-06-06 14:32:00,76.1,69.5,29.79,West,269,4.5,16.5,80,0.00,,,0.35,VWS V14.01,2013-06-06 18:32:00,
2013-06-06 14:33:00,76.2,69.9,29.79,WSW,237,13.5,13.5,81,0.00,,,0.35,VWS V14.01,2013-06-06 18:33:00,
2013-06-06 14:34:00,76.5,70.2,29.79,SW,218,12.0,18.0,81,0.00,,,0.35,VWS V14.01,2013-06-06 18:34:00,
2013-06-06 14:35:00,76.7,70.1,29.78,SSW,205,9.0,18.0,80,0.00,,,0.35,VWS V14.01,2013-06-06 18:35:00,
2013-06-06 14:36:00,77.0,70.7,29.78,West,262,7.5,13.5,81,0.00,,,0.35,VWS V14.01,2013-06-06 18:36:00,
2013-06-06 14:37:00,77.3,70.3,29.78,WSW,254,18.0,18.0,79,0.00,,,0.35,VWS V14.01,2013-06-06 18:37:00,
2013-06-06 14:38:00,77.3,69.9,29.78,West,269,10.5,18.0,78,0.00,,,0.35,VWS V14.01,2013-06-06 18:38:00,
2013-06-06 14:39:00,77.4,70.0,29.78,West,269,9.0,18.0,78,0.00,,,0.35,VWS V14.01,2013-06-06 18:39:00,
2013-06-06 14:40:00,77.6,70.6,29.78,WSW,247,16.5,16.5,79,0.00,,,0.35,VWS V14.01,2013-06-06 18:40:00,
2013-06-06 14:41:00,77.5,69.3,29.78,WSW,241,15.0,16.5,76,0.00,,,0.35,VWS V14.01,2013-06-06 18:41:00,
2013-06-06 14:42:00,77.5,69.3,29.78,SW,223,16.5,18.0,76,0.00,,,0.35,VWS V14.01,2013-06-06 18:42:00,
2013-06-06 14:43:00,77.4,69.6,29.78,WSW,246,13.5,18.0,77,0.00,,,0.35,VWS V14.01,2013-06-06 18:43:00,
2013-06-06 14:44:00,77.4,69.2,29.78,SSW,208,13.5,18.0,76,0.00,,,0.35,VWS V14.01,2013-06-06 18:44:00,
2013-06-06 14:45:00,77.6,69.8,29.78,SSW,208,10.5,15.0,77,0.00,,,0.35,VWS V14.01,2013-06-06 18:45:00,
2013-06-06 14:46:00,77.6,69.8,29.78,WSW,237,16.5,16.5,77,0.00,,,0.35,VWS V14.01,2013-06-06 18:46:00,
2013-06-06 14:47:00,77.7,69.5,29.78,WSW,254,15.0,22.5,76,0.00,,,0.35,VWS V14.01,2013-06-06 18:47:00,
2013-06-06 14:48:00,77.8,70.0,29.78,WSW,241,22.5,22.5,77,0.00,,,0.35,VWS V14.01,2013-06-06 18:48:00,
2013-06-06 14:49:00,77.8,70.0,29.78,WSW,258,9.0,22.5,77,0.00,,,0.35,VWS V14.01,2013-06-06 18:49:00,
2013-06-06 14:50:00,78.0,70.2,29.78,WSW,253,15.0,22.5,77,0.00,,,0.35,VWS V14.01,2013-06-06 18:50:00,
2013-06-06 14:51:00,78.1,69.1,29.78,West,275,10.5,18.0,74,0.00,,,0.35,VWS V14.01,2013-06-06 18:51:00,
2013-06-06 14:52:00,78.1,68.8,29.78,SSW,212,13.5,18.0,73,0.00,,,0.35,VWS V14.01,2013-06-06 18:52:00,
2013-06-06 14:53:00,78.1,69.1,29.78,North,11,7.5,18.0,74,0.00,,,0.35,VWS V14.01,2013-06-06 18:53:00,
2013-06-06 14:54:00,78.2,69.2,29.78,WSW,255,9.0,16.5,74,0.00,,,0.35,VWS V14.01,2013-06-06 18:54:00,
2013-06-06 14:55:00,78.4,69.4,29.78,WSW,252,6.0,13.5,74,0.00,,,0.35,VWS V14.01,2013-06-06 18:55:00,
2013-06-06 14:56:00,78.5,69.9,29.78,WNW,285,7.5,12.0,75,0.00,,,0.35,VWS V14.01,2013-06-06 18:56:00,
2013-06-06 14:57:00,78.7,70.1,29.78,WSW,252,9.0,12.0,75,0.00,,,0.35,VWS V14.01,2013-06-06 18:57:00,
2013-06-06 14:58:00,78.9,70.3,29.78,WNW,285,10.5,13.5,75,0.00,,,0.35,VWS V14.01,2013-06-06 18:58:00,
2013-06-06 14:59:00,78.9,69.9,29.78,SW,232,12.0,13.5,74,0.00,,,0.35,VWS V14.01,2013-06-06 18:59:00,
2013-06-06 15:00:00,78.9,69.9,29.78,WSW,255,6.0,15.0,74,0.00,,,0.35,VWS V14.01,2013-06-06 19:00:00,
2013-06-06 15:01:00,79.0,70.4,29.78,SW,223,10.5,15.0,75,0.00,,,0.35,VWS V14.01,2013-06-06 19:01:00,
2013-06-06 15:02:00,78.7,69.3,29.78,WSW,253,9.0,13.5,73,0.00,,,0.35,VWS V14.01,2013-06-06 19:02:00,
2013-06-06 15:03:00,78.7,69.3,29.78,WSW,253,9.0,13.5,73,0.00,,,0.35,VWS V14.01,2013-06-06 19:03:00,
2013-06-06 15:04:00,78.5,69.1,29.78,West,278,3.0,12.0,73,0.00,,,0.35,VWS V14.01,2013-06-06 19:04:00,
2013-06-06 15:05:00,78.4,69.0,29.77,WNW,285,4.5,9.0,73,0.00,,,0.35,VWS V14.01,2013-06-06 19:05:00,
2013-06-06 15:06:00,78.3,69.3,29.77,NW,310,7.5,9.0,74,0.00,,,0.35,VWS V14.01,2013-06-06 19:06:00,
2013-06-06 15:07:00,78.2,69.2,29.77,WNW,282,6.0,12.0,74,0.00,,,0.35,VWS V14.01,2013-06-06 19:07:00,
2013-06-06 15:08:00,78.2,69.2,29.77,WNW,282,6.0,12.0,74,0.00,,,0.35,VWS V14.01,2013-06-06 19:08:00,
2013-06-06 15:09:00,78.2,68.8,29.78,WSW,238,10.5,10.5,73,0.00,,,0.35,VWS V14.01,2013-06-06 19:09:00,
2013-06-06 15:10:00,78.1,69.1,29.78,WSW,248,10.5,12.0,74,0.00,,,0.35,VWS V14.01,2013-06-06 19:10:00,
2013-06-06 15:11:00,78.0,68.7,29.78,West,259,10.5,13.5,73,0.00,,,0.35,VWS V14.01,2013-06-06 19:11:00,
2013-06-06 15:12:00,77.8,68.5,29.78,WSW,244,9.0,10.5,73,0.00,,,0.35,VWS V14.01,2013-06-06 19:12:00,
2013-06-06 15:13:00,77.8,68.5,29.78,WSW,244,9.0,10.5,73,0.00,,,0.35,VWS V14.01,2013-06-06 19:13:00,
2013-06-06 15:14:00,77.8,68.9,29.77,WSW,244,9.0,10.5,74,0.00,,,0.35,VWS V14.01,2013-06-06 19:14:00,
2013-06-06 15:15:00,77.7,68.4,29.77,West,279,13.5,13.5,73,0.00,,,0.35,VWS V14.01,2013-06-06 19:15:00,
2013-06-06 15:16:00,77.7,68.4,29.77,West,278,7.5,13.5,73,0.00,,,0.35,VWS V14.01,2013-06-06 19:16:00,
2013-06-06 15:17:00,77.6,68.7,29.78,NW,305,4.5,10.5,74,0.00,,,0.35,VWS V14.01,2013-06-06 19:17:00,
2013-06-06 15:18:00,77.6,68.7,29.78,NW,305,4.5,10.5,74,0.00,,,0.35,VWS V14.01,2013-06-06 19:18:00,
2013-06-06 15:19:00,77.6,69.1,29.77,North,6,6.0,9.0,75,0.00,,,0.35,VWS V14.01,2013-06-06 19:19:00,
2013-06-06 15:20:00,77.6,69.1,29.78,NW,316,6.0,7.5,75,0.00,,,0.35,VWS V14.01,2013-06-06 19:20:00,
2013-06-06 15:21:00,77.6,69.1,29.77,NW,310,7.5,10.5,75,0.00,,,0.35,VWS V14.01,2013-06-06 19:21:00,
2013-06-06 15:22:00,77.4,69.2,29.77,West,280,7.5,10.5,76,0.00,,,0.35,VWS V14.01,2013-06-06 19:22:00,
2013-06-06 15:23:00,77.4,69.2,29.77,West,280,7.5,10.5,76,0.00,,,0.35,VWS V14.01,2013-06-06 19:23:00,
2013-06-06 15:24:00,77.3,69.2,29.77,WNW,293,7.5,10.5,76,0.00,,,0.35,VWS V14.01,2013-06-06 19:24:00,
2013-06-06 15:25:00,77.2,69.1,29.78,West,265,7.5,9.0,76,0.00,,,0.35,VWS V14.01,2013-06-06 19:25:00,
2013-06-06 15:26:00,77.0,69.2,29.78,WNW,291,9.0,9.0,77,0.00,,,0.35,VWS V14.01,2013-06-06 19:26:00,
2013-06-06 15:27:00,76.9,69.2,29.78,West,262,6.0,12.0,77,0.00,,,0.35,VWS V14.01,2013-06-06 19:27:00,
2013-06-06 15:28:00,76.9,69.2,29.78,West,262,6.0,12.0,77,0.00,,,0.35,VWS V14.01,2013-06-06 19:28:00,
2013-06-06 15:29:00,76.7,68.9,29.78,NW,319,6.0,12.0,77,0.00,,,0.35,VWS V14.01,2013-06-06 19:29:00,
2013-06-06 15:30:00,76.6,69.2,29.78,WNW,286,4.5,12.0,78,0.00,,,0.35,VWS V14.01,2013-06-06 19:30:00,
2013-06-06 15:31:00,76.6,69.2,29.77,NW,310,9.0,12.0,78,0.00,,,0.35,VWS V14.01,2013-06-06 19:31:00,
2013-06-06 15:32:00,76.5,69.1,29.78,NW,315,3.0,12.0,78,0.00,,,0.35,VWS V14.01,2013-06-06 19:32:00,
2013-06-06 15:33:00,76.5,69.9,29.78,WNW,284,6.0,10.5,80,0.00,,,0.35,VWS V14.01,2013-06-06 19:33:00,
2013-06-06 15:34:00,76.5,69.5,29.78,West,278,10.5,10.5,79,0.00,,,0.35,VWS V14.01,2013-06-06 19:34:00,
2013-06-06 15:35:00,76.4,69.4,29.78,WSW,253,6.0,10.5,79,0.00,,,0.35,VWS V14.01,2013-06-06 19:35:00,
2013-06-06 15:36:00,76.3,69.3,29.77,West,262,6.0,10.5,79,0.00,,,0.35,VWS V14.01,2013-06-06 19:36:00,
2013-06-06 15:37:00,76.3,69.7,29.77,West,271,4.5,10.5,80,0.00,,,0.35,VWS V14.01,2013-06-06 19:37:00,
2013-06-06 15:38:00,76.3,69.7,29.77,WNW,299,7.5,9.0,80,0.00,,,0.35,VWS V14.01,2013-06-06 19:38:00,
2013-06-06 15:39:00,76.4,69.8,29.77,WNW,296,4.5,9.0,80,0.00,,,0.35,VWS V14.01,2013-06-06 19:39:00,
2013-06-06 15:40:00,76.5,70.6,29.77,WSW,244,3.0,9.0,82,0.00,,,0.35,VWS V14.01,2013-06-06 19:40:00,
2013-06-06 15:41:00,76.7,69.7,29.77,WSW,250,10.5,10.5,79,0.00,,,0.35,VWS V14.01,2013-06-06 19:41:00,
2013-06-06 15:42:00,76.9,69.5,29.77,WNW,282,7.5,10.5,78,0.00,,,0.35,VWS V14.01,2013-06-06 19:42:00,
2013-06-06 15:43:00,77.0,69.6,29.77,West,279,6.0,12.0,78,0.00,,,0.35,VWS V14.01,2013-06-06 19:43:00,
2013-06-06 15:44:00,77.2,69.4,29.77,West,261,9.0,12.0,77,0.00,,,0.35,VWS V14.01,2013-06-06 19:44:00,
2013-06-06 15:45:00,77.4,70.0,29.77,WSW,246,9.0,12.0,78,0.00,,,0.35,VWS V14.01,2013-06-06 19:45:00,
2013-06-06 15:46:00,77.5,69.3,29.77,WSW,238,7.5,12.0,76,0.00,,,0.35,VWS V14.01,2013-06-06 19:46:00,
2013-06-06 15:47:00,77.6,69.8,29.77,SW,217,18.0,18.0,77,0.00,,,0.35,VWS V14.01,2013-06-06 19:47:00,
2013-06-06 15:48:00,77.8,69.6,29.77,WSW,243,13.5,18.0,76,0.00,,,0.35,VWS V14.01,2013-06-06 19:48:00,
2013-06-06 15:49:00,77.9,69.7,29.77,WSW,248,7.5,16.5,76,0.00,,,0.35,VWS V14.01,2013-06-06 19:49:00,
2013-06-06 15:50:00,78.1,69.9,29.77,West,269,4.5,12.0,76,0.00,,,0.35,VWS V14.01,2013-06-06 19:50:00,
2013-06-06 15:51:00,78.3,70.1,29.77,NW,319,10.5,12.0,76,0.00,,,0.35,VWS V14.01,2013-06-06 19:51:00,
2013-06-06 15:52:00,78.4,69.4,29.77,West,260,12.0,12.0,74,0.00,,,0.35,VWS V14.01,2013-06-06 19:52:00,
2013-06-06 15:53:00,78.4,69.0,29.77,WNW,287,13.5,16.5,73,0.00,,,0.35,VWS V14.01,2013-06-06 19:53:00,
2013-06-06 15:54:00,78.3,68.5,29.77,West,262,9.0,16.5,72,0.00,,,0.35,VWS V14.01,2013-06-06 19:54:00,
2013-06-06 15:55:00,78.2,68.4,29.77,WSW,252,7.5,16.5,72,0.00,,,0.35,VWS V14.01,2013-06-06 19:55:00,
2013-06-06 15:56:00,78.2,68.8,29.77,WSW,251,4.5,13.5,73,0.00,,,0.35,VWS V14.01,2013-06-06 19:56:00,
2013-06-06 15:57:00,78.2,68.4,29.77,West,271,7.5,12.0,72,0.00,,,0.35,VWS V14.01,2013-06-06 19:57:00,
2013-06-06 15:58:00,78.3,68.9,29.77,WSW,255,7.5,12.0,73,0.00,,,0.35,VWS V14.01,2013-06-06 19:58:00,
2013-06-06 15:59:00,78.4,68.6,29.78,SW,222,7.5,10.5,72,0.00,,,0.35,VWS V14.01,2013-06-06 19:59:00,
2013-06-06 16:00:00,78.5,68.7,29.78,WNW,291,6.0,10.5,72,0.00,,,0.35,VWS V14.01,2013-06-06 20:00:00,
2013-06-06 16:01:00,78.7,68.5,29.77,West,269,4.5,9.0,71,0.00,,,0.35,VWS V14.01,2013-06-06 20:01:00,
2013-06-06 16:02:00,78.8,68.2,29.77,WNW,291,13.5,13.5,70,0.00,,,0.35,VWS V14.01,2013-06-06 20:02:00,
2013-06-06 16:03:00,78.9,68.3,29.77,WNW,285,9.0,13.5,70,0.00,,,0.35,VWS V14.01,2013-06-06 20:03:00,
2013-06-06 16:04:00,78.9,67.4,29.77,West,264,9.0,12.0,68,0.00,,,0.35,VWS V14.01,2013-06-06 20:04:00,
2013-06-06 16:05:00,79.0,67.1,29.78,WNW,285,10.5,10.5,67,0.00,,,0.35,VWS V14.01,2013-06-06 20:05:00,
2013-06-06 16:06:00,78.9,67.0,29.77,WNW,291,7.5,13.5,67,0.00,,,0.35,VWS V14.01,2013-06-06 20:06:00,
2013-06-06 16:07:00,79.0,67.1,29.77,SW,220,7.5,15.0,67,0.00,,,0.35,VWS V14.01,2013-06-06 20:07:00,
2013-06-06 16:08:00,78.9,66.6,29.77,West,266,10.5,15.0,66,0.00,,,0.35,VWS V14.01,2013-06-06 20:08:00,
2013-06-06 16:09:00,78.9,66.6,29.77,WSW,253,9.0,12.0,66,0.00,,,0.35,VWS V14.01,2013-06-06 20:09:00,
2013-06-06 16:10:00,78.8,66.5,29.77,WNW,286,6.0,13.5,66,0.00,,,0.35,VWS V14.01,2013-06-06 20:10:00,
2013-06-06 16:11:00,78.8,66.5,29.77,WSW,258,7.5,16.5,66,0.00,,,0.35,VWS V14.01,2013-06-06 20:11:00,
2013-06-06 16:12:00,78.7,66.0,29.77,West,276,4.5,16.5,65,0.00,,,0.35,VWS V14.01,2013-06-06 20:12:00,
2013-06-06 16:13:00,78.7,66.0,29.77,WSW,239,4.5,10.5,65,0.00,,,0.35,VWS V14.01,2013-06-06 20:13:00,
2013-06-06 16:14:00,78.7,66.4,29.77,West,278,6.0,10.5,66,0.00,,,0.35,VWS V14.01,2013-06-06 20:14:00,
2013-06-06 16:15:00,78.8,66.1,29.77,West,264,6.0,7.5,65,0.00,,,0.35,VWS V14.01,2013-06-06 20:15:00,
2013-06-06 16:16:00,78.7,66.0,29.77,WNW,296,9.0,13.5,65,0.00,,,0.35,VWS V14.01,2013-06-06 20:16:00,
2013-06-06 16:17:00,78.7,66.4,29.77,West,276,4.5,13.5,66,0.00,,,0.35,VWS V14.01,2013-06-06 20:17:00,
2013-06-06 16:18:00,78.8,66.5,29.77,WNW,284,9.0,9.0,66,0.00,,,0.35,VWS V14.01,2013-06-06 20:18:00,
2013-06-06 16:19:00,78.8,66.5,29.77,West,278,9.0,10.5,66,0.00,,,0.35,VWS V14.01,2013-06-06 20:19:00,
2013-06-06 16:20:00,78.8,66.5,29.77,West,262,9.0,13.5,66,0.00,,,0.35,VWS V14.01,2013-06-06 20:20:00,
2013-06-06 16:21:00,78.7,65.1,29.77,West,271,10.5,13.5,63,0.00,,,0.35,VWS V14.01,2013-06-06 20:21:00,
2013-06-06 16:22:00,78.7,65.5,29.78,WSW,246,12.0,12.0,64,0.00,,,0.35,VWS V14.01,2013-06-06 20:22:00,
2013-06-06 16:23:00,78.6,65.4,29.78,WNW,285,7.5,12.0,64,0.00,,,0.35,VWS V14.01,2013-06-06 20:23:00,
2013-06-06 16:24:00,78.6,65.4,29.78,NW,312,7.5,10.5,64,0.00,,,0.35,VWS V14.01,2013-06-06 20:24:00,
2013-06-06 16:25:00,78.7,66.0,29.78,WSW,250,4.5,10.5,65,0.00,,,0.35,VWS V14.01,2013-06-06 20:25:00,
2013-06-06 16:26:00,78.7,66.4,29.77,West,273,6.0,7.5,66,0.00,,,0.35,VWS V14.01,2013-06-06 20:26:00,
2013-06-06 16:27:00,78.8,66.1,29.77,WNW,296,3.0,7.5,65,0.00,,,0.35,VWS V14.01,2013-06-06 20:27:00,
2013-06-06 16:28:00,78.9,66.6,29.77,WNW,302,4.5,7.5,66,0.00,,,0.35,VWS V14.01,2013-06-06 20:28:00,
2013-06-06 16:29:00,79.1,67.2,29.77,NNW,330,7.5,9.0,67,0.00,,,0.35,VWS V14.01,2013-06-06 20:29:00,
2013-06-06 16:30:00,79.2,66.9,29.77,SW,216,7.5,10.5,66,0.00,,,0.35,VWS V14.01,2013-06-06 20:30:00,
2013-06-06 16:31:00,79.2,66.9,29.77,SW,230,9.0,10.5,66,0.00,,,0.35,VWS V14.01,2013-06-06 20:31:00,
2013-06-06 16:32:00,79.2,66.9,29.77,WSW,241,4.5,12.0,66,0.00,,,0.35,VWS V14.01,2013-06-06 20:32:00,
2013-06-06 16:33:00,79.2,67.3,29.77,West,278,6.0,12.0,67,0.00,,,0.35,VWS V14.01,2013-06-06 20:33:00,
2013-06-06 16:34:00,79.2,66.4,29.77,West,260,10.5,18.0,65,0.00,,,0.35,VWS V14.01,2013-06-06 20:34:00,
2013-06-06 16:35:00,79.2,66.9,29.77,WSW,258,10.5,18.0,66,0.00,,,0.35,VWS V14.01,2013-06-06 20:35:00,
2013-06-06 16:36:00,79.2,67.3,29.77,NW,308,7.5,12.0,67,0.00,,,0.35,VWS V14.01,2013-06-06 20:36:00,
2013-06-06 16:37:00,79.4,67.5,29.77,WSW,244,7.5,10.5,67,0.00,,,0.35,VWS V14.01,2013-06-06 20:37:00,
2013-06-06 16:38:00,79.5,68.0,29.77,WSW,243,10.5,10.5,68,0.00,,,0.35,VWS V14.01,2013-06-06 20:38:00,
2013-06-06 16:39:00,79.6,67.2,29.77,West,264,9.0,10.5,66,0.00,,,0.35,VWS V14.01,2013-06-06 20:39:00,
2013-06-06 16:40:00,79.6,66.8,29.77,SW,229,12.0,12.0,65,0.00,,,0.35,VWS V14.01,2013-06-06 20:40:00,
2013-06-06 16:41:00,79.7,67.8,29.77,WSW,243,13.5,13.5,67,0.00,,,0.35,VWS V14.01,2013-06-06 20:41:00,
2013-06-06 16:42:00,79.7,67.3,29.77,WSW,239,9.0,13.5,66,0.00,,,0.35,VWS V14.01,2013-06-06 20:42:00,
2013-06-06 16:43:00,79.8,67.4,29.77,SW,231,7.5,15.0,66,0.00,,,0.35,VWS V14.01,2013-06-06 20:43:00,
2013-06-06 16:44:00,79.8,66.6,29.77,NW,312,16.5,18.0,64,0.00,,,0.35,VWS V14.01,2013-06-06 20:44:00,
2013-06-06 16:45:00,79.7,66.5,29.77,WSW,238,10.5,18.0,64,0.00,,,0.35,VWS V14.01,2013-06-06 20:45:00,
2013-06-06 16:46:00,79.7,66.5,29.77,West,267,12.0,16.5,64,0.00,,,0.35,VWS V14.01,2013-06-06 20:46:00,
2013-06-06 16:47:00,79.6,65.9,29.77,West,269,10.5,16.5,63,0.00,,,0.35,VWS V14.01,2013-06-06 20:47:00,
2013-06-06 16:48:00,79.6,66.4,29.77,West,275,9.0,15.0,64,0.00,,,0.35,VWS V14.01,2013-06-06 20:48:00,
2013-06-06 16:49:00,79.5,66.3,29.77,NW,313,9.0,13.5,64,0.00,,,0.35,VWS V14.01,2013-06-06 20:49:00,
2013-06-06 16:50:00,79.5,66.7,29.77,WNW,289,4.5,13.5,65,0.00,,,0.35,VWS V14.01,2013-06-06 20:50:00,
2013-06-06 16:51:00,79.4,66.2,29.77,West,267,7.5,10.5,64,0.00,,,0.35,VWS V14.01,2013-06-06 20:51:00,
2013-06-06 16:52:00,79.4,66.6,29.77,North,2,10.5,10.5,65,0.00,,,0.35,VWS V14.01,2013-06-06 20:52:00,
2013-06-06 16:53:00,79.4,66.2,29.77,WNW,302,4.5,12.0,64,0.00,,,0.35,VWS V14.01,2013-06-06 20:53:00,
2013-06-06 16:54:00,79.4,66.6,29.77,WNW,291,6.0,12.0,65,0.00,,,0.35,VWS V14.01,2013-06-06 20:54:00,
2013-06-06 16:55:00,79.5,67.2,29.77,NW,310,6.0,12.0,66,0.00,,,0.35,VWS V14.01,2013-06-06 20:55:00,
2013-06-06 16:56:00,79.7,66.9,29.77,WNW,303,3.0,12.0,65,0.00,,,0.35,VWS V14.01,2013-06-06 20:56:00,
2013-06-06 16:57:00,79.9,66.6,29.77,NW,315,7.5,12.0,64,0.00,,,0.35,VWS V14.01,2013-06-06 20:57:00,
2013-06-06 16:58:00,80.0,66.7,29.77,WNW,296,9.0,12.0,64,0.00,,,0.35,VWS V14.01,2013-06-06 20:58:00,
2013-06-06 16:59:00,80.1,66.8,29.77,West,269,6.0,12.0,64,0.00,,,0.35,VWS V14.01,2013-06-06 20:59:00,
2013-06-06 17:00:00,80.2,67.4,29.77,NW,321,9.0,15.0,65,0.00,,,0.35,VWS V14.01,2013-06-06 21:00:00,
2013-06-06 17:01:00,80.2,66.9,29.77,West,273,10.5,15.0,64,0.00,,,0.35,VWS V14.01,2013-06-06 21:01:00,
2013-06-06 17:02:00,80.1,66.8,29.77,WNW,288,6.0,15.0,64,0.00,,,0.35,VWS V14.01,2013-06-06 21:02:00,
2013-06-06 17:03:00,80.0,67.2,29.77,WNW,291,10.5,15.0,65,0.00,,,0.35,VWS V14.01,2013-06-06 21:03:00,
2013-06-06 17:04:00,79.9,66.7,29.77,West,260,9.0,15.0,64,0.00,,,0.35,VWS V14.01,2013-06-06 21:04:00,
2013-06-06 17:05:00,79.8,67.0,29.77,NW,321,6.0,13.5,65,0.00,,,0.35,VWS V14.01,2013-06-06 21:05:00,
2013-06-06 17:06:00,79.8,67.0,29.77,SW,223,9.0,10.5,65,0.00,,,0.35,VWS V14.01,2013-06-06 21:06:00,
2013-06-06 17:07:00,79.7,67.3,29.77,WSW,246,10.5,12.0,66,0.00,,,0.35,VWS V14.01,2013-06-06 21:07:00,
2013-06-06 17:08:00,79.6,66.8,29.77,West,275,10.5,15.0,65,0.00,,,0.35,VWS V14.01,2013-06-06 21:08:00,
2013-06-06 17:09:00,79.4,66.6,29.77,WSW,252,9.0,15.0,65,0.00,,,0.35,VWS V14.01,2013-06-06 21:09:00,
2013-06-06 17:10:00,79.3,67.0,29.77,WSW,257,7.5,13.5,66,0.00,,,0.35,VWS V14.01,2013-06-06 21:10:00,
2013-06-06 17:11:00,79.2,66.9,29.77,West,264,7.5,18.0,66,0.00,,,0.35,VWS V14.01,2013-06-06 21:11:00,
2013-06-06 17:12:00,79.1,66.8,29.77,NW,319,4.5,18.0,66,0.00,,,0.35,VWS V14.01,2013-06-06 21:12:00,
2013-06-06 17:13:00,79.0,67.6,29.77,NW,319,6.0,12.0,68,0.00,,,0.35,VWS V14.01,2013-06-06 21:13:00,
2013-06-06 17:14:00,79.0,67.6,29.77,WNW,287,7.5,10.5,68,0.00,,,0.35,VWS V14.01,2013-06-06 21:14:00,
2013-06-06 17:15:00,78.9,67.9,29.77,West,276,6.0,10.5,69,0.00,,,0.35,VWS V14.01,2013-06-06 21:15:00,
2013-06-06 17:16:00,78.8,68.2,29.77,West,275,4.5,7.5,70,0.00,,,0.35,VWS V14.01,2013-06-06 21:16:00,
2013-06-06 17:17:00,78.8,68.6,29.77,WNW,298,9.0,9.0,71,0.00,,,0.35,VWS V14.01,2013-06-06 21:17:00,
2013-06-06 17:18:00,78.8,68.2,29.77,West,276,3.0,9.0,70,0.00,,,0.35,VWS V14.01,2013-06-06 21:18:00,
2013-06-06 17:19:00,78.8,68.2,29.76,NW,306,10.5,15.0,70,0.00,,,0.35,VWS V14.01,2013-06-06 21:19:00,
2013-06-06 17:20:00,78.6,68.0,29.76,WNW,292,6.0,15.0,70,0.00,,,0.35,VWS V14.01,2013-06-06 21:20:00,
2013-06-06 17:21:00,78.4,67.8,29.77,NW,321,6.0,13.5,70,0.00,,,0.35,VWS V14.01,2013-06-06 21:21:00,
2013-06-06 17:22:00,78.3,68.1,29.77,WNW,288,4.5,13.5,71,0.00,,,0.35,VWS V14.01,2013-06-06 21:22:00,
2013-06-06 17:23:00,78.1,67.9,29.76,NW,316,15.0,15.0,71,0.00,,,0.35,VWS V14.01,2013-06-06 21:23:00,
2013-06-06 17:24:00,78.1,67.9,29.76,NW,316,15.0,15.0,71,0.00,,,0.35,VWS V14.01,2013-06-06 21:24:00,
2013-06-06 17:25:00,77.9,67.8,29.76,NW,312,4.5,15.0,71,0.00,,,0.35,VWS V14.01,2013-06-06 21:25:00,
2013-06-06 17:26:00,77.8,67.7,29.76,West,260,3.0,13.5,71,0.00,,,0.35,VWS V14.01,2013-06-06 21:26:00,
2013-06-06 17:27:00,77.7,68.0,29.76,NNW,348,13.5,13.5,72,0.00,,,0.35,VWS V14.01,2013-06-06 21:27:00,
2013-06-06 17:28:00,77.6,67.9,29.76,WNW,300,10.5,18.0,72,0.00,,,0.35,VWS V14.01,2013-06-06 21:28:00,
2013-06-06 17:29:00,77.6,67.9,29.76,WNW,300,10.5,18.0,72,0.00,,,0.35,VWS V14.01,2013-06-06 21:29:00,
2013-06-06 17:30:00,77.5,67.8,29.76,NW,319,15.0,15.0,72,0.00,,,0.35,VWS V14.01,2013-06-06 21:30:00,
2013-06-06 17:31:00,77.4,67.3,29.77,West,274,10.5,15.0,71,0.00,,,0.35,VWS V14.01,2013-06-06 21:31:00,
2013-06-06 17:32:00,77.2,67.5,29.77,NNW,329,6.0,12.0,72,0.00,,,0.35,VWS V14.01,2013-06-06 21:32:00,
2013-06-06 17:33:00,77.1,67.8,29.77,West,265,3.0,16.5,73,0.00,,,0.35,VWS V14.01,2013-06-06 21:33:00,
2013-06-06 17:34:00,77.1,67.8,29.77,West,265,3.0,16.5,73,0.00,,,0.35,VWS V14.01,2013-06-06 21:34:00,
2013-06-06 17:35:00,77.1,67.8,29.77,West,279,7.5,13.5,73,0.00,,,0.35,VWS V14.01,2013-06-06 21:35:00,
2013-06-06 17:36:00,77.0,67.7,29.77,WNW,296,9.0,13.5,73,0.00,,,0.35,VWS V14.01,2013-06-06 21:36:00,
2013-06-06 17:37:00,77.1,67.8,29.77,WNW,302,4.5,9.0,73,0.00,,,0.35,VWS V14.01,2013-06-06 21:37:00,
2013-06-06 17:38:00,77.1,67.4,29.77,West,259,6.0,9.0,72,0.00,,,0.35,VWS V14.01,2013-06-06 21:38:00,
2013-06-06 17:39:00,77.1,67.4,29.77,West,269,10.5,10.5,72,0.00,,,0.35,VWS V14.01,2013-06-06 21:39:00,
2013-06-06 17:40:00,77.1,67.8,29.77,WNW,287,7.5,12.0,73,0.00,,,0.35,VWS V14.01,2013-06-06 21:40:00,
2013-06-06 17:41:00,77.1,67.4,29.77,WNW,285,9.0,12.0,72,0.00,,,0.35,VWS V14.01,2013-06-06 21:41:00,
2013-06-06 17:42:00,77.1,67.8,29.77,WNW,282,6.0,10.5,73,0.00,,,0.35,VWS V14.01,2013-06-06 21:42:00,
2013-06-06 17:43:00,77.2,67.9,29.77,NW,321,6.0,9.0,73,0.00,,,0.35,VWS V14.01,2013-06-06 21:43:00,
2013-06-06 17:44:00,77.2,67.9,29.77,NW,321,6.0,9.0,73,0.00,,,0.35,VWS V14.01,2013-06-06 21:44:00,
2013-06-06 17:45:00,77.2,67.5,29.77,West,278,4.5,10.5,72,0.00,,,0.35,VWS V14.01,2013-06-06 21:45:00,
2013-06-06 17:46:00,77.2,67.5,29.77,WSW,255,4.5,10.5,72,0.00,,,0.35,VWS V14.01,2013-06-06 21:46:00,
2013-06-06 17:47:00,77.3,68.0,29.77,WNW,291,4.5,9.0,73,0.00,,,0.35,VWS V14.01,2013-06-06 21:47:00,
2013-06-06 17:48:00,77.5,68.2,29.77,NW,307,6.0,6.0,73,0.00,,,0.35,VWS V14.01,2013-06-06 21:48:00,
2013-06-06 17:49:00,77.5,68.2,29.77,WNW,293,4.5,6.0,73,0.00,,,0.35,VWS V14.01,2013-06-06 21:49:00,
2013-06-06 17:50:00,77.5,68.2,29.77,WNW,299,9.0,10.5,73,0.00,,,0.35,VWS V14.01,2013-06-06 21:50:00,
2013-06-06 17:51:00,77.6,67.5,29.77,WNW,285,6.0,10.5,71,0.00,,,0.35,VWS V14.01,2013-06-06 21:51:00,
2013-06-06 17:52:00,77.6,67.9,29.77,NW,310,6.0,7.5,72,0.00,,,0.35,VWS V14.01,2013-06-06 21:52:00,
2013-06-06 17:53:00,77.6,67.9,29.77,North,359,4.5,6.0,72,0.00,,,0.35,VWS V14.01,2013-06-06 21:53:00,
2013-06-06 17:54:00,77.6,67.9,29.77,North,359,4.5,6.0,72,0.00,,,0.35,VWS V14.01,2013-06-06 21:54:00,
2013-06-06 17:55:00,77.7,67.6,29.77,WNW,296,7.5,9.0,71,0.00,,,0.35,VWS V14.01,2013-06-06 21:55:00,
2013-06-06 17:56:00,77.8,67.7,29.77,NW,316,7.5,10.5,71,0.00,,,0.35,VWS V14.01,2013-06-06 21:56:00,
2013-06-06 17:57:00,77.8,68.1,29.77,WNW,291,7.5,10.5,72,0.00,,,0.35,VWS V14.01,2013-06-06 21:57:00,
2013-06-06 17:58:00,77.9,67.8,29.77,NW,312,7.5,9.0,71,0.00,,,0.35,VWS V14.01,2013-06-06 21:58:00,
2013-06-06 17:59:00,77.9,67.8,29.77,NW,312,7.5,9.0,71,0.00,,,0.35,VWS V14.01,2013-06-06 21:59:00,
2013-06-06 18:00:00,78.0,67.0,29.77,NW,305,4.5,12.0,69,0.00,,,0.35,VWS V14.01,2013-06-06 22:00:00,
2013-06-06 18:01:00,78.0,67.4,29.77,NE,49,3.0,12.0,70,0.00,,,0.35,VWS V14.01,2013-06-06 22:01:00,
2013-06-06 18:02:00,78.1,67.5,29.77,NNE,19,6.0,6.0,70,0.00,,,0.35,VWS V14.01,2013-06-06 22:02:00,
2013-06-06 18:03:00,78.3,68.1,29.77,West,272,7.5,9.0,71,0.00,,,0.35,VWS V14.01,2013-06-06 22:03:00,
2013-06-06 18:04:00,78.3,68.1,29.77,North,2,6.0,9.0,71,0.00,,,0.35,VWS V14.01,2013-06-06 22:04:00,
2013-06-06 18:05:00,78.5,68.7,29.77,WNW,300,4.5,7.5,72,0.00,,,0.35,VWS V14.01,2013-06-06 22:05:00,
2013-06-06 18:06:00,78.7,68.1,29.77,WNW,299,3.0,7.5,70,0.00,,,0.35,VWS V14.01,2013-06-06 22:06:00,
2013-06-06 18:07:00,78.8,68.2,29.77,West,279,7.5,7.5,70,0.00,,,0.35,VWS V14.01,2013-06-06 22:07:00,
2013-06-06 18:08:00,78.7,67.7,29.77,West,279,4.5,10.5,69,0.00,,,0.35,VWS V14.01,2013-06-06 22:08:00,
2013-06-06 18:09:00,78.7,67.7,29.77,WNW,285,6.0,10.5,69,0.00,,,0.35,VWS V14.01,2013-06-06 22:09:00,
2013-06-06 18:10:00,78.7,67.7,29.77,West,267,3.0,6.0,69,0.00,,,0.35,VWS V14.01,2013-06-06 22:10:00,
2013-06-06 18:11:00,78.8,68.2,29.77,North,350,6.0,6.0,70,0.00,,,0.35,VWS V14.01,2013-06-06 22:11:00,
2013-06-06 18:12:00,78.9,68.3,29.77,NW,321,7.5,7.5,70,0.00,,,0.35,VWS V14.01,2013-06-06 22:12:00,
2013-06-06 18:13:00,78.9,67.4,29.77,WNW,292,6.0,9.0,68,0.00,,,0.35,VWS V14.01,2013-06-06 22:13:00,
2013-06-06 18:14:00,78.9,67.4,29.77,NW,321,4.5,9.0,68,0.00,,,0.35,VWS V14.01,2013-06-06 22:14:00,
2013-06-06 18:15:00,78.8,67.4,29.77,NW,308,4.5,10.5,68,0.00,,,0.35,VWS V14.01,2013-06-06 22:15:00,
2013-06-06 18:16:00,78.7,67.3,29.77,North,360,3.0,10.5,68,0.00,,,0.35,VWS V14.01,2013-06-06 22:16:00,
2013-06-06 18:17:00,78.7,67.7,29.77,NNW,338,7.5,7.5,69,0.00,,,0.35,VWS V14.01,2013-06-06 22:17:00,
2013-06-06 18:18:00,78.8,67.8,29.77,NNW,332,9.0,10.5,69,0.00,,,0.35,VWS V14.01,2013-06-06 22:18:00,
2013-06-06 18:19:00,78.8,66.9,29.77,North,354,9.0,10.5,67,0.00,,,0.35,VWS V14.01,2013-06-06 22:19:00,
2013-06-06 18:20:00,78.7,67.3,29.77,NW,324,6.0,10.5,68,0.00,,,0.35,VWS V14.01,2013-06-06 22:20:00,
2013-06-06 18:21:00,78.7,66.8,29.77,NW,324,10.5,10.5,67,0.00,,,0.35,VWS V14.01,2013-06-06 22:21:00,
2013-06-06 18:22:00,78.5,66.6,29.77,NW,324,6.0,10.5,67,0.00,,,0.35,VWS V14.01,2013-06-06 22:22:00,
2013-06-06 18:23:00,78.4,67.0,29.77,NNW,345,6.0,9.0,68,0.00,,,0.35,VWS V14.01,2013-06-06 22:23:00,
2013-06-06 18:24:00,78.4,67.0,29.77,NNW,346,4.5,9.0,68,0.00,,,0.35,VWS V14.01,2013-06-06 22:24:00,
2013-06-06 18:25:00,78.4,67.0,29.77,NW,310,4.5,9.0,68,0.00,,,0.35,VWS V14.01,2013-06-06 22:25:00,
2013-06-06 18:26:00,78.4,67.0,29.77,North,352,4.5,7.5,68,0.00,,,0.35,VWS V14.01,2013-06-06 22:26:00,
2013-06-06 18:27:00,78.4,67.0,29.77,North,7,3.0,6.0,68,0.00,,,0.35,VWS V14.01,2013-06-06 22:27:00,
2013-06-06 18:28:00,78.5,67.1,29.77,ENE,60,4.5,7.5,68,0.00,,,0.35,VWS V14.01,2013-06-06 22:28:00,
2013-06-06 18:29:00,78.5,67.1,29.77,ENE,65,3.0,7.5,68,0.00,,,0.35,VWS V14.01,2013-06-06 22:29:00,
2013-06-06 18:30:00,78.5,67.5,29.77,North,356,4.5,7.5,69,0.00,,,0.35,VWS V14.01,2013-06-06 22:30:00,
2013-06-06 18:31:00,78.6,67.2,29.76,NNW,334,4.5,7.5,68,0.00,,,0.35,VWS V14.01,2013-06-06 22:31:00,
2013-06-06 18:32:00,78.5,67.9,29.77,NNE,16,4.5,4.5,70,0.00,,,0.35,VWS V14.01,2013-06-06 22:32:00,
2013-06-06 18:33:00,78.6,68.0,29.77,East,89,4.5,7.5,70,0.00,,,0.35,VWS V14.01,2013-06-06 22:33:00,
2013-06-06 18:34:00,78.6,68.0,29.77,East,87,3.0,7.5,70,0.00,,,0.35,VWS V14.01,2013-06-06 22:34:00,
2013-06-06 18:35:00,78.5,67.9,29.77,North,3,7.5,13.5,70,0.00,,,0.35,VWS V14.01,2013-06-06 22:35:00,
2013-06-06 18:36:00,78.4,67.4,29.77,NE,35,4.5,13.5,69,0.00,,,0.35,VWS V14.01,2013-06-06 22:36:00,
2013-06-06 18:37:00,78.3,67.3,29.76,NNE,25,4.5,10.5,69,0.00,,,0.35,VWS V14.01,2013-06-06 22:37:00,
2013-06-06 18:38:00,78.1,67.5,29.76,North,355,4.5,9.0,70,0.00,,,0.35,VWS V14.01,2013-06-06 22:38:00,
2013-06-06 18:39:00,78.1,67.5,29.76,North,357,3.0,9.0,70,0.00,,,0.35,VWS V14.01,2013-06-06 22:39:00,
2013-06-06 18:40:00,78.1,67.5,29.76,NNW,345,9.0,9.0,70,0.00,,,0.35,VWS V14.01,2013-06-06 22:40:00,
2013-06-06 18:41:00,78.1,67.5,29.76,NNE,31,4.5,9.0,70,0.00,,,0.35,VWS V14.01,2013-06-06 22:41:00,
2013-06-06 18:42:00,78.1,67.5,29.76,North,5,10.5,10.5,70,0.00,,,0.35,VWS V14.01,2013-06-06 22:42:00,
2013-06-06 18:43:00,78.1,67.5,29.76,NW,326,3.0,10.5,70,0.00,,,0.35,VWS V14.01,2013-06-06 22:43:00,
2013-06-06 18:44:00,78.1,67.5,29.76,ENE,59,4.5,10.5,70,0.00,,,0.35,VWS V14.01,2013-06-06 22:44:00,
2013-06-06 18:45:00,78.2,67.6,29.76,ENE,67,3.0,7.5,70,0.00,,,0.35,VWS V14.01,2013-06-06 22:45:00,
2013-06-06 18:46:00,78.3,67.7,29.76,NNW,343,9.0,9.0,70,0.00,,,0.35,VWS V14.01,2013-06-06 22:46:00,
2013-06-06 18:47:00,78.3,67.3,29.76,NE,53,6.0,9.0,69,0.00,,,0.35,VWS V14.01,2013-06-06 22:47:00,
2013-06-06 18:48:00,78.4,67.4,29.76,ENE,70,4.5,10.5,69,0.00,,,0.35,VWS V14.01,2013-06-06 22:48:00,
2013-06-06 18:49:00,78.3,67.3,29.76,ENE,77,4.5,10.5,69,0.00,,,0.35,VWS V14.01,2013-06-06 22:49:00,
2013-06-06 18:50:00,78.4,67.4,29.76,NNE,33,4.5,9.0,69,0.00,,,0.35,VWS V14.01,2013-06-06 22:50:00,
2013-06-06 18:51:00,78.4,67.8,29.76,ENE,71,3.0,6.0,70,0.00,,,0.35,VWS V14.01,2013-06-06 22:51:00,
2013-06-06 18:52:00,78.5,67.9,29.76,NNW,332,3.0,7.5,70,0.00,,,0.35,VWS V14.01,2013-06-06 22:52:00,
2013-06-06 18:53:00,78.6,68.0,29.76,NE,52,7.5,9.0,70,0.00,,,0.35,VWS V14.01,2013-06-06 22:53:00,
2013-06-06 18:54:00,78.6,68.0,29.76,North,355,6.0,9.0,70,0.00,,,0.35,VWS V14.01,2013-06-06 22:54:00,
2013-06-06 18:55:00,78.6,67.6,29.76,North,3,4.5,10.5,69,0.00,,,0.35,VWS V14.01,2013-06-06 22:55:00,
2013-06-06 18:56:00,78.6,67.6,29.76,North,350,6.0,10.5,69,0.00,,,0.35,VWS V14.01,2013-06-06 22:56:00,
2013-06-06 18:57:00,78.6,68.0,29.76,NW,324,6.0,10.5,70,0.00,,,0.35,VWS V14.01,2013-06-06 22:57:00,
2013-06-06 18:58:00,78.6,68.0,29.76,WNW,298,6.0,10.5,70,0.00,,,0.35,VWS V14.01,2013-06-06 22:58:00,
2013-06-06 18:59:00,78.5,67.9,29.76,WNW,300,4.5,9.0,70,0.00,,,0.35,VWS V14.01,2013-06-06 22:59:00,
2013-06-06 19:00:00,78.5,67.5,29.76,NW,312,7.5,9.0,69,0.00,,,0.35,VWS V14.01,2013-06-06 23:00:00,
2013-06-06 19:01:00,78.5,67.5,29.76,WNW,300,3.0,9.0,69,0.00,,,0.35,VWS V14.01,2013-06-06 23:01:00,
2013-06-06 19:02:00,78.5,67.5,29.76,WNW,299,1.5,9.0,69,0.00,,,0.35,VWS V14.01,2013-06-06 23:02:00,
2013-06-06 19:03:00,78.7,66.8,29.76,NNW,347,3.0,9.0,67,0.00,,,0.35,VWS V14.01,2013-06-06 23:03:00,
2013-06-06 19:04:00,78.7,66.8,29.76,NW,305,4.5,9.0,67,0.00,,,0.35,VWS V14.01,2013-06-06 23:04:00,
2013-06-06 19:05:00,78.7,67.3,29.76,NW,321,3.0,9.0,68,0.00,,,0.35,VWS V14.01,2013-06-06 23:05:00,
2013-06-06 19:06:00,78.7,67.3,29.76,WNW,287,9.0,9.0,68,0.00,,,0.35,VWS V14.01,2013-06-06 23:06:00,
2013-06-06 19:07:00,78.7,66.8,29.76,NNE,12,6.0,9.0,67,0.00,,,0.35,VWS V14.01,2013-06-06 23:07:00,
2013-06-06 19:08:00,78.6,66.7,29.76,North,359,3.0,15.0,67,0.00,,,0.35,VWS V14.01,2013-06-06 23:08:00,
2013-06-06 19:09:00,78.6,67.2,29.76,North,359,6.0,15.0,68,0.00,,,0.35,VWS V14.01,2013-06-06 23:09:00,
2013-06-06 19:10:00,78.5,67.1,29.77,NW,312,7.5,10.5,68,0.00,,,0.35,VWS V14.01,2013-06-06 23:10:00,
2013-06-06 19:11:00,78.4,67.0,29.77,WNW,296,4.5,10.5,68,0.00,,,0.35,VWS V14.01,2013-06-06 23:11:00,
2013-06-06 19:12:00,78.3,66.9,29.77,NW,322,4.5,9.0,68,0.00,,,0.35,VWS V14.01,2013-06-06 23:12:00,
2013-06-06 19:13:00,78.4,67.4,29.77,NNW,340,3.0,6.0,69,0.00,,,0.35,VWS V14.01,2013-06-06 23:13:00,
2013-06-06 19:14:00,78.4,67.4,29.77,NNW,344,3.0,6.0,69,0.00,,,0.35,VWS V14.01,2013-06-06 23:14:00,
2013-06-06 19:15:00,78.4,67.4,29.77,NW,318,6.0,6.0,69,0.00,,,0.35,VWS V14.01,2013-06-06 23:15:00,
2013-06-06 19:16:00,78.4,67.0,29.77,NNW,343,3.0,6.0,68,0.00,,,0.35,VWS V14.01,2013-06-06 23:16:00,
2013-06-06 19:17:00,78.4,67.4,29.77,WNW,295,3.0,6.0,69,0.00,,,0.35,VWS V14.01,2013-06-06 23:17:00,
2013-06-06 19:18:00,78.4,67.4,29.77,NE,37,3.0,4.5,69,0.00,,,0.35,VWS V14.01,2013-06-06 23:18:00,
2013-06-06 19:19:00,78.4,67.4,29.77,NE,37,3.0,4.5,69,0.00,,,0.35,VWS V14.01,2013-06-06 23:19:00,
2013-06-06 19:20:00,78.4,67.4,29.77,NNW,336,3.0,4.5,69,0.00,,,0.35,VWS V14.01,2013-06-06 23:20:00,
2013-06-06 19:21:00,78.4,67.4,29.77,North,3,6.0,7.5,69,0.00,,,0.35,VWS V14.01,2013-06-06 23:21:00,
2013-06-06 19:22:00,78.3,67.3,29.77,North,4,4.5,7.5,69,0.00,,,0.35,VWS V14.01,2013-06-06 23:22:00,
2013-06-06 19:23:00,78.1,67.1,29.77,NNW,343,4.5,7.5,69,0.00,,,0.35,VWS V14.01,2013-06-06 23:23:00,
2013-06-06 19:24:00,78.1,67.1,29.77,NNW,344,3.0,7.5,69,0.00,,,0.35,VWS V14.01,2013-06-06 23:24:00,
2013-06-06 19:25:00,78.1,67.1,29.78,WNW,300,4.5,7.5,69,0.00,,,0.35,VWS V14.01,2013-06-06 23:25:00,
2013-06-06 19:26:00,78.0,67.4,29.78,NW,307,4.5,6.0,70,0.00,,,0.35,VWS V14.01,2013-06-06 23:26:00,
2013-06-06 19:27:00,78.0,67.0,29.78,NW,316,6.0,6.0,69,0.00,,,0.35,VWS V14.01,2013-06-06 23:27:00,
2013-06-06 19:28:00,77.8,66.8,29.78,NNW,347,3.0,6.0,69,0.00,,,0.35,VWS V14.01,2013-06-06 23:28:00,
2013-06-06 19:29:00,77.8,66.8,29.78,NNW,343,3.0,6.0,69,0.00,,,0.35,VWS V14.01,2013-06-06 23:29:00,
2013-06-06 19:30:00,77.7,67.1,29.77,North,11,3.0,4.5,70,0.00,,,0.35,VWS V14.01,2013-06-06 23:30:00,
2013-06-06 19:31:00,77.7,67.1,29.77,NNE,21,3.0,3.0,70,0.00,,,0.35,VWS V14.01,2013-06-06 23:31:00,
2013-06-06 19:32:00,77.6,67.1,29.77,NE,37,3.0,4.5,70,0.00,,,0.35,VWS V14.01,2013-06-06 23:32:00,
2013-06-06 19:33:00,77.4,66.9,29.77,NNW,343,3.0,4.5,70,0.00,,,0.35,VWS V14.01,2013-06-06 23:33:00,
2013-06-06 19:34:00,77.4,66.9,29.77,NNW,344,3.0,4.5,70,0.00,,,0.35,VWS V14.01,2013-06-06 23:34:00,
2013-06-06 19:35:00,77.3,66.8,29.77,NNW,339,3.0,4.5,70,0.00,,,0.35,VWS V14.01,2013-06-06 23:35:00,
2013-06-06 19:36:00,77.2,67.1,29.77,NNW,339,3.0,4.5,71,0.00,,,0.35,VWS V14.01,2013-06-06 23:36:00,
2013-06-06 19:37:00,77.1,67.0,29.77,NNW,332,4.5,4.5,71,0.00,,,0.35,VWS V14.01,2013-06-06 23:37:00,
2013-06-06 19:38:00,76.9,67.2,29.77,NNW,330,4.5,6.0,72,0.00,,,0.35,VWS V14.01,2013-06-06 23:38:00,
2013-06-06 19:39:00,76.8,67.1,29.77,North,359,3.0,6.0,72,0.00,,,0.35,VWS V14.01,2013-06-06 23:39:00,
2013-06-06 19:40:00,76.7,67.0,29.77,NNE,28,3.0,6.0,72,0.00,,,0.35,VWS V14.01,2013-06-06 23:40:00,
2013-06-06 19:41:00,76.6,67.3,29.77,NNW,327,3.0,6.0,73,0.00,,,0.35,VWS V14.01,2013-06-06 23:41:00,
2013-06-06 19:42:00,76.5,67.2,29.77,NNE,33,1.5,6.0,73,0.00,,,0.35,VWS V14.01,2013-06-06 23:42:00,
2013-06-06 19:43:00,76.3,67.4,29.77,NNE,26,7.5,7.5,74,0.00,,,0.35,VWS V14.01,2013-06-06 23:43:00,
2013-06-06 19:44:00,76.2,67.3,29.77,NE,46,3.0,7.5,74,0.00,,,0.35,VWS V14.01,2013-06-06 23:44:00,
2013-06-06 19:45:00,76.1,67.2,29.77,NE,47,1.5,7.5,74,0.00,,,0.35,VWS V14.01,2013-06-06 23:45:00,
2013-06-06 19:46:00,76.1,67.2,29.78,North,359,6.0,7.5,74,0.00,,,0.35,VWS V14.01,2013-06-06 23:46:00,
2013-06-06 19:47:00,76.1,67.2,29.77,ENE,74,3.0,7.5,74,0.00,,,0.35,VWS V14.01,2013-06-06 23:47:00,
2013-06-06 19:48:00,76.1,67.6,29.77,ENE,74,3.0,3.0,75,0.00,,,0.35,VWS V14.01,2013-06-06 23:48:00,
2013-06-06 19:49:00,76.1,67.6,29.77,NE,49,1.5,3.0,75,0.00,,,0.35,VWS V14.01,2013-06-06 23:49:00,
2013-06-06 19:50:00,76.2,67.7,29.77,NNW,334,3.0,3.0,75,0.00,,,0.35,VWS V14.01,2013-06-06 23:50:00,
2013-06-06 19:51:00,76.3,67.4,29.77,North,9,1.5,4.5,74,0.00,,,0.35,VWS V14.01,2013-06-06 23:51:00,
2013-06-06 19:52:00,76.3,67.4,29.77,North,9,1.5,4.5,74,0.00,,,0.35,VWS V14.01,2013-06-06 23:52:00,
2013-06-06 19:53:00,76.4,67.5,29.77,NNE,26,4.5,4.5,74,0.00,,,0.35,VWS V14.01,2013-06-06 23:53:00,
2013-06-06 19:54:00,76.4,67.5,29.77,NE,34,4.5,6.0,74,0.00,,,0.35,VWS V14.01,2013-06-06 23:54:00,
2013-06-06 19:55:00,76.4,67.5,29.77,North,359,4.5,6.0,74,0.00,,,0.35,VWS V14.01,2013-06-06 23:55:00,
2013-06-06 19:56:00,76.3,67.4,29.77,NNE,24,4.5,7.5,74,0.00,,,0.35,VWS V14.01,2013-06-06 23:56:00,
2013-06-06 19:57:00,76.1,67.2,29.77,NNE,21,7.5,7.5,74,0.00,,,0.35,VWS V14.01,2013-06-06 23:57:00,
2013-06-06 19:58:00,75.9,67.4,29.77,NNE,17,6.0,9.0,75,0.00,,,0.35,VWS V14.01,2013-06-06 23:58:00,
2013-06-06 19:59:00,75.9,67.4,29.77,NNE,32,3.0,9.0,75,0.00,,,0.35,VWS V14.01,2013-06-06 23:59:00,
2013-06-06 20:00:00,75.8,67.7,29.77,NE,44,3.0,9.0,76,0.00,,,0.35,VWS V14.01,2013-06-07 00:00:00,
2013-06-06 20:01:00,75.7,67.6,29.77,NNE,21,3.0,4.5,76,0.00,,,0.35,VWS V14.01,2013-06-07 00:01:00,
2013-06-06 20:02:00,75.7,67.6,29.77,NNE,30,7.5,13.5,76,0.00,,,0.35,VWS V14.01,2013-06-07 00:02:00,
2013-06-06 20:03:00,75.6,67.9,29.77,NNE,27,4.5,13.5,77,0.00,,,0.35,VWS V14.01,2013-06-07 00:03:00,
2013-06-06 20:04:00,75.5,67.8,29.77,NE,42,9.0,10.5,77,0.00,,,0.35,VWS V14.01,2013-06-07 00:04:00,
2013-06-06 20:05:00,75.5,67.8,29.77,NNE,18,3.0,9.0,77,0.00,,,0.35,VWS V14.01,2013-06-07 00:05:00,
2013-06-06 20:06:00,75.4,68.1,29.77,NNE,15,6.0,7.5,78,0.00,,,0.35,VWS V14.01,2013-06-07 00:06:00,
2013-06-06 20:07:00,75.4,68.1,29.78,NE,45,3.0,7.5,78,0.00,,,0.35,VWS V14.01,2013-06-07 00:07:00,
2013-06-06 20:08:00,75.3,68.0,29.78,ENE,66,3.0,7.5,78,0.00,,,0.35,VWS V14.01,2013-06-07 00:08:00,
2013-06-06 20:09:00,75.3,68.0,29.78,ENE,66,1.5,7.5,78,0.00,,,0.35,VWS V14.01,2013-06-07 00:09:00,
2013-06-06 20:10:00,75.2,68.2,29.78,NNE,16,4.5,7.5,79,0.00,,,0.35,VWS V14.01,2013-06-07 00:10:00,
2013-06-06 20:11:00,75.2,67.9,29.78,NE,51,4.5,7.5,78,0.00,,,0.35,VWS V14.01,2013-06-07 00:11:00,
2013-06-06 20:12:00,75.1,68.2,29.78,ENE,63,4.5,7.5,79,0.00,,,0.35,VWS V14.01,2013-06-07 00:12:00,
2013-06-06 20:13:00,75.1,68.2,29.78,NE,39,4.5,6.0,79,0.00,,,0.35,VWS V14.01,2013-06-07 00:13:00,
2013-06-06 20:14:00,75.0,68.1,29.78,NE,44,3.0,6.0,79,0.00,,,0.35,VWS V14.01,2013-06-07 00:14:00,
2013-06-06 20:15:00,75.0,68.4,29.78,NE,47,4.5,6.0,80,0.00,,,0.35,VWS V14.01,2013-06-07 00:15:00,
2013-06-06 20:16:00,75.0,68.4,29.78,North,6,4.5,6.0,80,0.00,,,0.35,VWS V14.01,2013-06-07 00:16:00,
2013-06-06 20:17:00,74.9,68.3,29.78,ENE,73,4.5,6.0,80,0.00,,,0.35,VWS V14.01,2013-06-07 00:17:00,
2013-06-06 20:18:00,74.8,68.2,29.78,ENE,59,3.0,6.0,80,0.00,,,0.35,VWS V14.01,2013-06-07 00:18:00,
2013-06-06 20:19:00,74.8,68.2,29.78,NNE,17,6.0,6.0,80,0.00,,,0.35,VWS V14.01,2013-06-07 00:19:00,
2013-06-06 20:20:00,74.8,68.2,29.78,NE,48,3.0,6.0,80,0.00,,,0.35,VWS V14.01,2013-06-07 00:20:00,
2013-06-06 20:21:00,74.7,68.1,29.78,NE,46,4.5,6.0,80,0.00,,,0.35,VWS V14.01,2013-06-07 00:21:00,
2013-06-06 20:22:00,74.6,68.0,29.78,NE,37,3.0,4.5,80,0.00,,,0.35,VWS V14.01,2013-06-07 00:22:00,
2013-06-06 20:23:00,74.5,67.9,29.78,ENE,73,3.0,4.5,80,0.00,,,0.35,VWS V14.01,2013-06-07 00:23:00,
2013-06-06 20:24:00,74.4,67.8,29.78,NNE,32,3.0,4.5,80,0.00,,,0.35,VWS V14.01,2013-06-07 00:24:00,
2013-06-06 20:25:00,74.3,67.7,29.78,NE,37,4.5,9.0,80,0.00,,,0.35,VWS V14.01,2013-06-07 00:25:00,
2013-06-06 20:26:00,74.2,67.6,29.78,ENE,62,4.5,9.0,80,0.00,,,0.35,VWS V14.01,2013-06-07 00:26:00,
2013-06-06 20:27:00,74.1,67.5,29.78,NNE,14,6.0,6.0,80,0.00,,,0.35,VWS V14.01,2013-06-07 00:27:00,
2013-06-06 20:28:00,74.0,67.8,29.78,NNE,32,7.5,9.0,81,0.00,,,0.35,VWS V14.01,2013-06-07 00:28:00,
2013-06-06 20:29:00,73.9,67.7,29.78,NNE,30,1.5,9.0,81,0.00,,,0.35,VWS V14.01,2013-06-07 00:29:00,
2013-06-06 20:30:00,73.8,67.6,29.78,NNE,30,4.5,9.0,81,0.00,,,0.35,VWS V14.01,2013-06-07 00:30:00,
2013-06-06 20:31:00,73.7,67.5,29.78,NNE,16,4.5,6.0,81,0.00,,,0.35,VWS V14.01,2013-06-07 00:31:00,
2013-06-06 20:32:00,73.6,67.4,29.78,NNE,30,3.0,6.0,81,0.00,,,0.35,VWS V14.01,2013-06-07 00:32:00,
2013-06-06 20:33:00,73.5,67.7,29.78,NNE,21,3.0,4.5,82,0.00,,,0.35,VWS V14.01,2013-06-07 00:33:00,
2013-06-06 20:34:00,73.5,67.7,29.78,NNE,21,1.5,4.5,82,0.00,,,0.35,VWS V14.01,2013-06-07 00:34:00,
2013-06-06 20:35:00,73.4,67.6,29.78,NNE,21,3.0,4.5,82,0.00,,,0.35,VWS V14.01,2013-06-07 00:35:00,
2013-06-06 20:36:00,73.3,67.5,29.78,ENE,59,4.5,6.0,82,0.00,,,0.35,VWS V14.01,2013-06-07 00:36:00,
2013-06-06 20:37:00,73.3,67.5,29.78,NNE,27,7.5,7.5,82,0.00,,,0.35,VWS V14.01,2013-06-07 00:37:00,
2013-06-06 20:38:00,73.2,67.4,29.78,NE,49,3.0,7.5,82,0.00,,,0.35,VWS V14.01,2013-06-07 00:38:00,
2013-06-06 20:39:00,73.1,67.6,29.78,NNE,21,3.0,7.5,83,0.00,,,0.35,VWS V14.01,2013-06-07 00:39:00,
2013-06-06 20:40:00,73.1,67.6,29.78,NE,34,6.0,6.0,83,0.00,,,0.35,VWS V14.01,2013-06-07 00:40:00,
2013-06-06 20:41:00,73.0,67.5,29.78,NE,49,6.0,9.0,83,0.00,,,0.35,VWS V14.01,2013-06-07 00:41:00,
2013-06-06 20:42:00,73.0,67.5,29.78,NNE,32,3.0,9.0,83,0.00,,,0.35,VWS V14.01,2013-06-07 00:42:00,
2013-06-06 20:43:00,72.8,67.3,29.78,NE,35,6.0,6.0,83,0.00,,,0.35,VWS V14.01,2013-06-07 00:43:00,
2013-06-06 20:44:00,72.8,67.3,29.78,North,352,4.5,6.0,83,0.00,,,0.35,VWS V14.01,2013-06-07 00:44:00,
2013-06-06 20:45:00,72.7,67.2,29.78,NE,39,6.0,10.5,83,0.00,,,0.35,VWS V14.01,2013-06-07 00:45:00,
2013-06-06 20:46:00,72.7,67.2,29.78,NNE,18,4.5,10.5,83,0.00,,,0.35,VWS V14.01,2013-06-07 00:46:00,
2013-06-06 20:47:00,72.6,67.2,29.78,North,7,4.5,6.0,83,0.00,,,0.35,VWS V14.01,2013-06-07 00:47:00,
2013-06-06 20:48:00,72.5,67.1,29.78,NNE,32,4.5,6.0,83,0.00,,,0.35,VWS V14.01,2013-06-07 00:48:00,
2013-06-06 20:49:00,72.5,67.1,29.78,NNE,12,3.0,4.5,83,0.00,,,0.35,VWS V14.01,2013-06-07 00:49:00,
2013-06-06 20:50:00,72.4,67.3,29.78,North,11,4.5,4.5,84,0.00,,,0.35,VWS V14.01,2013-06-07 00:50:00,
2013-06-06 20:51:00,72.4,67.3,29.78,NNE,15,1.5,4.5,84,0.00,,,0.35,VWS V14.01,2013-06-07 00:51:00,
2013-06-06 20:52:00,72.3,67.2,29.78,NE,37,1.5,4.5,84,0.00,,,0.35,VWS V14.01,2013-06-07 00:52:00,
2013-06-06 20:53:00,72.2,67.1,29.78,NE,37,1.5,3.0,84,0.00,,,0.35,VWS V14.01,2013-06-07 00:53:00,
2013-06-06 20:54:00,72.2,67.1,29.78,NE,37,1.5,3.0,84,0.00,,,0.35,VWS V14.01,2013-06-07 00:54:00,
2013-06-06 20:55:00,72.2,67.1,29.78,NE,37,1.5,3.0,84,0.00,,,0.35,VWS V14.01,2013-06-07 00:55:00,
2013-06-06 20:56:00,72.1,67.0,29.78,NE,41,1.5,1.5,84,0.00,,,0.35,VWS V14.01,2013-06-07 00:56:00,
2013-06-06 20:57:00,72.0,66.9,29.78,NE,47,4.5,4.5,84,0.00,,,0.35,VWS V14.01,2013-06-07 00:57:00,
2013-06-06 20:58:00,72.0,66.9,29.79,NE,43,3.0,4.5,84,0.00,,,0.35,VWS V14.01,2013-06-07 00:58:00,
2013-06-06 20:59:00,72.0,66.9,29.79,NE,44,3.0,4.5,84,0.00,,,0.35,VWS V14.01,2013-06-07 00:59:00,
2013-06-06 21:00:00,71.9,67.2,29.78,North,6,1.5,4.5,85,0.00,,,0.35,VWS V14.01,2013-06-07 01:00:00,
2013-06-06 21:01:00,71.9,67.2,29.78,North,5,1.5,4.5,85,0.00,,,0.35,VWS V14.01,2013-06-07 01:01:00,
2013-06-06 21:02:00,71.8,67.1,29.78,NNE,30,1.5,3.0,85,0.00,,,0.35,VWS V14.01,2013-06-07 01:02:00,
2013-06-06 21:03:00,71.8,67.1,29.78,NE,52,3.0,3.0,85,0.00,,,0.35,VWS V14.01,2013-06-07 01:03:00,
2013-06-06 21:04:00,71.8,67.1,29.78,NE,52,3.0,3.0,85,0.00,,,0.35,VWS V14.01,2013-06-07 01:04:00,
2013-06-06 21:05:00,71.7,67.0,29.78,NE,52,3.0,3.0,85,0.00,,,0.35,VWS V14.01,2013-06-07 01:05:00,
2013-06-06 21:06:00,71.6,66.9,29.78,NE,52,1.5,3.0,85,0.00,,,0.35,VWS V14.01,2013-06-07 01:06:00,
2013-06-06 21:07:00,71.6,66.9,29.78,NE,51,1.5,3.0,85,0.00,,,0.35,VWS V14.01,2013-06-07 01:07:00,
2013-06-06 21:08:00,71.6,66.9,29.78,NE,52,1.5,3.0,85,0.00,,,0.35,VWS V14.01,2013-06-07 01:08:00,
2013-06-06 21:09:00,71.5,66.8,29.78,NE,52,1.5,3.0,85,0.00,,,0.35,VWS V14.01,2013-06-07 01:09:00,
2013-06-06 21:10:00,71.5,66.8,29.78,NE,52,3.0,3.0,85,0.00,,,0.35,VWS V14.01,2013-06-07 01:10:00,
2013-06-06 21:11:00,71.5,66.8,29.78,NE,52,3.0,3.0,85,0.00,,,0.35,VWS V14.01,2013-06-07 01:11:00,
2013-06-06 21:12:00,71.4,66.7,29.78,NE,49,1.5,3.0,85,0.00,,,0.35,VWS V14.01,2013-06-07 01:12:00,
2013-06-06 21:13:00,71.3,66.6,29.78,NE,49,3.0,3.0,85,0.00,,,0.35,VWS V14.01,2013-06-07 01:13:00,
2013-06-06 21:14:00,71.3,66.6,29.78,NE,49,1.5,3.0,85,0.00,,,0.35,VWS V14.01,2013-06-07 01:14:00,
2013-06-06 21:15:00,71.2,66.8,29.78,NE,49,4.5,4.5,86,0.00,,,0.35,VWS V14.01,2013-06-07 01:15:00,
2013-06-06 21:16:00,71.2,66.8,29.78,NE,49,1.5,4.5,86,0.00,,,0.35,VWS V14.01,2013-06-07 01:16:00,
2013-06-06 21:17:00,71.1,66.7,29.78,NE,49,1.5,3.0,86,0.00,,,0.35,VWS V14.01,2013-06-07 01:17:00,
2013-06-06 21:18:00,71.1,66.7,29.78,NE,47,1.5,1.5,86,0.00,,,0.35,VWS V14.01,2013-06-07 01:18:00,
2013-06-06 21:19:00,71.0,66.6,29.78,NE,49,1.5,1.5,86,0.00,,,0.35,VWS V14.01,2013-06-07 01:19:00,
2013-06-06 21:20:00,71.0,66.6,29.78,NE,49,1.5,1.5,86,0.00,,,0.35,VWS V14.01,2013-06-07 01:20:00,
2013-06-06 21:21:00,70.9,66.5,29.78,NE,49,1.5,3.0,86,0.00,,,0.35,VWS V14.01,2013-06-07 01:21:00,
2013-06-06 21:22:00,70.9,66.5,29.78,NE,47,3.0,3.0,86,0.00,,,0.35,VWS V14.01,2013-06-07 01:22:00,
2013-06-06 21:23:00,70.8,66.4,29.78,NE,47,1.5,3.0,86,0.00,,,0.35,VWS V14.01,2013-06-07 01:23:00,
2013-06-06 21:24:00,70.8,66.4,29.78,NE,49,1.5,3.0,86,0.00,,,0.35,VWS V14.01,2013-06-07 01:24:00,
2013-06-06 21:25:00,70.7,66.3,29.78,NE,49,3.0,3.0,86,0.00,,,0.35,VWS V14.01,2013-06-07 01:25:00,
2013-06-06 21:26:00,70.7,66.3,29.78,NE,49,1.5,3.0,86,0.00,,,0.35,VWS V14.01,2013-06-07 01:26:00,
2013-06-06 21:27:00,70.6,66.6,29.78,NE,51,1.5,3.0,87,0.00,,,0.35,VWS V14.01,2013-06-07 01:27:00,
2013-06-06 21:28:00,70.5,66.4,29.78,NE,49,1.5,1.5,87,0.00,,,0.35,VWS V14.01,2013-06-07 01:28:00,
2013-06-06 21:29:00,70.5,66.4,29.78,NE,49,1.5,1.5,87,0.00,,,0.35,VWS V14.01,2013-06-07 01:29:00,
2013-06-06 21:30:00,70.5,66.4,29.78,NE,49,1.5,1.5,87,0.00,,,0.35,VWS V14.01,2013-06-07 01:30:00,
2013-06-06 21:31:00,70.4,66.3,29.78,NE,49,1.5,1.5,87,0.00,,,0.35,VWS V14.01,2013-06-07 01:31:00,
2013-06-06 21:32:00,70.4,66.3,29.78,NE,49,1.5,1.5,87,0.00,,,0.35,VWS V14.01,2013-06-07 01:32:00,
2013-06-06 21:33:00,70.3,66.2,29.78,NE,49,1.5,1.5,87,0.00,,,0.35,VWS V14.01,2013-06-07 01:33:00,
2013-06-06 21:34:00,70.2,66.2,29.78,NE,49,1.5,1.5,87,0.00,,,0.35,VWS V14.01,2013-06-07 01:34:00,
2013-06-06 21:35:00,70.2,66.2,29.78,NE,49,1.5,1.5,87,0.00,,,0.35,VWS V14.01,2013-06-07 01:35:00,
2013-06-06 21:36:00,70.1,66.1,29.78,NE,49,1.5,1.5,87,0.00,,,0.35,VWS V14.01,2013-06-07 01:36:00,
2013-06-06 21:37:00,70.0,66.0,29.78,NE,49,1.5,1.5,87,0.00,,,0.35,VWS V14.01,2013-06-07 01:37:00,
2013-06-06 21:38:00,70.0,66.3,29.78,NE,49,1.5,3.0,88,0.00,,,0.35,VWS V14.01,2013-06-07 01:38:00,
2013-06-06 21:39:00,69.9,66.2,29.78,NE,49,1.5,3.0,88,0.00,,,0.35,VWS V14.01,2013-06-07 01:39:00,
2013-06-06 21:40:00,69.9,66.2,29.78,NE,48,1.5,3.0,88,0.00,,,0.35,VWS V14.01,2013-06-07 01:40:00,
2013-06-06 21:41:00,69.8,66.1,29.78,NE,47,1.5,1.5,88,0.00,,,0.35,VWS V14.01,2013-06-07 01:41:00,
2013-06-06 21:42:00,69.8,66.1,29.78,NE,47,1.5,1.5,88,0.00,,,0.35,VWS V14.01,2013-06-07 01:42:00,
2013-06-06 21:43:00,69.8,66.1,29.78,NE,48,1.5,1.5,88,0.00,,,0.35,VWS V14.01,2013-06-07 01:43:00,
2013-06-06 21:44:00,69.7,66.0,29.78,NE,47,1.5,1.5,88,0.00,,,0.35,VWS V14.01,2013-06-07 01:44:00,
2013-06-06 21:45:00,69.7,66.0,29.79,NE,48,1.5,1.5,88,0.00,,,0.35,VWS V14.01,2013-06-07 01:45:00,
2013-06-06 21:46:00,69.7,66.0,29.78,NE,48,1.5,1.5,88,0.00,,,0.35,VWS V14.01,2013-06-07 01:46:00,
2013-06-06 21:47:00,69.6,65.9,29.78,NE,47,1.5,1.5,88,0.00,,,0.35,VWS V14.01,2013-06-07 01:47:00,
2013-06-06 21:48:00,69.6,65.9,29.78,NE,47,1.5,3.0,88,0.00,,,0.35,VWS V14.01,2013-06-07 01:48:00,
2013-06-06 21:49:00,69.6,65.9,29.78,NE,47,1.5,3.0,88,0.00,,,0.35,VWS V14.01,2013-06-07 01:49:00,
2013-06-06 21:50:00,69.5,65.8,29.79,NE,47,1.5,3.0,88,0.00,,,0.35,VWS V14.01,2013-06-07 01:50:00,
2013-06-06 21:51:00,69.5,65.8,29.79,NE,49,1.5,1.5,88,0.00,,,0.35,VWS V14.01,2013-06-07 01:51:00,
2013-06-06 21:52:00,69.4,65.7,29.79,NE,47,1.5,1.5,88,0.00,,,0.35,VWS V14.01,2013-06-07 01:52:00,
2013-06-06 21:53:00,69.3,65.6,29.79,NE,49,1.5,1.5,88,0.00,,,0.35,VWS V14.01,2013-06-07 01:53:00,
2013-06-06 21:54:00,69.3,65.6,29.79,NE,49,1.5,1.5,88,0.00,,,0.35,VWS V14.01,2013-06-07 01:54:00,
2013-06-06 21:55:00,69.3,65.6,29.79,NE,49,1.5,1.5,88,0.00,,,0.35,VWS V14.01,2013-06-07 01:55:00,
2013-06-06 21:56:00,69.2,65.5,29.79,NE,49,1.5,1.5,88,0.00,,,0.35,VWS V14.01,2013-06-07 01:56:00,
2013-06-06 21:57:00,69.2,65.5,29.79,NE,49,1.5,1.5,88,0.00,,,0.35,VWS V14.01,2013-06-07 01:57:00,
2013-06-06 21:58:00,69.2,65.5,29.79,NE,47,1.5,1.5,88,0.00,,,0.35,VWS V14.01,2013-06-07 01:58:00,
2013-06-06 21:59:00,69.1,65.4,29.79,NE,49,1.5,1.5,88,0.00,,,0.35,VWS V14.01,2013-06-07 01:59:00,
2013-06-06 22:00:00,69.1,65.4,29.79,NE,47,1.5,3.0,88,0.00,,,0.35,VWS V14.01,2013-06-07 02:00:00,
2013-06-06 22:01:00,69.0,65.6,29.79,NE,48,1.5,3.0,89,0.00,,,0.35,VWS V14.01,2013-06-07 02:01:00,
2013-06-06 22:02:00,69.0,65.6,29.79,NE,47,1.5,1.5,89,0.00,,,0.35,VWS V14.01,2013-06-07 02:02:00,
2013-06-06 22:03:00,68.9,65.5,29.79,NE,47,1.5,1.5,89,0.00,,,0.35,VWS V14.01,2013-06-07 02:03:00,
2013-06-06 22:04:00,68.9,65.5,29.79,NE,48,1.5,1.5,89,0.00,,,0.35,VWS V14.01,2013-06-07 02:04:00,
2013-06-06 22:05:00,68.8,65.4,29.79,NE,47,1.5,1.5,89,0.00,,,0.35,VWS V14.01,2013-06-07 02:05:00,
2013-06-06 22:06:00,68.8,65.4,29.79,NE,47,1.5,1.5,89,0.00,,,0.35,VWS V14.01,2013-06-07 02:06:00,
2013-06-06 22:07:00,68.8,65.4,29.79,NE,48,1.5,1.5,89,0.00,,,0.35,VWS V14.01,2013-06-07 02:07:00,
2013-06-06 22:08:00,68.7,65.3,29.79,NE,47,1.5,1.5,89,0.00,,,0.35,VWS V14.01,2013-06-07 02:08:00,
2013-06-06 22:09:00,68.7,65.3,29.79,NE,48,1.5,1.5,89,0.00,,,0.35,VWS V14.01,2013-06-07 02:09:00,
2013-06-06 22:10:00,68.7,65.3,29.79,NE,47,1.5,1.5,89,0.00,,,0.35,VWS V14.01,2013-06-07 02:10:00,
2013-06-06 22:11:00,68.6,65.2,29.79,NE,48,1.5,1.5,89,0.00,,,0.35,VWS V14.01,2013-06-07 02:11:00,
2013-06-06 22:12:00,68.6,65.2,29.79,NE,48,1.5,1.5,89,0.00,,,0.35,VWS V14.01,2013-06-07 02:12:00,
2013-06-06 22:13:00,68.5,65.1,29.80,NE,48,1.5,1.5,89,0.00,,,0.35,VWS V14.01,2013-06-07 02:13:00,
2013-06-06 22:14:00,68.5,65.1,29.80,NE,48,1.5,1.5,89,0.00,,,0.35,VWS V14.01,2013-06-07 02:14:00,
2013-06-06 22:15:00,68.4,65.0,29.80,NE,48,1.5,1.5,89,0.00,,,0.35,VWS V14.01,2013-06-07 02:15:00,
2013-06-06 22:16:00,68.4,65.0,29.80,NE,47,1.5,1.5,89,0.00,,,0.35,VWS V14.01,2013-06-07 02:16:00,
2013-06-06 22:17:00,68.3,64.9,29.80,NE,48,1.5,1.5,89,0.00,,,0.35,VWS V14.01,2013-06-07 02:17:00,
2013-06-06 22:18:00,68.3,64.9,29.80,NE,47,1.5,1.5,89,0.00,,,0.35,VWS V14.01,2013-06-07 02:18:00,
2013-06-06 22:19:00,68.3,64.9,29.80,NE,48,1.5,1.5,89,0.00,,,0.35,VWS V14.01,2013-06-07 02:19:00,
2013-06-06 22:20:00,68.2,64.8,29.80,NE,48,1.5,1.5,89,0.00,,,0.35,VWS V14.01,2013-06-07 02:20:00,
2013-06-06 22:21:00,68.2,65.2,29.80,NE,48,1.5,1.5,90,0.00,,,0.35,VWS V14.01,2013-06-07 02:21:00,
2013-06-06 22:22:00,68.1,65.1,29.80,NE,48,1.5,1.5,90,0.00,,,0.35,VWS V14.01,2013-06-07 02:22:00,
2013-06-06 22:23:00,68.1,64.7,29.80,NE,47,1.5,1.5,89,0.00,,,0.35,VWS V14.01,2013-06-07 02:23:00,
2013-06-06 22:24:00,68.0,64.6,29.80,NE,47,1.5,1.5,89,0.00,,,0.35,VWS V14.01,2013-06-07 02:24:00,
2013-06-06 22:25:00,68.0,64.6,29.80,NE,48,1.5,1.5,89,0.00,,,0.35,VWS V14.01,2013-06-07 02:25:00,
2013-06-06 22:26:00,67.9,64.9,29.80,NE,47,1.5,1.5,90,0.00,,,0.35,VWS V14.01,2013-06-07 02:26:00,
2013-06-06 22:27:00,67.9,64.9,29.80,NE,47,1.5,1.5,90,0.00,,,0.35,VWS V14.01,2013-06-07 02:27:00,
2013-06-06 22:28:00,67.9,64.9,29.80,NE,47,1.5,1.5,90,0.00,,,0.35,VWS V14.01,2013-06-07 02:28:00,
2013-06-06 22:29:00,67.9,64.9,29.80,NE,48,1.5,1.5,90,0.00,,,0.35,VWS V14.01,2013-06-07 02:29:00,
2013-06-06 22:30:00,67.8,64.8,29.80,NE,48,1.5,1.5,90,0.00,,,0.35,VWS V14.01,2013-06-07 02:30:00,
2013-06-06 22:31:00,67.8,64.8,29.80,NE,47,1.5,1.5,90,0.00,,,0.35,VWS V14.01,2013-06-07 02:31:00,
2013-06-06 22:32:00,67.8,64.8,29.80,NE,48,1.5,1.5,90,0.00,,,0.35,VWS V14.01,2013-06-07 02:32:00,
2013-06-06 22:33:00,67.7,64.7,29.81,NE,48,1.5,1.5,90,0.00,,,0.35,VWS V14.01,2013-06-07 02:33:00,
2013-06-06 22:34:00,67.7,64.7,29.81,NE,48,1.5,1.5,90,0.00,,,0.35,VWS V14.01,2013-06-07 02:34:00,
2013-06-06 22:35:00,67.7,64.7,29.80,NE,48,1.5,1.5,90,0.00,,,0.35,VWS V14.01,2013-06-07 02:35:00,
2013-06-06 22:36:00,67.7,65.0,29.80,NE,47,1.5,1.5,91,0.00,,,0.35,VWS V14.01,2013-06-07 02:36:00,
2013-06-06 22:37:00,67.7,65.0,29.81,NE,48,1.5,1.5,91,0.00,,,0.35,VWS V14.01,2013-06-07 02:37:00,
2013-06-06 22:38:00,67.7,65.0,29.81,NE,48,1.5,1.5,91,0.00,,,0.35,VWS V14.01,2013-06-07 02:38:00,
2013-06-06 22:39:00,67.7,65.0,29.81,NE,47,1.5,1.5,91,0.00,,,0.35,VWS V14.01,2013-06-07 02:39:00,
2013-06-06 22:40:00,67.7,65.0,29.81,NE,49,1.5,1.5,91,0.00,,,0.35,VWS V14.01,2013-06-07 02:40:00,
2013-06-06 22:41:00,67.7,65.0,29.81,NE,52,1.5,1.5,91,0.00,,,0.35,VWS V14.01,2013-06-07 02:41:00,
2013-06-06 22:42:00,67.6,64.9,29.81,NE,51,1.5,3.0,91,0.00,,,0.35,VWS V14.01,2013-06-07 02:42:00,
2013-06-06 22:43:00,67.7,65.0,29.80,NE,51,3.0,4.5,91,0.00,,,0.35,VWS V14.01,2013-06-07 02:43:00,
2013-06-06 22:44:00,67.7,65.0,29.80,NE,51,4.5,4.5,91,0.00,,,0.35,VWS V14.01,2013-06-07 02:44:00,
2013-06-06 22:45:00,67.7,65.0,29.80,NE,51,3.0,4.5,91,0.00,,,0.35,VWS V14.01,2013-06-07 02:45:00,
2013-06-06 22:46:00,67.7,65.0,29.80,NE,52,1.5,3.0,91,0.00,,,0.35,VWS V14.01,2013-06-07 02:46:00,
2013-06-06 22:47:00,67.6,64.9,29.80,NE,52,1.5,3.0,91,0.00,,,0.35,VWS V14.01,2013-06-07 02:47:00,
2013-06-06 22:48:00,67.6,64.9,29.80,NE,39,1.5,3.0,91,0.00,,,0.35,VWS V14.01,2013-06-07 02:48:00,
2013-06-06 22:49:00,67.6,64.9,29.80,NE,40,1.5,3.0,91,0.00,,,0.35,VWS V14.01,2013-06-07 02:49:00,
2013-06-06 22:50:00,67.6,64.9,29.80,NE,40,1.5,1.5,91,0.00,,,0.35,VWS V14.01,2013-06-07 02:50:00,
2013-06-06 22:51:00,67.6,64.9,29.80,NE,39,1.5,1.5,91,0.00,,,0.35,VWS V14.01,2013-06-07 02:51:00,
2013-06-06 22:52:00,67.5,64.8,29.81,NE,39,1.5,1.5,91,0.00,,,0.35,VWS V14.01,2013-06-07 02:52:00,
2013-06-06 22:53:00,67.5,65.1,29.81,NE,42,1.5,1.5,92,0.00,,,0.35,VWS V14.01,2013-06-07 02:53:00,
2013-06-06 22:54:00,67.5,65.1,29.81,NE,42,3.0,3.0,92,0.00,,,0.35,VWS V14.01,2013-06-07 02:54:00,
2013-06-06 22:55:00,67.4,65.0,29.81,NE,42,1.5,3.0,92,0.00,,,0.35,VWS V14.01,2013-06-07 02:55:00,
2013-06-06 22:56:00,67.4,65.0,29.81,NE,49,1.5,1.5,92,0.00,,,0.35,VWS V14.01,2013-06-07 02:56:00,
2013-06-06 22:57:00,67.3,64.9,29.81,NE,49,1.5,1.5,92,0.00,,,0.35,VWS V14.01,2013-06-07 02:57:00,
2013-06-06 22:58:00,67.3,64.9,29.81,NE,49,1.5,3.0,92,0.00,,,0.35,VWS V14.01,2013-06-07 02:58:00,
2013-06-06 22:59:00,67.3,64.9,29.81,NE,55,4.5,4.5,92,0.00,,,0.35,VWS V14.01,2013-06-07 02:59:00,
2013-06-06 23:00:00,67.3,65.2,29.81,NE,55,3.0,4.5,93,0.00,,,0.35,VWS V14.01,2013-06-07 03:00:00,
2013-06-06 23:01:00,67.2,65.1,29.81,NE,55,1.5,4.5,93,0.00,,,0.35,VWS V14.01,2013-06-07 03:01:00,
2013-06-06 23:02:00,67.2,65.1,29.81,NE,54,3.0,3.0,93,0.00,,,0.35,VWS V14.01,2013-06-07 03:02:00,
2013-06-06 23:03:00,67.2,65.1,29.81,NE,54,1.5,3.0,93,0.00,,,0.35,VWS V14.01,2013-06-07 03:03:00,
2013-06-06 23:04:00,67.2,65.1,29.81,NE,54,1.5,3.0,93,0.00,,,0.35,VWS V14.01,2013-06-07 03:04:00,
2013-06-06 23:05:00,67.1,65.0,29.81,NE,52,1.5,1.5,93,0.00,,,0.35,VWS V14.01,2013-06-07 03:05:00,
2013-06-06 23:06:00,67.0,64.9,29.81,NE,54,1.5,3.0,93,0.00,,,0.35,VWS V14.01,2013-06-07 03:06:00,
2013-06-06 23:07:00,67.0,64.9,29.81,NE,55,1.5,3.0,93,0.00,,,0.35,VWS V14.01,2013-06-07 03:07:00,
2013-06-06 23:08:00,67.0,64.9,29.81,NE,55,1.5,1.5,93,0.00,,,0.35,VWS V14.01,2013-06-07 03:08:00,
2013-06-06 23:09:00,66.9,64.8,29.81,NE,54,1.5,1.5,93,0.00,,,0.35,VWS V14.01,2013-06-07 03:09:00,
2013-06-06 23:10:00,66.8,64.7,29.81,NE,55,1.5,1.5,93,0.00,,,0.35,VWS V14.01,2013-06-07 03:10:00,
2013-06-06 23:11:00,66.8,64.7,29.81,NE,54,1.5,1.5,93,0.00,,,0.35,VWS V14.01,2013-06-07 03:11:00,
2013-06-06 23:12:00,66.8,64.7,29.81,NE,55,1.5,1.5,93,0.00,,,0.35,VWS V14.01,2013-06-07 03:12:00,
2013-06-06 23:13:00,66.7,64.6,29.81,NE,54,1.5,1.5,93,0.00,,,0.35,VWS V14.01,2013-06-07 03:13:00,
2013-06-06 23:14:00,66.7,64.6,29.81,NE,55,1.5,1.5,93,0.00,,,0.35,VWS V14.01,2013-06-07 03:14:00,
2013-06-06 23:15:00,66.6,64.5,29.81,NE,54,1.5,1.5,93,0.00,,,0.35,VWS V14.01,2013-06-07 03:15:00,
2013-06-06 23:16:00,66.6,64.5,29.81,NE,53,1.5,3.0,93,0.00,,,0.35,VWS V14.01,2013-06-07 03:16:00,
2013-06-06 23:17:00,66.6,64.5,29.81,NE,53,1.5,3.0,93,0.00,,,0.35,VWS V14.01,2013-06-07 03:17:00,
2013-06-06 23:18:00,66.5,64.4,29.81,NE,53,1.5,1.5,93,0.00,,,0.35,VWS V14.01,2013-06-07 03:18:00,
2013-06-06 23:19:00,66.5,64.4,29.81,NE,54,1.5,1.5,93,0.00,,,0.35,VWS V14.01,2013-06-07 03:19:00,
2013-06-06 23:20:00,66.4,64.3,29.81,NE,53,1.5,1.5,93,0.00,,,0.35,VWS V14.01,2013-06-07 03:20:00,
2013-06-06 23:21:00,66.4,64.3,29.81,NE,54,1.5,1.5,93,0.00,,,0.35,VWS V14.01,2013-06-07 03:21:00,
2013-06-06 23:22:00,66.4,64.3,29.81,NE,54,1.5,1.5,93,0.00,,,0.35,VWS V14.01,2013-06-07 03:22:00,
2013-06-06 23:23:00,66.3,64.2,29.81,NE,54,1.5,1.5,93,0.00,,,0.35,VWS V14.01,2013-06-07 03:23:00,
2013-06-06 23:24:00,66.3,64.2,29.81,NE,53,1.5,4.5,93,0.00,,,0.35,VWS V14.01,2013-06-07 03:24:00,
2013-06-06 23:25:00,66.3,64.5,29.81,NE,54,1.5,4.5,94,0.00,,,0.35,VWS V14.01,2013-06-07 03:25:00,
2013-06-06 23:26:00,66.3,64.5,29.81,NE,53,1.5,1.5,94,0.00,,,0.35,VWS V14.01,2013-06-07 03:26:00,
2013-06-06 23:27:00,66.3,64.5,29.81,NE,54,1.5,3.0,94,0.00,,,0.35,VWS V14.01,2013-06-07 03:27:00,
2013-06-06 23:28:00,66.3,64.5,29.81,NE,53,3.0,3.0,94,0.00,,,0.35,VWS V14.01,2013-06-07 03:28:00,
2013-06-06 23:29:00,66.3,64.5,29.81,NE,53,1.5,3.0,94,0.00,,,0.35,VWS V14.01,2013-06-07 03:29:00,
2013-06-06 23:30:00,66.3,64.5,29.81,NE,54,1.5,3.0,94,0.00,,,0.35,VWS V14.01,2013-06-07 03:30:00,
2013-06-06 23:31:00,66.3,64.5,29.81,NE,53,1.5,1.5,94,0.00,,,0.35,VWS V14.01,2013-06-07 03:31:00,
2013-06-06 23:32:00,66.3,64.5,29.81,NE,54,1.5,1.5,94,0.00,,,0.35,VWS V14.01,2013-06-07 03:32:00,
2013-06-06 23:33:00,66.3,64.5,29.81,NE,53,1.5,1.5,94,0.00,,,0.35,VWS V14.01,2013-06-07 03:33:00,
2013-06-06 23:34:00,66.3,64.5,29.81,NE,54,3.0,3.0,94,0.00,,,0.35,VWS V14.01,2013-06-07 03:34:00,
2013-06-06 23:35:00,66.2,64.4,29.81,NE,53,1.5,3.0,94,0.00,,,0.35,VWS V14.01,2013-06-07 03:35:00,
2013-06-06 23:36:00,66.2,64.4,29.81,NE,42,1.5,1.5,94,0.00,,,0.35,VWS V14.01,2013-06-07 03:36:00,
2013-06-06 23:37:00,66.2,64.4,29.81,NE,41,1.5,1.5,94,0.00,,,0.35,VWS V14.01,2013-06-07 03:37:00,
2013-06-06 23:38:00,66.2,64.1,29.81,NNE,23,4.5,7.5,93,0.00,,,0.35,VWS V14.01,2013-06-07 03:38:00,
2013-06-06 23:39:00,66.2,64.1,29.81,ENE,58,1.5,7.5,93,0.00,,,0.35,VWS V14.01,2013-06-07 03:39:00,
2013-06-06 23:40:00,66.2,64.1,29.81,ENE,58,1.5,6.0,93,0.00,,,0.35,VWS V14.01,2013-06-07 03:40:00,
2013-06-06 23:41:00,66.1,64.0,29.81,ENE,58,1.5,1.5,93,0.00,,,0.35,VWS V14.01,2013-06-07 03:41:00,
2013-06-06 23:42:00,66.1,64.0,29.81,ENE,59,4.5,4.5,93,0.00,,,0.35,VWS V14.01,2013-06-07 03:42:00,
2013-06-06 23:43:00,66.1,64.0,29.81,ENE,60,6.0,7.5,93,0.00,,,0.35,VWS V14.01,2013-06-07 03:43:00,
2013-06-06 23:44:00,66.2,64.1,29.81,NE,56,4.5,7.5,93,0.00,,,0.35,VWS V14.01,2013-06-07 03:44:00,
2013-06-06 23:45:00,66.2,64.1,29.81,ENE,62,1.5,6.0,93,0.00,,,0.35,VWS V14.01,2013-06-07 03:45:00,
2013-06-06 23:46:00,66.2,64.1,29.81,ENE,62,3.0,6.0,93,0.00,,,0.35,VWS V14.01,2013-06-07 03:46:00,
2013-06-06 23:47:00,66.3,64.2,29.81,NE,46,6.0,6.0,93,0.00,,,0.35,VWS V14.01,2013-06-07 03:47:00,
2013-06-06 23:48:00,66.3,64.2,29.81,NE,37,7.5,9.0,93,0.00,,,0.35,VWS V14.01,2013-06-07 03:48:00,
2013-06-06 23:49:00,66.4,64.3,29.81,NE,45,6.0,9.0,93,0.00,,,0.35,VWS V14.01,2013-06-07 03:49:00,
2013-06-06 23:50:00,66.4,64.3,29.81,North,3,10.5,10.5,93,0.00,,,0.35,VWS V14.01,2013-06-07 03:50:00,
2013-06-06 23:51:00,66.5,64.4,29.81,ENE,59,4.5,10.5,93,0.00,,,0.35,VWS V14.01,2013-06-07 03:51:00,
2013-06-06 23:52:00,66.5,64.1,29.81,NNE,14,4.5,7.5,92,0.00,,,0.35,VWS V14.01,2013-06-07 03:52:00,
2013-06-06 23:53:00,66.6,64.2,29.81,ENE,75,3.0,6.0,92,0.00,,,0.35,VWS V14.01,2013-06-07 03:53:00,
2013-06-06 23:54:00,66.6,64.2,29.81,ENE,67,1.5,6.0,92,0.00,,,0.35,VWS V14.01,2013-06-07 03:54:00,
2013-06-06 23:55:00,66.6,64.2,29.81,ENE,66,3.0,3.0,92,0.00,,,0.35,VWS V14.01,2013-06-07 03:55:00,
2013-06-06 23:56:00,66.6,64.2,29.81,ENE,69,3.0,4.5,92,0.00,,,0.35,VWS V14.01,2013-06-07 03:56:00,
2013-06-06 23:57:00,66.6,64.2,29.81,East,83,3.0,4.5,92,0.00,,,0.35,VWS V14.01,2013-06-07 03:57:00,
2013-06-06 23:58:00,66.6,64.2,29.81,NNE,17,3.0,6.0,92,0.00,,,0.35,VWS V14.01,2013-06-07 03:58:00,
2013-06-06 23:59:00,66.6,64.2,29.81,NNE,20,1.5,6.0,92,0.00,,,0.35,VWS V14.01,2013-06-07 03:59:00,